[[{"header":{"parameterUnit":"m.s-1","parameterCategory":1,"la1":30.6,"la2":28.766,"lo1":-90.7593,"lo2":-88.6598,"dx":0.0162,"dy":0.0183,"nx":116,"ny":114,"refTime":"2022-12-27T18:00:00:Z","depth":0,"parameterNumber":2,"parameterNumberName":"U-component_of_WINDS"},"data":[0.0,0.0,0.0,0.0,0.0,0.0,0.0,0.0,0.0,0.0,0.0,0.0,0.0,0.0,0.0,0.0,0.0,0.0,0.0,0.0,0.0,0.0,0.0,0.0,0.0,0.0,0.0,0.0,0.0,0.0,0.0,0.0,0.0,0.0,0.0,0.0,0.0,0.0,0.0,0.0,0.0,0.0,0.0,0.0,0.0,0.0,0.0,0.0,0.0,0.0,0.0,0.0,0.0,0.0,0.0,0.0,0.0,0.0,0.0,0.0,0.0,0.0,0.0,0.0,0.0,0.0,0.0,0.0,0.0,0.0,0.0,0.0,0.0,0.0,0.0,0.0,0.0,0.0,0.0,0.0,0.0,0.0,0.0,0.0,0.0,0.0,0.0,0.0,0.0,0.0,0.0,0.0,0.0,0.0,0.0,0.0,0.0,0.0,0.0,0.0,0.0,0.0,0.0,0.0,0.0,0.0,0.0,0.0,0.0,0.0,0.0,0.0,0.0,0.0,0.0,0.0,0.0,0.0,0.0,0.0,0.0,0.0,0.0,0.0,0.0,0.0,0.0,0.0,0.0,0.0,0.0,0.0,0.0,0.0,0.0,0.0,0.0,0.0,0.0,0.0,0.0,0.0,0.0,0.0,0.0,0.0,0.0,0.0,0.0,0.0,0.0,0.0,0.0,0.0,0.0,0.0,0.0,0.0,0.0,0.0,0.0,0.0,0.0,0.0,0.0,0.0,0.0,0.0,0.0,0.0,0.0,0.0,0.0,0.0,0.0,0.0,0.0,0.0,0.0,0.0,0.0,0.0,0.0,0.0,0.0,0.0,0.0,0.0,0.0,0.0,0.0,0.0,0.0,0.0,0.0,0.0,0.0,0.0,0.0,0.0,0.0,0.0,0.0,0.0,0.0,0.0,0.0,0.0,0.0,0.0,0.0,0.0,0.0,0.0,0.0,0.0,0.0,0.0,0.0,0.0,0.0,0.0,0.0,0.0,0.0,0.0,0.0,0.0,0.0,0.0,0.0,0.0,0.0,0.0,0.0,0.0,0.0,0.0,0.0,0.0,0.0,0.0,0.0,0.0,0.0,0.0,0.0,0.0,0.0,0.0,0.0,0.0,0.0,0.0,0.0,0.0,0.0,0.0,0.0,0.0,0.0,0.0,0.0,0.0,0.0,0.0,0.0,0.0,0.0,0.0,0.0,0.0,0.0,0.0,0.0,0.0,0.0,0.0,0.0,0.0,0.0,0.0,0.0,0.0,0.0,0.0,0.0,0.0,0.0,0.0,0.0,0.0,0.0,0.0,0.0,0.0,0.0,0.0,0.0,0.0,0.0,0.0,0.0,0.0,0.0,0.0,0.0,0.0,0.0,0.0,0.0,0.0,0.0,0.0,0.0,0.0,0.0,0.0,0.0,0.0,0.0,0.0,0.0,0.0,0.0,0.0,0.0,0.0,0.0,0.0,0.0,0.0,0.0,0.0,0.0,0.0,0.0,0.0,0.0,0.0,0.0,0.0,0.0,0.0,0.0,0.0,0.0,0.0,0.0,0.0,0.0,0.0,0.0,0.0,0.0,0.0,0.0,0.0,0.0,0.0,0.0,0.0,0.0,0.0,0.0,0.0,0.0,0.0,0.0,0.0,0.0,0.0,0.0,0.0,0.0,0.0,0.0,0.0,0.0,0.0,0.0,0.0,0.0,0.0,0.0,0.0,0.0,0.0,0.0,0.0,0.0,0.0,0.0,0.0,0.0,0.0,0.0,0.0,0.0,0.0,0.0,0.0,0.0,0.0,0.0,0.0,0.0,0.0,0.0,0.0,0.0,0.0,0.0,0.0,0.0,0.0,0.0,0.0,0.0,0.0,0.0,0.0,0.0,0.0,0.0,0.0,0.0,0.0,0.0,0.0,0.0,0.0,0.0,0.0,0.0,0.0,0.0,0.0,0.0,0.0,0.0,0.0,0.0,0.0,0.0,0.0,0.0,0.0,0.0,0.0,0.0,0.0,0.0,0.0,0.0,0.0,0.0,0.0,0.0,0.0,0.0,0.0,0.0,0.0,0.0,0.0,0.0,0.0,0.0,0.0,0.0,0.0,0.0,0.0,0.0,0.0,0.0,0.0,0.0,0.0,0.0,0.0,0.0,0.0,0.0,0.0,0.0,0.0,0.0,0.0,0.0,0.0,0.0,0.0,0.0,0.0,0.0,0.0,0.0,0.0,0.0,0.0,0.0,0.0,0.0,0.0,0.0,0.0,0.0,0.0,0.0,0.0,0.0,0.0,0.0,0.0,0.0,0.0,0.0,0.0,0.0,0.0,0.0,0.0,0.0,0.0,0.0,0.0,0.0,0.0,0.0,0.0,0.0,0.0,0.0,0.0,0.0,0.0,0.0,0.0,0.0,0.0,0.0,0.0,0.0,0.0,0.0,0.0,0.0,0.0,0.0,0.0,0.0,0.0,0.0,0.0,0.0,0.0,0.0,0.0,0.0,0.0,0.0,0.0,0.0,0.0,0.0,0.0,0.0,0.0,0.0,0.0,0.0,0.0,0.0,0.0,0.0,0.0,0.0,0.0,0.0,0.0,0.0,0.0,0.0,0.0,0.0,0.0,0.0,0.0,0.0,0.0,0.0,0.0,0.0,0.0,0.0,0.0,0.0,0.0,0.0,0.0,0.0,0.0,0.0,0.0,0.0,0.0,0.0,0.0,0.0,0.0,0.0,0.0,0.0,0.0,0.0,0.0,0.0,0.0,0.0,0.0,0.0,0.0,0.0,0.0,0.0,0.0,0.0,0.0,0.0,0.0,0.0,0.0,0.0,0.0,0.0,0.0,0.0,0.0,0.0,0.0,0.0,0.0,0.0,0.0,0.0,0.0,0.0,0.0,0.0,0.0,0.0,0.0,0.0,0.0,0.0,0.0,0.0,0.0,0.0,0.0,0.0,0.0,0.0,0.0,0.0,0.0,0.0,0.0,0.0,0.0,0.0,0.0,0.0,0.0,0.0,0.0,0.0,0.0,0.0,0.0,0.0,0.0,0.0,0.0,0.0,0.0,0.0,0.0,0.0,0.0,0.0,0.0,0.0,0.0,0.0,0.0,0.0,0.0,0.0,0.0,0.0,0.0,0.0,0.0,0.0,0.0,0.0,0.0,0.0,0.0,0.0,0.0,0.0,0.0,0.0,0.0,0.0,0.0,0.0,0.0,0.0,0.0,0.0,0.0,0.0,0.0,0.0,0.0,0.0,0.0,0.0,0.0,0.0,0.0,0.0,0.0,0.0,0.0,0.0,0.0,0.0,0.0,0.0,0.0,0.0,0.0,0.0,0.0,0.0,0.0,0.0,0.0,0.0,0.0,0.0,0.0,0.0,0.0,0.0,0.0,0.0,0.0,0.0,0.0,0.0,0.0,0.0,0.0,0.0,0.0,0.0,0.0,0.0,0.0,0.0,0.0,0.0,0.0,0.0,0.0,0.0,0.0,0.0,0.0,0.0,0.0,0.0,0.0,0.0,0.0,0.0,0.0,0.0,0.0,0.0,0.0,0.0,0.0,0.0,0.0,0.0,0.0,0.0,0.0,0.0,0.0,0.0,0.0,0.0,0.0,0.0,0.0,0.0,0.0,0.0,0.0,0.0,0.0,0.0,0.0,0.0,0.0,0.0,0.0,0.0,0.0,0.0,0.0,0.0,0.0,0.0,0.0,0.0,0.0,0.0,0.0,0.0,0.0,0.0,0.0,0.0,0.0,0.0,0.0,0.0,0.0,0.0,0.0,0.0,0.0,0.0,0.0,0.0,0.0,0.0,0.0,0.0,0.0,0.0,0.0,0.0,0.0,0.0,0.0,0.0,0.0,0.0,0.0,0.0,0.0,0.0,0.0,0.0,0.0,0.0,0.0,0.0,0.0,0.0,0.0,0.0,0.0,0.0,0.0,0.0,0.0,0.0,0.0,0.0,0.0,0.0,0.0,0.0,0.0,0.0,0.0,0.0,0.0,0.0,0.0,0.0,0.0,0.0,0.0,0.0,0.0,0.0,0.0,0.0,0.0,0.0,0.0,0.0,0.0,0.0,0.0,0.0,0.0,0.0,0.0,0.0,0.0,0.0,0.0,0.0,0.0,0.0,0.0,0.0,0.0,0.0,0.0,0.0,0.0,0.0,0.0,0.0,0.0,0.0,0.0,0.0,0.0,0.0,0.0,0.0,0.0,0.0,0.0,0.0,0.0,0.0,0.0,0.0,0.0,0.0,0.0,0.0,0.0,0.0,0.0,0.0,0.0,0.0,0.0,0.0,0.0,0.0,0.0,0.0,0.0,0.0,0.0,0.0,0.0,0.0,0.0,0.0,0.0,0.0,0.0,0.0,0.0,0.0,0.0,0.0,0.0,0.0,0.0,0.0,0.0,0.0,0.0,0.0,0.0,0.0,0.0,0.0,0.0,0.0,0.0,0.0,0.0,0.0,0.0,0.0,0.0,0.0,0.0,0.0,0.0,0.0,0.0,0.0,0.0,0.0,0.0,0.0,0.0,0.0,0.0,0.0,0.0,0.0,0.0,0.0,0.0,0.0,0.0,0.0,0.0,0.0,0.0,0.0,0.0,0.0,0.0,0.0,0.0,0.0,0.0,0.0,0.0,0.0,0.0,0.0,0.0,0.0,0.0,0.0,0.0,0.0,0.0,0.0,0.0,0.0,0.0,0.0,0.0,0.0,0.0,0.0,0.0,0.0,0.0,0.0,0.0,0.0,0.0,0.0,0.0,0.0,0.0,0.0,0.0,0.0,0.0,0.0,0.0,0.0,0.0,0.0,0.0,0.0,0.0,0.0,0.0,0.0,0.0,0.0,0.0,0.0,0.0,0.0,0.0,0.0,0.0,0.0,0.0,0.0,0.0,0.0,0.0,0.0,0.0,0.0,0.0,0.0,0.0,0.0,0.0,0.0,0.0,0.0,0.0,0.0,0.0,0.0,0.0,0.0,0.0,0.0,0.0,0.0,0.0,0.0,0.0,0.0,0.0,0.0,0.0,0.0,0.0,0.0,0.0,0.0,0.0,0.0,0.0,0.0,0.0,0.0,0.0,0.0,0.0,0.0,0.0,0.0,0.0,0.0,0.0,0.0,0.0,0.0,0.0,0.0,0.0,0.0,0.0,0.0,0.0,0.0,0.0,0.0,0.0,0.0,0.0,0.0,0.0,0.0,0.0,0.0,0.0,0.0,0.0,0.0,0.0,0.0,0.0,0.0,0.0,0.0,0.0,0.0,0.0,0.0,0.0,0.0,0.0,0.0,0.0,0.0,0.0,0.0,0.0,0.0,0.0,0.0,0.0,0.0,0.0,0.0,0.0,0.0,0.0,0.0,0.0,0.0,0.0,0.0,0.0,0.0,0.0,0.0,0.0,0.0,0.0,0.0,0.0,0.0,0.0,0.0,0.0,0.0,0.0,0.0,0.0,0.0,0.0,0.0,0.0,0.0,0.0,0.0,0.0,0.0,0.0,0.0,0.0,0.0,0.0,0.0,0.0,0.0,0.0,0.0,0.0,0.0,0.0,0.0,0.0,0.0,0.0,0.0,0.0,0.0,0.0,0.0,0.0,0.0,0.0,0.0,0.0,0.0,0.0,0.0,0.0,0.0,0.0,0.0,0.0,0.0,0.0,0.0,0.0,0.0,0.0,0.0,0.0,0.0,0.0,0.0,0.0,0.0,0.0,0.0,0.0,0.0,0.0,0.0,0.0,0.0,0.0,0.0,0.0,0.0,0.0,0.0,0.0,0.0,0.0,0.0,0.0,0.0,0.0,0.0,0.0,0.0,0.0,0.0,0.0,0.0,0.0,0.0,0.0,0.0,0.0,0.0,0.0,0.0,0.0,0.0,0.0,0.0,0.0,0.0,0.0,0.0,0.0,0.0,0.0,0.0,0.0,0.0,0.0,0.0,0.0,0.0,0.0,0.0,0.0,0.0,0.0,0.0,0.0,0.0,0.0,0.0,0.0,0.0,0.0,0.0,0.0,0.0,0.0,0.0,0.0,0.0,0.0,0.0,0.0,0.0,0.0,0.0,0.0,0.0,0.0,0.0,0.0,0.0,0.0,0.0,0.0,0.0,0.0,0.0,0.0,0.0,0.0,-1.0898,0.0,0.0,0.0,0.0,0.0,0.0,0.0,0.0,0.0,0.0,0.0,0.0,0.0,0.0,0.0,0.0,0.0,0.0,0.0,0.0,0.0,0.0,0.0,0.0,-0.5357,-0.5329,-0.5053,-0.4907,0.0,0.0,0.0,0.0,0.0,0.0,0.0,0.0,0.0,0.0,0.0,0.0,-0.9649,-1.2517,-1.0711,-0.9034,0.0,0.0,0.0,0.0,0.0,0.0,0.0,0.0,0.0,0.0,0.0,0.0,0.0,0.0,0.0,0.0,0.0,0.0,0.0,0.0,0.0,0.0,0.0,0.0,0.0,0.0,0.0,0.0,0.0,0.0,0.0,0.0,0.0,0.0,0.0,0.0,0.0,0.0,0.0,0.0,0.0,0.0,0.0,0.0,0.0,0.0,0.0,0.0,0.0,0.0,0.0,0.0,0.0,0.0,0.0,0.0,0.0,0.0,0.0,0.0,0.0,0.0,0.0,0.0,0.0,0.0,0.0,0.0,0.0,0.0,0.0,0.0,-1.1093,0.0,0.0,0.0,0.0,0.0,0.0,0.0,0.0,0.0,0.0,0.0,0.0,0.0,0.0,0.0,0.0,0.0,0.0,0.0,0.0,0.0,-0.5008,-0.5519,-0.5777,-0.5853,-0.5745,-0.5338,-0.4728,-0.3965,-0.3645,0.0,0.0,0.0,0.0,0.0,-0.3976,0.0,0.0,0.0,0.0,0.0,-1.6598,0.0,0.0,0.0,0.0,0.0,0.0,0.0,0.0,0.0,0.0,0.0,0.0,0.0,0.0,0.0,0.0,0.0,0.0,0.0,0.0,0.0,0.0,0.0,0.0,0.0,0.0,0.0,0.0,0.0,0.0,0.0,0.0,0.0,0.0,0.0,0.0,0.0,0.0,0.0,0.0,0.0,0.0,0.0,0.0,0.0,0.0,0.0,0.0,0.0,0.0,0.0,0.0,0.0,0.0,0.0,0.0,0.0,0.0,0.0,0.0,0.0,0.0,0.0,0.0,0.0,0.0,-1.3828,-1.3779,-1.3779,-1.3779,-1.4346,-1.5264,-1.3769,-1.3455,-1.383,-1.1392,0.0,0.0,0.0,0.0,0.0,0.0,0.0,0.0,0.0,0.0,0.0,0.0,0.0,0.0,0.0,0.0,0.0,0.0,0.0,-0.556,-0.6198,-0.6304,-0.6524,-0.7015,-0.6004,-0.5421,-0.5569,-0.4289,0.0,0.0,0.0,0.0,-0.4131,-0.5343,-0.7794,0.0,0.0,0.0,-2.2564,0.0,0.0,0.0,0.0,0.0,0.0,0.0,0.0,0.0,0.0,0.0,0.0,0.0,0.0,0.0,0.0,0.0,0.0,0.0,0.0,0.0,0.0,0.0,0.0,0.0,0.0,0.0,0.0,0.0,0.0,0.0,0.0,0.0,0.0,0.0,0.0,0.0,0.0,0.0,0.0,0.0,0.0,0.0,0.0,0.0,0.0,0.0,-1.4639,-1.4306,0.0,0.0,0.0,0.0,0.0,0.0,0.0,0.0,0.0,0.0,0.0,0.0,0.0,-1.3281,-1.3506,-1.4922,-1.5723,-1.5802,-1.6816,-1.7334,-1.7334,-1.7334,-1.7432,-1.7549,-1.6963,0.0,-1.3556,-1.3546,0.0,0.0,0.0,0.0,0.0,0.0,0.0,0.0,0.0,0.0,0.0,0.0,0.0,0.0,0.0,0.0,0.0,0.0,0.0,0.0,0.0,-0.7984,-0.8384,-0.8893,-0.8492,-0.7658,-0.6369,-0.5325,0.0,0.0,0.0,-0.439,-0.5681,-0.7764,-1.1867,0.0,0.0,0.0,0.0,0.0,0.0,0.0,0.0,0.0,0.0,0.0,0.0,0.0,0.0,0.0,0.0,0.0,0.0,0.0,0.0,0.0,0.0,0.0,0.0,0.0,0.0,0.0,0.0,0.0,0.0,0.0,0.0,0.0,0.0,0.0,0.0,0.0,0.0,0.0,0.0,0.0,0.0,0.0,0.0,0.0,0.0,0.0,0.0,0.0,0.0,-1.4494,-1.4685,-1.5,-1.4081,-1.2862,0.0,0.0,0.0,0.0,0.0,0.0,0.0,0.0,0.0,-1.5202,-1.5058,-1.5293,-1.6025,-1.6787,-1.7158,-1.7158,-1.7734,-1.8008,-1.8008,-1.8008,-1.8008,-1.7998,-1.7812,-1.6931,-1.5619,-1.4528,-1.2526,-1.0086,0.0,0.0,0.0,0.0,-0.7381,-0.7385,0.0,0.0,0.0,0.0,0.0,0.0,0.0,0.0,0.0,0.0,0.0,0.0,-0.8856,-0.9886,-1.055,-1.0837,-1.0623,-0.9644,-0.7674,-0.6632,0.0,0.0,-0.511,-0.5748,-0.7153,-1.1027,-1.6365,0.0,0.0,0.0,0.0,0.0,0.0,0.0,0.0,0.0,0.0,0.0,0.0,0.0,0.0,0.0,0.0,0.0,0.0,0.0,0.0,0.0,0.0,0.0,0.0,0.0,0.0,0.0,0.0,0.0,0.0,0.0,0.0,0.0,0.0,0.0,0.0,0.0,0.0,0.0,0.0,0.0,0.0,0.0,0.0,0.0,0.0,0.0,0.0,0.0,0.0,-1.5404,-1.5668,-1.6291,-1.5768,-1.4616,0.0,0.0,0.0,0.0,0.0,0.0,-1.5883,-1.5468,-1.5731,-1.6877,-1.6786,-1.7187,-1.8154,-1.8281,-1.834,-1.834,-1.834,-1.8281,-1.8164,-1.8164,-1.8115,-1.8008,-1.7725,-1.7417,-1.6965,-1.539,-1.3802,-1.2142,-1.0764,-0.9242,-0.7935,-0.843,-0.8457,-0.8316,0.0,0.0,0.0,0.0,0.0,0.0,0.0,0.0,0.0,0.0,0.0,-0.9355,-1.0128,-1.1709,-1.2669,-1.2599,-1.1454,-1.0613,-1.0111,-0.8246,-0.7116,-0.7142,-0.7213,-0.7542,-0.8197,-1.5356,-2.0796,0.0,0.0,0.0,0.0,0.0,0.0,0.0,0.0,0.0,0.0,0.0,0.0,0.0,0.0,0.0,0.0,0.0,0.0,0.0,0.0,0.0,0.0,0.0,0.0,0.0,0.0,0.0,0.0,0.0,0.0,0.0,0.0,0.0,0.0,0.0,0.0,0.0,0.0,0.0,0.0,0.0,0.0,0.0,0.0,0.0,0.0,0.0,0.0,0.0,0.0,0.0,0.0,-1.9168,-1.8453,0.0,0.0,0.0,0.0,-1.5546,-1.7335,-1.851,-1.8677,-1.8403,-1.852,-1.9117,-1.8694,-1.8545,-1.8603,-1.9014,-1.9219,-1.9219,-1.9219,-1.9004,-1.8603,-1.8603,-1.8389,-1.794,-1.707,-1.6478,-1.6202,-1.6469,-1.4893,-1.2274,-1.1769,-1.0054,-0.7981,-0.8831,-0.913,-0.9243,0.0,0.0,0.0,-0.6086,-0.5805,-0.5793,-0.6463,-0.6553,-0.6756,-0.7263,-0.8839,-1.0457,-1.1816,-1.3486,-1.4725,-1.5187,-1.4781,-1.3994,-1.2622,-1.1065,-1.0472,-1.1118,0.0,-1.1517,-1.562,-2.0257,-2.408,0.0,0.0,0.0,0.0,0.0,0.0,0.0,0.0,0.0,0.0,0.0,0.0,0.0,0.0,0.0,0.0,0.0,0.0,0.0,0.0,0.0,0.0,0.0,0.0,0.0,0.0,0.0,0.0,0.0,0.0,0.0,0.0,0.0,0.0,0.0,0.0,0.0,0.0,0.0,0.0,0.0,0.0,0.0,0.0,0.0,0.0,0.0,0.0,0.0,0.0,0.0,0.0,-1.9703,-2.0049,0.0,-1.7207,-1.8235,-1.8838,-1.8439,-1.9077,-1.9587,-1.998,-1.9377,-1.9074,-1.9304,-1.9118,-1.9053,-1.9053,-1.9209,-1.9287,-1.9287,-1.9287,-1.8826,-1.8018,-1.8018,-1.7415,-1.6438,-1.5902,-1.5506,-1.5171,-1.4827,-1.3751,-1.2326,-1.1905,-1.0865,-0.9659,-0.9973,-1.0094,-1.0134,0.0,0.0,0.0,-0.6416,-0.6385,-0.6582,-0.7386,-0.7393,-0.766,-0.8624,-1.0282,-1.2031,-1.3769,-1.5605,-1.6777,-1.7024,-1.6917,-1.6156,-1.458,-1.3155,-1.2774,0.0,0.0,0.0,0.0,-2.3116,0.0,0.0,0.0,0.0,0.0,0.0,0.0,0.0,0.0,0.0,0.0,0.0,0.0,0.0,0.0,0.0,-1.2362,0.0,0.0,0.0,0.0,0.0,0.0,0.0,0.0,0.0,0.0,0.0,0.0,0.0,0.0,0.0,0.0,0.0,0.0,0.0,0.0,0.0,0.0,0.0,0.0,0.0,0.0,0.0,0.0,0.0,0.0,0.0,0.0,0.0,0.0,0.0,-2.0173,-1.9473,-2.0268,-2.0121,-1.8172,-1.9252,-1.9963,-1.9581,-1.9927,-2.0066,-1.995,-1.9561,-1.9287,-1.9287,-1.9424,-1.9502,-1.9502,-1.9648,-1.9717,-1.9717,-1.9333,-1.8733,-1.7784,-1.745,-1.6696,-1.5437,-1.5041,-1.4584,-1.3998,-1.3204,-1.2432,-1.1774,-1.1799,-1.1288,-1.0624,-1.0624,-1.0624,-1.0561,0.0,0.0,-0.6114,-0.6377,-0.6607,-0.7098,-0.8132,-0.7957,-0.8456,-1.0508,-1.2377,-1.416,-1.5958,-1.7998,-1.8912,-1.8026,-1.7506,-1.6892,-1.5894,-1.4511,-1.3874,0.0,0.0,0.0,0.0,0.0,0.0,0.0,0.0,0.0,0.0,0.0,0.0,0.0,0.0,0.0,0.0,0.0,0.0,0.0,0.0,0.0,-1.8012,0.0,0.0,0.0,0.0,0.0,0.0,0.0,0.0,0.0,0.0,0.0,0.0,0.0,0.0,0.0,0.0,0.0,0.0,0.0,0.0,0.0,0.0,0.0,0.0,0.0,0.0,0.0,0.0,0.0,0.0,0.0,0.0,0.0,-1.8921,-1.9484,-1.951,-1.8768,-1.9295,-1.92,-1.7781,-1.9007,-1.9599,-1.8742,-1.989,-2.0022,-1.8701,-1.9092,-1.9316,-1.9307,-1.9717,-1.9932,-1.9932,-2.0352,-2.0566,-2.0566,-1.952,-1.8551,-1.7812,-1.7012,-1.6111,-1.5062,-1.4452,-1.3685,-1.2788,-1.1826,-1.1089,-1.0708,-1.1476,-1.1288,-1.0624,-1.0624,-1.0561,-1.0428,-0.5515,-0.5989,-0.6415,-0.682,-0.7437,-0.7853,-0.7869,-0.8004,-0.8705,-1.0238,-1.225,-1.4287,-1.6318,-1.8184,-1.9331,-1.9333,-1.8979,-1.8328,-1.7432,-1.6588,-1.6612,0.0,0.0,0.0,0.0,0.0,0.0,0.0,0.0,0.0,0.0,0.0,0.0,0.0,0.0,0.0,0.0,0.0,0.0,0.0,0.0,0.0,-2.0363,0.0,0.0,0.0,0.0,0.0,0.0,0.0,0.0,0.0,0.0,0.0,0.0,0.0,0.0,0.0,0.0,0.0,0.0,0.0,0.0,0.0,0.0,0.0,0.0,0.0,0.0,0.0,0.0,0.0,0.0,0.0,0.0,-1.9083,-1.9258,-1.9629,-1.9909,-2.0045,-2.0508,-2.0653,-2.0194,-2.0328,-2.0409,-2.0452,-2.0239,-1.99,-1.957,-1.9971,-2.0068,-1.9746,-2.0156,-2.0391,-2.0391,-2.0508,-2.0245,-1.9441,-1.9116,-1.7969,-1.6023,-1.5802,-1.4877,-1.3426,-1.2993,-1.2601,-1.213,-1.1425,-1.1142,-1.1142,-1.0971,-1.08,-1.0624,-1.0624,-1.0174,-0.953,-0.5718,-0.6279,-0.6787,-0.7051,-0.7637,-0.8033,-0.7957,-0.8167,-0.9129,-1.1304,-1.286,-1.4736,-1.7191,-1.8914,-1.9948,-2.0189,-1.9817,-1.9193,-1.8308,-1.8123,0.0,0.0,0.0,0.0,0.0,0.0,0.0,0.0,0.0,0.0,0.0,0.0,0.0,0.0,0.0,0.0,0.0,0.0,0.0,0.0,0.0,0.0,-2.3725,-2.3268,-2.1873,-2.0033,-1.9461,-1.8554,-1.7532,-1.7146,0.0,0.0,0.0,0.0,0.0,0.0,0.0,0.0,0.0,0.0,0.0,0.0,0.0,0.0,0.0,0.0,0.0,0.0,0.0,0.0,0.0,0.0,0.0,0.0,-1.94,-1.943,-1.9571,-1.9739,-1.9832,-1.9944,-2.0183,-2.0371,-2.0625,-2.0442,-2.0429,-2.0609,-2.0371,-2.0029,-1.9668,-2.0234,-2.0361,-1.9922,-2.0156,-2.0381,-2.0566,-1.9985,-1.9338,-1.8783,-1.7907,-1.6602,-1.4884,-1.4569,-1.374,-1.2559,-1.2512,-1.2251,-1.1844,-1.1503,-1.1383,0.0,0.0,0.0,0.0,0.0,-0.9524,-0.8613,-0.5892,-0.6538,-0.7119,-0.7168,-0.7509,-0.786,-0.8176,-0.8319,-0.9571,-1.2909,-1.3759,-1.5225,-1.8439,-1.9849,-2.0673,-2.0744,-2.0296,-1.9599,-1.8668,0.0,0.0,0.0,0.0,0.0,0.0,0.0,0.0,0.0,0.0,0.0,0.0,0.0,0.0,0.0,0.0,0.0,0.0,0.0,0.0,0.0,0.0,0.0,-2.7457,-2.6452,-2.5145,-2.3769,-2.3144,-2.1793,-2.0256,-2.0129,0.0,0.0,0.0,0.0,0.0,0.0,0.0,0.0,0.0,0.0,0.0,0.0,0.0,0.0,0.0,0.0,0.0,0.0,0.0,0.0,0.0,0.0,0.0,0.0,-1.9753,-1.9613,-1.9996,-1.9823,-1.9522,-1.9054,-1.9132,-1.9402,-1.987,-1.9961,-1.999,-1.999,-2.0342,-2.0195,-1.9336,0.0,0.0,0.0,0.0,-1.9954,-2.0256,-1.8942,-1.8213,-1.805,-1.6181,-1.4915,-1.4171,-1.3487,-1.2846,-1.2318,-1.2579,-1.2472,-1.1917,-1.1884,-1.162,-1.1165,-1.0725,-1.0665,-1.0692,-0.9462,-0.8506,-0.7697,-0.6358,-0.6751,-0.7207,-0.752,-0.7925,-0.8091,-0.787,-0.8104,-0.946,-1.2572,-1.3361,-1.5183,-1.9188,-2.0191,-2.0875,-2.1574,-2.093,-2.001,0.0,0.0,0.0,0.0,0.0,0.0,0.0,0.0,0.0,0.0,0.0,0.0,0.0,0.0,0.0,0.0,0.0,0.0,0.0,0.0,0.0,0.0,0.0,0.0,-2.9277,-2.9063,-2.8474,-2.7726,-2.7147,-2.6483,-2.5697,-2.5294,-2.3304,-2.0842,-1.9264,0.0,0.0,0.0,0.0,0.0,0.0,0.0,0.0,0.0,0.0,0.0,0.0,0.0,0.0,0.0,0.0,0.0,0.0,0.0,0.0,-2.0596,-2.0568,-2.0498,-2.103,-2.0134,-1.9223,-1.8745,-1.9328,-1.9787,-1.9893,-2.0234,-2.0439,-2.0439,-2.0518,-2.0195,-1.9336,-1.9766,-1.9687,-1.8906,-1.9228,-1.9065,-1.8395,-1.8163,-1.7121,-1.5505,0.0,0.0,-1.312,-1.2959,-1.2639,-1.2305,-1.2365,-1.2325,-1.2204,-1.1964,-1.1185,-1.0146,-1.0051,-0.9988,-0.971,-0.7976,-0.7185,-0.685,-0.651,-0.6989,-0.7452,-0.7666,-0.787,-0.7928,-0.7725,-0.8059,-0.9291,-1.19,-1.311,-1.4882,-1.7843,-1.9179,-1.9889,-1.9795,-1.9335,0.0,0.0,0.0,0.0,0.0,0.0,0.0,0.0,0.0,0.0,0.0,0.0,0.0,0.0,0.0,0.0,0.0,0.0,0.0,0.0,0.0,0.0,0.0,0.0,0.0,-3.0168,-2.9892,-2.9616,-2.9327,-2.9051,-2.8775,-2.8448,-2.7883,-2.6148,-2.3886,-2.2232,-1.9787,-1.7148,0.0,0.0,0.0,0.0,0.0,0.0,0.0,0.0,0.0,0.0,0.0,0.0,0.0,0.0,-1.711,0.0,0.0,-2.0,-2.0919,-2.0648,-2.0313,-2.0599,-2.0014,-1.9521,-1.9297,-1.9648,-2.0,-2.0215,-2.0439,-2.0566,-2.0566,-2.0361,-1.9961,-1.9316,-1.9482,-1.9307,-1.8652,-1.8848,-1.8619,-1.7933,-1.7125,-1.6055,-1.4554,-1.4026,-1.3335,-1.2525,-1.2525,-1.2445,-1.2305,-1.2305,-1.2305,-1.2218,-1.1621,-1.0961,-1.0257,-0.9244,-0.8684,-0.8255,-0.7355,-0.6619,-0.6071,-0.6488,-0.7008,-0.751,-0.7666,-0.7695,-0.7695,-0.7695,-0.8027,-0.8984,-1.1087,-1.2518,-1.4053,-1.5869,-1.7554,-1.8232,-1.7545,-1.773,0.0,0.0,0.0,0.0,0.0,0.0,0.0,0.0,0.0,0.0,0.0,0.0,0.0,0.0,0.0,0.0,0.0,0.0,0.0,0.0,0.0,0.0,0.0,0.0,0.0,-3.0363,-2.9455,-2.9456,-2.9779,-2.9666,-2.9628,-2.9528,-2.8963,-2.7631,-2.5973,-2.4281,-2.2173,-2.003,-1.8196,-1.6701,0.0,0.0,0.0,0.0,0.0,0.0,0.0,0.0,0.0,-1.7324,-1.8093,-1.8314,-1.8755,-1.9815,-2.0066,-2.0256,-2.0974,-2.0472,-2.0039,-2.0039,-2.0039,-2.0039,-2.0039,-2.0039,-2.0146,-2.041,-2.0439,-2.041,-2.0322,-1.999,-1.9609,-1.9189,-1.916,-1.8965,-1.8525,-1.8296,-1.7943,-1.7394,-1.597,-1.4785,-1.3992,-1.3106,-1.2532,-1.2305,-1.2305,-1.2305,-1.2298,-1.2077,-1.1996,-1.1922,-1.0938,-1.0409,-1.0034,-0.8461,-0.7451,-0.6969,-0.6933,-0.6369,-0.5589,-0.6427,-0.6579,-0.6859,-0.7569,-0.7695,-0.7695,-0.7695,-0.7744,-0.8428,-1.0195,-1.0882,-1.2098,-1.4636,-1.5624,-1.623,-1.6619,0.0,0.0,0.0,0.0,0.0,0.0,0.0,0.0,0.0,0.0,0.0,0.0,0.0,0.0,0.0,0.0,0.0,0.0,0.0,0.0,0.0,0.0,0.0,0.0,0.0,0.0,-2.9666,-2.766,-2.8131,-2.9729,-2.9214,-2.9026,-2.8938,-2.8386,-2.7711,-2.6729,-2.4426,-2.3709,-2.3074,-1.9479,0.0,-1.7975,-1.5975,0.0,0.0,-1.6396,-1.7213,-1.8148,0.0,0.0,-1.9083,-2.0521,-2.0232,-1.985,-2.0407,-2.0497,-2.0566,-2.0643,-2.0566,-2.0498,-2.0498,-2.0498,-2.0498,-2.0498,-2.0498,-2.0361,-2.0019,-1.999,-1.9834,-1.9463,-1.9385,-1.917,-1.873,-1.8711,-1.8516,-1.8096,-1.7282,-1.6377,-1.5501,-1.4457,-1.3433,-1.2499,-1.2425,-1.2338,-1.2305,-1.2305,-1.2305,-1.2224,-1.1391,-1.0938,-1.0864,-0.9895,-0.8917,-0.8084,-0.7855,-0.7226,-0.6343,-0.6204,-0.5899,-0.5589,-0.6121,-0.6336,-0.6609,-0.6948,-0.7008,-0.7068,-0.7305,-0.7344,-0.7888,-0.934,-1.0226,-1.1335,-1.2832,-1.3741,-1.4292,-1.4417,-1.6572,0.0,0.0,0.0,0.0,0.0,0.0,0.0,0.0,0.0,0.0,0.0,0.0,0.0,0.0,0.0,0.0,0.0,0.0,0.0,0.0,0.0,0.0,0.0,0.0,0.0,-2.7879,-2.6877,-2.6656,-2.6752,-2.6771,-2.692,0.0,0.0,-2.6748,-2.5922,-2.518,-2.4281,-2.313,-2.1452,-1.9912,0.0,-1.7504,0.0,0.0,0.0,-1.9673,-2.0621,-2.0657,-2.0422,-2.037,-2.0777,-2.0589,-2.0352,-2.0527,-2.0566,-2.0566,0.0,-2.0566,-2.0566,-2.0566,-2.0566,-2.0566,-2.0566,-2.0566,-2.0498,-2.0312,-2.0293,-2.0225,-2.0039,-1.957,-1.9209,-1.9023,-1.8545,-1.7898,-1.7217,-1.6775,-1.586,-1.4314,-1.3882,-1.3237,-1.2305,-1.2305,-1.2305,-1.2305,-1.2305,-1.1996,-1.1391,-1.1013,-1.049,-0.9814,-0.8841,-0.8161,-0.7706,-0.7176,-0.6641,-0.6254,-0.6186,-0.603,-0.5833,-0.5882,-0.6037,-0.6213,-0.6305,-0.6244,-0.6336,-0.6841,-0.6931,-0.7296,-0.836,-0.9276,-1.0189,-1.1036,-1.1759,-1.2241,-1.2298,-1.4784,-1.6767,0.0,0.0,0.0,0.0,0.0,0.0,0.0,0.0,0.0,0.0,0.0,0.0,0.0,0.0,0.0,0.0,0.0,0.0,0.0,0.0,0.0,0.0,0.0,0.0,-2.6086,-2.536,-2.4467,-2.3724,-2.4416,-2.4738,0.0,0.0,-2.4423,-2.4011,-2.3875,-2.3315,-2.2618,-2.2099,-2.0442,-1.8818,-1.8818,0.0,0.0,-2.0256,-2.1156,-2.1976,-2.072,-2.0726,-2.0988,-2.0653,-2.0566,-2.0566,-2.0566,-2.0566,-2.0566,-2.0566,-2.0566,-2.0566,-2.0566,-2.0566,-2.0566,-2.0566,-2.0566,-2.0566,-2.0566,-2.0459,-2.0255,-1.9822,-1.9257,-1.8708,-1.8283,-1.7713,-1.6972,-1.6219,-1.593,-1.5155,-1.3745,-1.3455,-1.2952,-1.2305,-1.2305,-1.2305,-1.2298,-1.1996,-1.1316,-1.034,-1.011,-0.9588,-0.8841,-0.7783,-0.7403,-0.7326,-0.6567,-0.6338,-0.6338,-0.6338,-0.6162,-0.6013,-0.5828,-0.5585,-0.546,-0.5851,-0.5585,-0.5617,-0.6397,-0.6518,-0.6678,-0.7086,-0.7519,-0.8187,-0.9259,-0.9557,-0.9993,-1.0706,-1.3363,-1.5644,-1.7331,-1.9824,0.0,0.0,0.0,0.0,0.0,0.0,0.0,0.0,0.0,0.0,0.0,0.0,0.0,0.0,0.0,0.0,0.0,0.0,0.0,0.0,0.0,0.0,-2.4735,-2.2311,-2.1413,-2.1617,-2.2771,0.0,0.0,0.0,-2.0389,-2.0812,-1.9467,-2.0468,0.0,-2.0434,-1.9683,0.0,0.0,0.0,-2.0066,-2.0477,-2.0928,-2.1154,-2.0703,-2.0615,-2.0624,-2.0634,-2.0566,-2.0566,-2.0566,-2.0566,-2.0566,-2.0566,-2.0566,-2.0566,-2.0566,-2.0566,-2.0566,-2.0566,-2.0566,-2.0566,0.0,-2.0185,-1.9306,-1.7922,-1.7794,-1.7151,-1.5806,-1.5691,-1.5518,-1.5242,-1.4314,-1.3745,-1.3673,-1.2806,-1.2305,-1.2305,-1.2305,-1.2305,-1.2305,-1.1316,-1.0265,-0.9296,-0.8313,-0.7859,-0.7783,-0.6795,-0.6338,-0.6338,-0.6338,-0.6338,-0.6338,-0.6338,-0.6162,-0.603,-0.546,-0.5404,-0.534,-0.5491,-0.5404,-0.5404,-0.5672,-0.5944,-0.6244,-0.6639,-0.7296,0.0,0.0,0.0,0.0,0.0,-1.2226,-1.4195,-1.5596,-1.7812,0.0,0.0,0.0,0.0,0.0,0.0,0.0,0.0,0.0,0.0,0.0,0.0,0.0,0.0,0.0,0.0,0.0,0.0,0.0,0.0,0.0,0.0,-2.1688,-2.1961,-2.0335,-1.8011,0.0,0.0,0.0,0.0,0.0,0.0,-1.9549,-1.9849,-1.9704,-1.8584,-1.8936,0.0,0.0,0.0,-2.0898,-2.1328,-2.1338,-2.1191,-2.1045,-2.0781,-2.0566,-2.0566,-2.0566,-2.0654,-2.0957,-2.0762,-2.0664,-2.0957,-2.0762,-2.0566,-2.0566,-2.0566,-2.0323,-1.9599,-1.952,0.0,0.0,0.0,0.0,-1.9669,-1.8709,-1.7872,-1.7427,-1.6405,-1.5442,-1.4591,-1.4215,-1.3601,-1.2813,-1.2445,-1.2305,-1.2305,-1.2305,-1.1922,-1.1316,-1.0938,-0.989,-0.8313,-0.7936,-0.7403,-0.6795,-0.6412,-0.6338,-0.6338,-0.6338,-0.6338,-0.6338,-0.6338,-0.6227,-0.6169,-0.4826,-0.4826,-0.4826,-0.4826,-0.4826,0.0,0.0,0.0,0.0,0.0,0.0,0.0,0.0,0.0,0.0,0.0,0.0,-1.2411,-1.3826,0.0,0.0,0.0,0.0,0.0,0.0,0.0,0.0,0.0,0.0,0.0,0.0,0.0,0.0,0.0,0.0,0.0,0.0,0.0,0.0,0.0,0.0,0.0,-1.9727,-2.0078,-1.8291,0.0,0.0,0.0,0.0,0.0,0.0,0.0,-1.7889,-1.8413,-1.8465,-1.8162,-1.8838,0.0,0.0,-2.1035,-2.1572,-2.2002,-2.1787,-2.1426,-2.1269,-2.0889,-2.0566,-2.0566,-2.0439,-2.0469,-2.0918,-2.0635,-2.0576,-2.1348,-2.1221,-2.1035,-2.1035,-2.0697,-2.0085,-1.9152,-1.8638,-1.8069,0.0,0.0,0.0,-1.8859,-1.7907,-1.7158,-1.664,-1.5709,-1.4687,-1.3733,-1.3719,-1.3269,-1.2305,-1.2305,-1.2305,-1.2305,-1.1922,-1.1242,-1.0265,-0.989,-0.8836,-0.7249,-0.7249,-0.6872,-0.6338,-0.6338,-0.6338,-0.6338,-0.6338,-0.6338,-0.6338,-0.6338,-0.6338,-0.6247,-0.3993,-0.3993,-0.3993,0.0,0.0,0.0,0.0,0.0,0.0,0.0,0.0,0.0,0.0,0.0,0.0,0.0,0.0,0.0,0.0,0.0,0.0,0.0,0.0,0.0,0.0,0.0,0.0,0.0,0.0,0.0,0.0,0.0,0.0,0.0,0.0,0.0,0.0,0.0,0.0,0.0,0.0,0.0,-1.8779,-1.6836,0.0,0.0,0.0,0.0,0.0,0.0,0.0,0.0,-1.4805,-1.6387,-1.8232,-1.9053,-1.9346,-1.9785,-2.1435,-2.1924,-2.2041,-2.2441,-2.2207,-2.1777,-2.1367,-2.0898,-2.0557,-2.0537,-2.0205,-2.0039,0.0,0.0,-2.0332,-2.1611,-2.1816,-2.1734,-2.1734,-2.0764,-1.9787,0.0,0.0,0.0,0.0,0.0,0.0,-1.5703,0.0,-1.5083,-1.3756,-1.3654,-1.3373,-1.2869,-1.2829,-1.2681,-1.2305,-1.2305,-1.2305,-1.2224,-1.1242,-1.0265,-0.9221,-0.8237,-0.7253,-0.6338,-0.6338,-0.6338,-0.6338,-0.6338,-0.6338,-0.6338,-0.6338,-0.6338,-0.6338,-0.6338,-0.6261,-0.6183,0.0,0.0,0.0,0.0,0.0,0.0,0.0,0.0,0.0,0.0,0.0,0.0,0.0,0.0,0.0,0.0,0.0,0.0,0.0,0.0,0.0,0.0,0.0,0.0,0.0,0.0,0.0,0.0,0.0,0.0,0.0,0.0,0.0,0.0,0.0,0.0,0.0,0.0,0.0,0.0,0.0,0.0,-1.4562,0.0,0.0,0.0,0.0,0.0,0.0,0.0,0.0,0.0,0.0,-1.8008,-1.9004,-1.9219,0.0,-2.1318,-2.1768,-2.2344,-2.2842,-2.2949,-2.2432,-2.1855,-2.1748,-2.1123,-2.0469,-2.0146,-1.999,-1.9951,0.0,0.0,0.0,-2.0791,-2.0245,0.0,-1.9756,-1.8769,0.0,0.0,0.0,-1.5786,-1.4985,-1.4901,0.0,0.0,-1.522,-1.5501,-1.518,-1.4159,-1.3474,-1.3106,-1.2866,-1.2681,-1.2305,-1.2305,-1.1922,-1.1162,-1.0938,-0.9884,-0.8161,-0.7936,-0.7253,-0.6338,-0.6338,-0.6338,-0.6338,-0.6338,-0.6338,-0.6338,-0.6338,-0.6338,-0.6338,-0.6338,-0.5786,-0.5079,0.0,0.0,0.0,0.0,0.0,0.0,0.0,0.0,0.0,0.0,0.0,0.0,0.0,0.0,0.0,0.0,0.0,0.0,0.0,0.0,0.0,0.0,0.0,0.0,0.0,0.0,0.0,0.0,0.0,0.0,0.0,0.0,0.0,0.0,0.0,0.0,0.0,0.0,0.0,0.0,0.0,0.0,0.0,0.0,0.0,0.0,0.0,0.0,0.0,0.0,0.0,-1.7441,-1.8301,-1.9033,-1.9707,-2.0478,0.0,-2.2012,-2.2568,-2.293,-2.3096,-2.291,-2.2373,-2.1787,-2.1396,-2.0771,-2.0156,-1.9727,-1.9482,0.0,0.0,0.0,0.0,0.0,0.0,0.0,-1.8889,-1.7888,-1.6773,0.0,-1.5296,0.0,-1.4166,-1.4088,-1.4088,0.0,-1.465,-1.4977,-1.4977,-1.4118,-1.3507,-1.322,-1.2906,-1.2681,-1.2305,-1.1848,-1.1391,-1.0783,-0.9884,-0.8912,-0.7783,-0.7326,-0.6872,-0.6338,0.0,-0.6338,-0.6338,-0.6338,-0.6338,-0.6338,-0.6338,-0.6338,-0.6338,-0.6338,-0.5628,-0.4688,0.0,0.0,0.0,0.0,0.0,0.0,0.0,0.0,0.0,0.0,0.0,0.0,0.0,0.0,0.0,0.0,0.0,0.0,0.0,0.0,0.0,0.0,0.0,0.0,0.0,0.0,0.0,0.0,0.0,0.0,0.0,0.0,0.0,0.0,0.0,0.0,0.0,0.0,0.0,0.0,0.0,0.0,0.0,0.0,0.0,0.0,0.0,0.0,0.0,0.0,-1.8027,-1.8418,-1.9277,-1.9834,-2.0478,-2.2051,-2.2295,-2.2295,-2.3398,-2.3389,-2.2969,-2.2607,-2.2148,-2.1582,-2.0752,-2.0225,-1.9775,-1.9297,0.0,0.0,-1.8564,0.0,-1.9158,-1.8843,0.0,-1.9393,-1.8344,-1.7321,-1.6339,-1.5604,-1.4657,-1.4088,-1.4088,-1.4088,-1.4088,-1.4088,-1.4088,-1.4088,-1.4088,-1.3768,-1.3434,-1.31,-1.2826,-1.2559,-1.2077,-1.1236,-1.0634,-1.0409,-0.8609,-0.7706,-0.7553,-0.6718,-0.6338,-0.6338,-0.6338,-0.6338,-0.6338,-0.6338,-0.6338,-0.6338,-0.6338,-0.6183,-0.6103,-0.6103,-0.5315,-0.4297,0.0,0.0,0.0,0.0,0.0,0.0,0.0,0.0,0.0,0.0,-0.3533,-0.3556,0.0,0.0,0.0,0.0,0.0,0.0,0.0,0.0,0.0,0.0,0.0,0.0,0.0,0.0,0.0,0.0,0.0,0.0,0.0,0.0,0.0,0.0,0.0,0.0,0.0,0.0,0.0,0.0,0.0,0.0,0.0,0.0,0.0,0.0,0.0,0.0,0.0,0.0,-1.8335,-1.9736,-2.0625,-2.1191,-2.167,-2.2324,-2.2705,-2.2969,-2.3193,-2.2939,-2.2607,-2.2529,-2.1924,-2.1211,-2.0684,-2.0225,0.0,0.0,0.0,-1.8525,-1.8184,0.0,0.0,-1.7986,0.0,0.0,0.0,0.0,-1.4528,0.0,0.0,0.0,0.0,0.0,0.0,0.0,0.0,-1.4088,-1.4088,-1.3581,-1.3033,-1.2478,-1.2405,-1.1974,-1.1087,-1.0864,-0.9959,-0.8309,-0.7931,-0.7326,-0.6567,-0.6416,-0.6338,-0.6338,-0.6338,0.0,-0.6338,-0.6338,-0.6338,-0.6338,-0.6338,-0.5786,-0.4999,-0.4999,-0.3752,-0.2115,0.0,0.0,0.0,0.0,0.0,0.0,0.0,-0.3361,-0.3551,-0.4087,-0.4022,-0.3879,-0.3713,-0.3531,-0.3475,0.0,0.0,0.0,0.0,0.0,0.0,0.0,0.0,0.0,0.0,0.0,0.0,0.0,0.0,0.0,0.0,0.0,0.0,0.0,0.0,0.0,0.0,0.0,0.0,0.0,0.0,0.0,0.0,0.0,0.0,0.0,0.0,0.0,0.0,0.0,-1.7629,-1.944,-2.0789,-2.1096,-2.1034,-2.1652,-2.1979,-2.2195,-2.2499,-2.2553,-2.2281,-2.1523,-2.0827,-2.0,-1.8583,0.0,0.0,0.0,0.0,-1.6668,-1.6273,0.0,0.0,0.0,0.0,0.0,0.0,0.0,0.0,0.0,0.0,0.0,0.0,0.0,0.0,0.0,0.0,-1.4021,-1.3868,-1.3293,-1.2766,-1.2318,-1.1774,-1.1316,-1.0783,-0.9734,-0.8761,-0.7783,-0.7249,-0.6795,-0.6338,-0.6338,-0.6338,-0.6338,-0.6338,0.0,-0.6338,-0.6338,-0.6338,-0.6338,-0.6338,-0.5628,-0.4688,-0.4688,-0.3363,-0.1568,0.0,0.0,0.0,0.0,0.0,0.0,0.0,-0.3752,-0.4046,-0.4826,-0.4769,-0.4436,-0.3712,-0.3269,-0.3111,0.0,0.0,0.0,0.0,0.0,0.0,0.0,0.0,0.0,0.0,0.0,0.0,0.0,0.0,0.0,0.0,0.0,0.0,0.0,0.0,0.0,0.0,0.0,0.0,0.0,0.0,0.0,0.0,0.0,0.0,0.0,0.0,0.0,0.0,0.0,-1.6341,-1.8001,-1.9621,-2.0051,-2.0063,-2.0941,-2.1007,-2.0926,-2.1325,-2.1575,-2.1324,-2.0117,-1.9428,-1.8628,-1.6604,-1.622,0.0,0.0,0.0,0.0,0.0,0.0,0.0,0.0,0.0,0.0,0.0,0.0,0.0,0.0,0.0,0.0,0.0,0.0,0.0,0.0,0.0,0.0,-1.3486,-1.2942,-1.2361,-1.2009,-1.1013,-1.0409,-1.0185,-0.8609,-0.7706,-0.748,-0.6641,-0.6338,-0.6338,-0.6338,-0.6338,-0.6338,-0.6338,0.0,0.0,-0.6338,-0.6338,-0.6261,-0.6025,-0.5315,-0.4295,-0.4139,-0.2893,-0.1254,0.0,0.0,0.0,0.0,0.0,0.0,0.0,-0.3955,-0.4697,-0.5583,-0.5454,-0.5106,-0.4481,-0.3904,-0.3389,0.0,0.0,0.0,0.0,0.0,0.0,0.0,0.0,0.0,0.0,0.0,0.0,0.0,0.0,0.0,0.0,0.0,0.0,0.0,0.0,0.0,0.0,0.0,0.0,0.0,0.0,0.0,0.0,0.0,0.0,0.0,0.0,0.0,0.0,0.0,0.0,-1.5278,-1.6495,-1.8118,-1.9742,-2.0535,0.0,0.0,-1.9629,-1.9284,-1.8715,-1.8596,-1.8062,-1.7266,-1.6401,0.0,0.0,0.0,-1.5234,-1.5226,0.0,0.0,0.0,0.0,0.0,0.0,0.0,0.0,0.0,0.0,0.0,0.0,0.0,0.0,0.0,0.0,0.0,0.0,-1.3187,-1.2301,-1.1546,-1.095,-0.997,-0.8993,-0.8084,-0.7855,-0.7326,-0.6412,-0.6338,-0.6338,-0.6338,-0.6338,-0.6338,-0.6338,-0.6338,0.0,0.0,-0.6338,-0.6338,-0.6183,-0.5237,-0.4217,-0.3124,-0.2192,-0.1176,-0.0157,0.0,0.0,0.0,0.0,0.0,0.0,-0.3833,-0.4207,-0.4545,-0.5061,-0.55,-0.5142,-0.3447,-0.3608,-0.3563,-0.2859,0.0,0.0,0.0,0.0,0.0,0.0,0.0,0.0,0.0,0.0,0.0,0.0,0.0,0.0,0.0,0.0,0.0,0.0,0.0,0.0,0.0,0.0,0.0,0.0,0.0,0.0,0.0,0.0,0.0,0.0,0.0,0.0,0.0,0.0,0.0,0.0,-1.5051,-1.5856,0.0,0.0,-1.7674,-1.7785,-1.783,-1.804,-1.8009,-1.732,-1.6705,-1.6013,-1.4724,0.0,0.0,-1.3579,-1.3448,-1.3448,-1.3448,0.0,0.0,0.0,0.0,0.0,0.0,0.0,0.0,0.0,0.0,0.0,0.0,0.0,0.0,0.0,0.0,0.0,-1.1407,-1.0843,-1.0354,-1.0163,-0.9086,-0.8325,-0.7939,-0.7223,-0.6718,-0.6338,-0.6338,-0.6338,-0.6338,-0.6338,-0.6338,-0.6338,-0.6338,0.0,0.0,-0.6338,-0.5944,-0.5315,-0.4844,-0.3673,-0.2113,-0.1723,-0.0941,0.0,0.0,0.0,0.0,0.0,0.0,-0.2467,-0.3711,-0.3944,-0.4062,-0.4318,-0.4866,-0.4525,-0.2704,-0.3081,-0.3174,-0.2349,-0.2293,0.0,0.0,0.0,0.0,0.0,0.0,0.0,0.0,0.0,0.0,0.0,0.0,0.0,0.0,0.0,0.0,0.0,0.0,0.0,0.0,0.0,0.0,0.0,0.0,0.0,0.0,0.0,0.0,0.0,0.0,0.0,0.0,0.0,0.0,0.0,0.0,0.0,0.0,0.0,-1.5937,-1.6031,-1.6315,-1.6692,-1.6792,-1.5933,-1.5529,-1.4889,0.0,0.0,0.0,-1.2432,-1.2305,-1.2305,-1.2305,-1.2305,-1.2305,0.0,0.0,0.0,0.0,0.0,0.0,0.0,0.0,0.0,0.0,0.0,0.0,0.0,0.0,0.0,-0.9885,-0.9178,-0.9014,-0.9209,-0.8116,-0.7549,-0.7501,-0.6695,-0.6338,-0.6338,-0.6338,-0.6338,-0.6338,-0.6338,-0.6338,-0.6338,-0.6338,0.0,0.0,-0.5864,-0.516,-0.4217,-0.3906,-0.2895,-0.1568,-0.1254,-0.0628,0.0,0.0,0.0,0.0,0.0,0.0,0.0,-0.2411,-0.303,-0.3441,-0.3622,-0.3539,-0.3184,-0.256,-0.233,-0.1966,-0.1345,-0.1323,0.0,0.0,0.0,0.0,0.0,0.0,0.0,0.0,0.0,0.0,0.0,0.0,0.0,0.0,0.0,0.0,0.0,0.0,0.0,0.0,0.0,0.0,0.0,0.0,0.0,0.0,0.0,0.0,0.0,0.0,0.0,0.0,0.0,0.0,0.0,0.0,0.0,0.0,0.0,-1.5135,-1.4289,-1.5157,-1.4963,-1.4516,-1.4516,-1.4302,-1.3935,0.0,0.0,0.0,-1.2432,-1.2305,-1.2305,-1.2305,-1.2305,-1.2305,-1.2305,0.0,0.0,0.0,0.0,0.0,0.0,0.0,0.0,0.0,0.0,0.0,0.0,0.0,0.0,-0.8886,-0.7692,-0.7282,-0.7982,-0.7023,-0.6482,-0.6342,-0.6338,-0.6338,-0.6338,-0.6338,-0.6338,-0.6338,-0.6338,-0.6338,0.0,0.0,0.0,0.0,-0.4688,-0.4062,-0.3046,-0.2035,-0.1646,-0.1489,-0.0392,0.0,0.0,0.0,0.0,0.0,0.0,0.0,0.0,0.0,-0.28,-0.2683,-0.2129,-0.2658,-0.2504,-0.0948,-0.1455,-0.1496,-0.0495,-0.0947,0.0,0.0,0.0,0.0,0.0,0.0,0.0,0.0,0.0,-0.6076,-0.634,-0.753,-0.7961,0.0,0.0,0.0,0.0,0.0,0.0,0.0,0.0,0.0,0.0,0.0,0.0,0.0,0.0,0.0,0.0,0.0,0.0,0.0,0.0,0.0,0.0,0.0,0.0,0.0,-1.3206,-1.3763,-1.3801,-1.3881,-1.3915,-1.3874,-1.3674,-1.3554,-1.322,-1.2114,0.0,0.0,0.0,-1.1848,-1.2305,-1.2305,-1.2305,-1.2438,-1.2852,0.0,0.0,0.0,0.0,0.0,0.0,0.0,0.0,0.0,0.0,0.0,0.0,0.0,0.0,-0.7757,-0.7271,-0.707,-0.7202,-0.6742,-0.6451,-0.6407,-0.6308,-0.6338,-0.6338,-0.6338,-0.6338,-0.6338,-0.6338,-0.6338,0.0,0.0,0.0,0.0,-0.3904,-0.2969,-0.2035,-0.1723,-0.1176,-0.0471,-0.0157,0.0,0.0,0.0,0.0,0.0,0.0,0.0,0.0,0.0,-0.1949,-0.1663,-0.0911,-0.1375,-0.1335,-0.0116,-0.0691,-0.083,-0.0045,-0.0501,0.0,0.0,0.0,0.0,0.0,0.0,0.0,0.0,-0.4709,-0.6136,-0.6967,-0.8331,-0.8998,-0.8936,-0.8155,-0.7253,0.0,0.0,0.0,0.0,0.0,0.0,0.0,0.0,0.0,-0.7765,0.0,0.0,0.0,0.0,0.0,0.0,0.0,0.0,0.0,0.0,0.0,0.0,0.0,-1.1731,-1.2339,0.0,-1.3427,-1.344,-1.326,-1.2883,0.0,0.0,0.0,0.0,0.0,0.0,-1.1174,-1.1174,-1.1163,-1.1391,-1.2158,-1.2229,0.0,0.0,0.0,0.0,0.0,0.0,0.0,0.0,0.0,0.0,0.0,0.0,0.0,-0.7231,-0.7122,-0.6993,-0.6848,-0.6658,-0.6529,-0.6471,-0.6332,-0.6338,-0.6338,-0.6338,-0.6338,-0.6338,-0.6338,-0.6103,0.0,0.0,0.0,0.0,-0.2815,-0.1957,-0.102,-0.102,-0.0549,0.0,0.0,0.0,0.0,0.0,0.0,0.0,0.0,0.0,0.0,0.0,-0.0685,-0.0514,-0.0046,0.0,0.0,0.0,0.0,0.0,0.0,0.0,0.0,0.0,0.0,0.0,0.0,0.0,0.0,0.0,-0.4271,-0.6051,-0.811,-0.9015,-1.0104,-1.1279,-0.9463,-0.807,-0.7014,-0.5659,-0.4837,-0.443,0.0,0.0,0.0,0.0,-0.6243,0.0,0.0,0.0,0.0,0.0,0.0,0.0,0.0,0.0,0.0,0.0,0.0,0.0,0.0,0.0,0.0,0.0,-1.3106,-1.2929,-1.291,-1.2251,-1.1464,0.0,0.0,0.0,0.0,0.0,0.0,0.0,-0.9188,-0.9484,-1.0669,0.0,0.0,0.0,0.0,0.0,0.0,0.0,0.0,0.0,0.0,0.0,0.0,0.0,0.0,-0.7373,-0.7109,-0.6885,-0.6722,-0.6705,-0.662,-0.6458,-0.6325,-0.6338,-0.6338,-0.6338,-0.6261,-0.618,-0.618,-0.5628,0.0,0.0,0.0,0.0,-0.1489,-0.0863,0.0,0.0,0.0,0.0,0.0,0.0,0.0,0.0,0.0,0.0,0.0,0.0,0.0,0.0,0.0,0.0,0.0,0.0,0.0,0.0,0.0,0.0,0.0,0.0,0.0,0.0,0.0,0.0,0.0,0.0,0.0,0.0,-0.5039,-0.6812,-0.7361,-0.9743,-1.0744,-1.0384,-0.9461,-0.8233,-0.6899,-0.5447,-0.4665,-0.443,-0.5043,0.0,0.0,-0.5975,-0.6243,0.0,0.0,0.0,0.0,-0.6981,-0.6942,0.0,0.0,0.0,0.0,0.0,0.0,0.0,0.0,-0.8897,-0.9202,-0.9942,0.0,-1.045,-1.0269,-1.0067,-0.9668,0.0,0.0,0.0,0.0,0.0,0.0,0.0,0.0,0.0,0.0,0.0,0.0,0.0,0.0,0.0,0.0,0.0,0.0,0.0,0.0,0.0,0.0,0.0,-0.7607,-0.7383,-0.7305,-0.7146,-0.6881,-0.6763,-0.6576,-0.6315,-0.6355,-0.6338,-0.6338,-0.6338,-0.5867,-0.5079,-0.5079,-0.453,0.0,0.0,0.0,-0.1568,-0.0706,-0.0236,0.0,0.0,0.0,0.0,0.0,0.0,0.0,0.0,0.0,0.0,0.0,0.0,0.0,0.0,0.0,0.0,0.0,0.0,0.0,0.0,0.0,0.0,0.0,0.0,0.0,0.0,0.0,0.0,0.0,0.0,0.0,-0.2649,-0.578,-0.8063,-0.9376,-1.1395,-1.2384,-1.2337,-1.1047,-0.9513,-0.755,-0.529,-0.4211,-0.4056,-0.4442,-0.4777,-0.5104,-0.5144,0.0,0.0,0.0,0.0,0.0,-0.6097,-0.6375,0.0,-0.6351,-0.6456,-0.6668,0.0,0.0,0.0,0.0,-0.7569,-0.7464,-0.7664,-0.8609,-0.9443,-0.9327,-0.8917,-0.8489,-0.8039,0.0,0.0,0.0,0.0,0.0,0.0,0.0,0.0,0.0,0.0,0.0,0.0,0.0,0.0,0.0,0.0,0.0,0.0,0.0,0.0,0.0,0.0,-0.774,-0.7584,-0.7512,-0.7305,-0.6943,-0.6848,-0.6661,-0.6363,-0.6291,-0.6338,-0.6261,-0.5786,-0.5234,-0.4686,-0.4217,-0.3359,0.0,0.0,0.0,-0.0784,-0.0236,0.0,0.0,0.0,0.0,0.0,0.0,0.0,0.0,0.0,0.0,0.0,0.0,0.0,0.0,0.0,0.0,0.0,0.0,0.0,0.0,0.0,0.0,0.0,0.0,0.0,0.0,0.0,0.0,0.0,0.0,0.0,0.0,-0.3919,-0.6527,-0.9255,-1.2056,-1.3035,-1.4079,-1.5065,-1.3156,-1.0893,-0.8264,-0.5268,-0.3812,-0.3619,-0.3717,-0.3853,-0.4012,-0.4103,0.0,0.0,0.0,0.0,0.0,0.0,0.0,0.0,-0.6015,-0.6578,-0.7359,-0.6503,0.0,0.0,0.0,0.0,0.0,-0.6006,-0.7434,-0.8836,-0.8803,-0.8161,-0.7626,-0.7745,0.0,0.0,0.0,0.0,0.0,0.0,0.0,0.0,0.0,0.0,0.0,0.0,0.0,0.0,0.0,0.0,0.0,0.0,0.0,0.0,0.0,0.0,-0.7834,-0.7814,-0.7695,-0.7438,-0.701,-0.6973,-0.6814,-0.6512,-0.6342,-0.6183,-0.6025,-0.5157,-0.453,-0.4219,-0.3281,-0.2347,-0.1333,0.0,0.0,0.0,0.0,0.0,0.0,0.0,0.0,0.0,0.0,0.0,0.0,0.0,0.0,0.0,0.0,0.0,0.0,0.0,0.0,0.0,0.0,0.0,0.0,0.0,0.0,0.0,0.0,0.0,0.0,0.0,0.0,0.0,0.0,0.0,0.0,0.0,-0.7254,-0.9535,-1.1905,-1.3182,-1.4231,-1.5079,-1.3671,-1.1083,-0.7395,-0.5441,-0.4256,-0.3751,-0.3653,-0.377,-0.4007,0.0,0.0,0.0,0.0,0.0,0.0,0.0,0.0,0.0,-0.5705,-0.5935,-0.62,-0.5949,0.0,0.0,0.0,0.0,0.0,-0.6081,-0.6472,-0.6685,-0.6543,-0.6633,-0.6648,0.0,0.0,0.0,0.0,0.0,0.0,0.0,0.0,0.0,0.0,0.0,0.0,0.0,0.0,0.0,0.0,0.0,0.0,0.0,0.0,0.0,0.0,0.0,-0.7946,-0.7818,-0.779,-0.7634,-0.7312,-0.7177,-0.6966,-0.6668,-0.6396,-0.5867,-0.4921,-0.4766,-0.3752,-0.2036,-0.188,-0.1254,-0.0235,0.0,-0.0157,0.0,0.0,0.0,0.0,0.0,0.0,0.0,0.0,0.0,0.0,0.0,0.0,0.0,0.0,0.0,0.0,0.0,0.0,0.0,0.0,0.0,0.0,0.0,0.0,0.0,0.0,0.0,0.0,0.0,0.0,0.0,0.0,0.0,0.0,0.0,-1.0661,-1.3266,-1.623,-1.6923,-1.7278,-1.7186,-1.3725,-1.0761,-0.8276,-0.6085,-0.4884,-0.4381,-0.3997,-0.3876,-0.4036,0.0,0.0,0.0,0.0,0.0,0.0,0.0,0.0,0.0,0.0,-0.5762,-0.5986,-0.5844,0.0,0.0,0.0,0.0,0.0,-0.6611,-0.6884,-0.7131,-0.7914,-0.7371,0.0,0.0,0.0,0.0,0.0,0.0,0.0,0.0,0.0,0.0,0.0,0.0,0.0,0.0,0.0,0.0,0.0,0.0,0.0,0.0,0.0,0.0,0.0,0.0,0.0,-0.7936,-0.7933,-0.7797,-0.7506,-0.7346,-0.6766,-0.5879,-0.5615,-0.5291,-0.4686,-0.3595,-0.2504,-0.1568,-0.102,-0.0471,0.0,0.0,0.0,0.0,0.0,0.0,0.0,0.0,0.0,0.0,0.0,0.0,0.0,0.0,0.0,0.0,0.0,0.0,0.0,0.0,0.0,0.0,0.0,0.0,0.0,0.0,0.0,0.0,0.0,0.0,0.0,0.0,0.0,0.0,0.0,0.0,0.0,0.0,-1.4093,-1.6901,-2.0621,-1.9953,-1.9161,-1.8081,-1.3481,-1.0669,-0.9229,-0.6859,-0.5444,-0.4888,-0.4392,-0.4103,-0.4051,0.0,0.0,0.0,0.0,0.0,0.0,0.0,0.0,0.0,0.0,0.0,0.0,0.0,0.0,0.0,-0.58,-0.562,-0.5755,-0.7019,-0.7415,-0.7886,-0.9408,0.0,0.0,0.0,0.0,0.0,0.0,0.0,0.0,0.0,0.0,0.0,0.0,0.0,0.0,0.0,0.0,0.0,0.0,0.0,0.0,0.0,0.0,0.0,0.0,0.0,0.0,-0.8038,-0.8038,-0.7919,-0.7658,-0.7502,-0.6821,-0.5575,-0.4949,-0.4385,-0.3972,-0.2373,-0.1501,-0.1185,-0.0393,0.0,0.0,0.0,0.0,0.0,0.0,0.0,0.0,0.0,0.0,0.0,0.0,0.0,0.0,0.0,0.0,0.0,0.0,0.0,0.0,0.0,0.0,0.0,0.0,0.0,0.0,0.0,0.0,0.0,0.0,0.0,0.0,0.0,0.0,0.0,0.0,0.0,0.0,0.0,-1.6227,-1.8389,-2.2696,-1.9665,-1.7144,-1.5232,-1.2952,-1.0994,-0.9406,-0.7397,-0.5909,-0.4875,-0.4698,-0.447,-0.419,-0.4222,0.0,0.0,0.0,0.0,0.0,0.0,0.0,0.0,0.0,0.0,0.0,0.0,0.0,-0.58,-0.58,-0.5694,-0.5874,-0.7214,-0.7543,-0.7847,-0.9199,0.0,0.0,0.0,0.0,0.0,0.0,0.0,0.0,0.0,0.0,0.0,0.0,0.0,0.0,0.0,0.0,0.0,0.0,0.0,0.0,0.0,0.0,0.0,0.0,0.0,0.0,-0.8038,-0.8038,-0.7963,-0.7801,-0.7658,-0.7342,-0.6949,-0.48,-0.3074,-0.1835,-0.1636,-0.1053,-0.0081,0.0,0.0,0.0,0.0,0.0,0.0,0.0,0.0,0.0,0.0,0.0,0.0,0.0,0.0,0.0157,0.0,0.0,0.0,0.0,0.0,0.0,0.0,0.0,0.0,0.0,0.0,0.0,0.0,0.0,0.0,0.0,0.0,0.0,0.0,0.0,0.0,0.0,0.0,-1.3705,-1.6835,-1.8638,-2.145,-2.5426,-2.119,-1.8121,-1.6095,-1.3259,-1.1158,-0.9781,-0.8159,-0.7149,-0.6728,-0.6056,-0.556,-0.5161,-0.5043,-0.4746,0.0,0.0,0.0,0.0,0.0,0.0,0.0,0.0,-0.5412,-0.5574,-0.554,-0.5718,-0.5908,-0.5725,-0.5633,-0.5989,-0.7771,-0.8403,-0.9109,-1.1298,0.0,0.0,0.0,0.0,0.0,0.0,0.0,0.0,0.0,0.0,0.0,0.0,0.0,0.0,0.0,0.0,0.0,0.0,0.0,0.0,0.0,0.0,0.0,0.0,0.0,0.0,-0.8038,-0.8038,-0.797,-0.7818,-0.6899,-0.5991,-0.5096,-0.3301,-0.1851,-0.0613,-0.0591,-0.0415,0.0,0.0,0.0,0.0,0.0,0.0,0.0,0.0,0.0,0.0,0.0,0.0,0.0079,0.0784,0.102,0.1176,0.0,0.0,0.0,0.0,0.0,0.0,0.0,0.0,0.0,0.0,0.0,0.0,0.0,0.0,0.0,0.0,0.0,0.0,0.0,0.0,0.0,0.0,0.0,-1.3729,-1.7125,-1.9443,-2.2179,-2.5453,-2.1488,-1.8213,-1.545,-1.2931,-1.1243,0.0,0.0,0.0,0.0,0.0,0.0,0.0,-0.5932,-0.5492,0.0,0.0,0.0,0.0,0.0,0.0,0.0,0.0,-0.5329,-0.5678,-0.5597,-0.5823,-0.6154,-0.583,-0.5762,-0.6165,-0.7785,-0.8742,-0.9878,0.0,0.0,0.0,0.0,0.0,0.0,0.0,0.0,0.0,0.0,0.0,0.0,0.0,0.0,0.0,0.0,0.0,0.0,0.0,0.0,0.0,0.0,0.0,0.0,0.0,0.0,0.0,0.0,-0.7394,-0.7302,-0.7065,-0.5884,-0.4933,-0.4288,-0.2612,-0.1344,-0.0538,-0.0174,0.0,0.0,0.0,0.0,0.0,0.0,0.0,0.0,0.0,0.0,0.0,0.0,0.0,0.0157,0.1176,0.1568,0.1802,0.0,0.0,0.0,0.0,0.0,0.0,0.0,0.0,0.0,0.0,0.0,0.0,0.0,0.0,0.0,0.0,0.0,0.0,-0.3881,-0.509,-0.6681,-0.8608,0.0,-1.3835,-1.7363,-1.8138,-1.9697,-2.2178,-1.9925,-1.6727,-1.2788,-1.1837,0.0,0.0,0.0,0.0,0.0,0.0,0.0,0.0,-0.677,-0.661,-0.6592,0.0,0.0,0.0,0.0,0.0,0.0,0.0,-0.5384,-0.6001,-0.5845,-0.6225,-0.661,-0.6159,-0.6135,-0.6451,-0.7092,-0.83,0.0,0.0,0.0,0.0,0.0,0.0,0.0,0.0,0.0,0.0,0.0,0.0,0.0,0.0,0.0,0.0,0.0,0.0,0.0,0.0,0.0,0.0,0.0,0.0,0.0,0.0,0.0,0.0,0.0,-0.602,-0.5904,-0.5596,-0.4372,-0.4286,-0.5359,-0.295,-0.179,-0.179,-0.0539,0.0,0.0,0.0,0.0,0.0,0.0,0.0,0.0,0.0,0.0,0.0,0.0,0.0,0.0157,0.1254,0.1646,0.1958,0.0,0.0,0.0,0.0,0.0,0.0,0.0,0.0,0.0,0.0,0.0,0.0,0.0,0.0,0.0,0.0,0.0,0.0,-0.5286,-0.6182,-0.7235,-0.8431,-1.0024,-1.1481,-1.2809,-1.4246,-1.626,-1.8864,-1.7627,-1.5459,-1.2571,0.0,0.0,0.0,0.0,0.0,0.0,0.0,0.0,0.0,-0.7852,-0.7057,-0.6103,0.0,0.0,0.0,0.0,0.0,0.0,0.0,0.0,0.0,-0.6479,-0.6708,-0.6875,-0.6909,-0.6909,-0.7086,-0.7955,-0.9485,0.0,0.0,0.0,0.0,0.0,0.0,0.0,0.0,0.0,0.0,0.0,0.0,0.0,0.0,0.0,0.0,0.0,0.0,0.0,0.0,0.0,0.0,0.0,0.0,0.0,0.0,0.0,0.0,0.0,-0.5996,-0.5498,-0.4368,-0.3118,-0.2596,-0.2862,-0.1344,-0.0539,-0.0539,-0.018,0.0,0.0,0.0,0.0,0.0,0.0,0.0,0.0,0.0,0.0,0.0,0.0,0.0478,0.1254,0.2268,0.3125,0.3986,0.0,0.0,0.0,0.0,0.0,0.0,0.0,0.0,-0.4248,-0.4248,-0.4409,-0.4505,0.0,0.0,0.0,-0.4858,-0.5257,-0.565,-0.6121,-0.6751,-0.7574,-0.858,-0.9512,-1.0547,-1.167,-1.3047,-1.4279,-1.5301,-1.5072,-1.3855,0.0,0.0,0.0,0.0,0.0,0.0,0.0,0.0,0.0,0.0,-0.9028,-0.8242,-0.7231,0.0,0.0,0.0,0.0,0.0,0.0,0.0,0.0,0.0,-0.6822,-0.72,-0.7497,-0.7753,-0.7947,-0.8245,-0.916,0.0,0.0,0.0,0.0,0.0,0.0,0.0,0.0,0.0,0.0,0.0,0.0,0.0,0.0,0.0,0.0,0.0,0.0,0.0,0.0,0.0,0.0,0.0,0.0,0.0,0.0,0.0,0.0,0.0,0.0,-0.5189,-0.4508,-0.3044,-0.1794,-0.1389,-0.1791,-0.0628,0.0,0.0,0.0,0.0,0.0,0.0,0.0,0.0,0.0,0.0,0.0,0.0,0.0,0.0,0.0,0.0653,0.1772,0.2813,0.3854,0.4973,0.0,0.0,0.0,0.0,0.0,0.0,0.0,-0.4441,-0.4666,-0.4666,-0.5023,-0.5309,0.0,0.0,0.0,-0.534,-0.5672,-0.6098,-0.6518,-0.6901,-0.7667,-0.8931,-0.9524,-1.0811,-1.2832,-1.3555,-1.3198,-1.1899,-1.2499,0.0,0.0,0.0,0.0,0.0,0.0,0.0,0.0,0.0,0.0,0.0,-1.0066,-0.968,-0.92,-0.9203,0.0,0.0,0.0,0.0,0.0,0.0,0.0,0.0,-0.7151,-0.7675,-0.8259,-0.8586,-0.9107,-0.9724,-1.0408,0.0,0.0,0.0,0.0,0.0,0.0,0.0,0.0,0.0,0.0,0.0,0.0,0.0,0.0,0.0,0.0,0.0,0.0,0.0,0.0,0.0,0.0,0.0,0.0,0.0,0.0,0.0,0.0,0.0,0.0,-0.4048,-0.3297,-0.1904,-0.0654,-0.0549,-0.1612,-0.0539,0.0,0.0,0.0,0.0,0.0,0.0,0.0,0.0,0.0,0.0,0.0,0.0,0.0,0.0,0.0085,0.0926,0.2095,0.3099,0.4185,0.5336,0.0,0.0,0.0,0.0,0.0,0.0,-0.5023,-0.5087,-0.5151,-0.5151,-0.5246,-0.5309,-0.5309,-0.5309,0.0,-0.5734,-0.5851,-0.6213,-0.6931,-0.705,-0.7667,-0.8931,-1.0682,-1.2051,-1.2861,-1.242,-1.1784,-1.1049,-1.1309,0.0,0.0,0.0,0.0,0.0,0.0,0.0,0.0,0.0,0.0,0.0,0.0,-0.9464,-0.9028,-0.9186,-0.8221,0.0,0.0,0.0,0.0,0.0,0.0,0.0,-0.8126,-0.8269,-0.8312,-0.8988,-0.9627,-1.0341,-1.0808,-1.2455,0.0,0.0,0.0,0.0,0.0,0.0,0.0,0.0,0.0,0.0,0.0,0.0,0.0,0.0,0.0,0.0,0.0,0.0,0.0,0.0,0.0,0.0,0.0,0.0,0.0,0.0,0.0,0.0,-0.5625,-0.4542,-0.3394,-0.2,-0.0654,-0.0092,-0.0359,-0.009,0.0,0.0,0.0,0.0,0.0,0.0,0.0,0.0,0.0,0.0,0.0,0.0,0.0,0.0087,0.1036,0.2044,0.3099,0.4268,0.5438,0.6357,0.0,0.0,0.0,0.0,0.0,0.0,0.0,0.0,-0.5309,-0.5309,-0.5309,-0.5309,-0.5309,-0.5309,0.0,0.0,-0.5913,-0.6244,-0.7059,-0.7109,-0.776,-0.9223,-1.1139,-1.2041,-1.1641,-1.1224,-1.0563,-0.9709,-0.9547,0.0,0.0,0.0,0.0,0.0,0.0,0.0,0.0,0.0,0.0,0.0,0.0,0.0,0.0,0.0,-0.8473,-0.7385,-0.6973,0.0,0.0,0.0,0.0,0.0,0.0,0.0,-0.865,-0.945,-1.023,-1.1112,-1.2011,0.0,0.0,0.0,0.0,0.0,0.0,0.0,0.0,0.0,0.0,0.0,0.0,0.0,0.0,0.0,0.0,0.0,0.0,0.0,0.0,0.0,0.0,0.0,0.0,0.0,0.0,0.0,0.0,-0.7132,-0.5122,-0.4379,-0.3131,-0.1144,-0.0377,0.0,0.0,0.0,0.0,0.0,0.0,0.0,0.0,0.0,0.0,0.0,0.0,0.0,0.0,0.0,0.0,0.0088,0.1322,0.2446,0.3628,0.4834,0.5958,0.6902,0.0,0.0,0.0,0.0,0.0,0.0,0.0,0.0,0.0,-0.5277,-0.5309,-0.5309,-0.5309,-0.5309,-0.546,0.0,0.0,0.0,-0.6931,-0.7053,-0.7789,-0.9316,-1.0864,-1.1281,-1.0438,-1.0273,-0.971,-0.8699,-0.8222,0.0,0.0,0.0,0.0,0.0,0.0,0.0,0.0,0.0,0.0,0.0,0.0,0.0,0.0,0.0,0.0,0.0,-0.6913,-0.6758,-0.7069,-0.7226,0.0,0.0,0.0,0.0,-0.8958,-0.974,-1.0621,-1.1617,-1.2852,0.0,0.0,0.0,0.0,0.0,0.0,0.0,0.0,0.0,0.0,0.0,0.0,0.0,0.0,0.0,0.0,0.0,0.0,0.0,0.0,0.0,0.0,0.0,0.0,0.0,0.0,0.0,0.0,-0.693,-0.4518,-0.4104,-0.2856,-0.0382,-0.0095,0.0,0.0,0.0,0.0,0.0,0.0,0.0,0.0,0.0,0.0,0.0,0.0,0.0,0.0,0.0,0.009,0.0449,0.1612,0.286,0.4016,0.5267,0.6251,0.7122,0.0,0.0,0.0,0.0,0.0,0.0,0.0,0.0,0.0,0.0,-0.5309,-0.5309,-0.5309,-0.5309,-0.546,-0.5859,-0.5585,-0.5734,-0.6518,0.0,0.0,-0.8503,-0.9178,-0.9965,-1.0891,-1.0158,-0.9689,-0.9555,0.0,0.0,0.0,0.0,0.0,0.0,0.0,0.0,0.0,0.0,0.0,0.0,0.0,0.0,0.0,0.0,0.0,0.0,-0.5721,-0.58,-0.6265,-0.6904,-0.7374,0.0,0.0,0.0,-0.8878,-0.919,-1.016,-1.1096,0.0,0.0,0.0,0.0,0.0,0.0,0.0,0.0,0.0,0.0,0.0,0.0,0.0,0.0,0.0,0.0,0.0,0.0,0.0,0.0,0.0,0.0,0.0,0.0,0.0,0.0,0.0,0.0,-0.8038,-0.7335,-0.5827,-0.4652,-0.3306,-0.181,-0.0562,0.0,0.0,0.0,0.0,0.0,0.0,0.0,0.0,0.0,0.0,0.0,0.0,0.0,0.0,0.0,0.0628,0.17,0.2858,0.4105,0.5267,0.6425,0.6962,0.7136,0.0,0.0,0.0,0.0,0.0,0.0,0.0,0.0,0.0,0.0,0.0,-0.4922,-0.4922,-0.5151,-0.546,-0.5859,-0.5522,-0.5554,-0.6129,-0.6754,-0.7257,-0.7661,-0.8123,-0.8492,-0.8823,-0.8613,-0.8537,-0.8542,0.0,0.0,0.0,-0.985,-1.0545,0.0,0.0,0.0,0.0,0.0,0.0,0.0,0.0,0.0,0.0,0.0,0.0,0.0,0.0,-0.551,-0.5898,-0.632,-0.6695,-0.7106,-0.7947,0.0,0.0,0.0,-0.9352,0.0,-1.183,0.0,0.0,0.0,0.0,0.0,0.0,0.0,0.0,0.0,0.0,0.0,0.0,0.0,0.0,0.0,0.0,0.0,0.0,0.0,0.0,0.0,0.0,0.0,0.0,0.0,0.0,0.0,-0.8038,-0.7129,-0.502,-0.4345,-0.3007,-0.0953,-0.028,0.0,0.0,0.0,0.0,0.0,0.0,0.0,0.0,0.0,0.0,0.0,0.0,0.0,0.009,0.0718,0.1344,0.1969,0.384,0.4912,0.5536,0.6694,0.7139,0.7139,0.0,0.0,0.0,0.0,0.0,0.0,0.0,0.0,0.0,0.0,0.0,-0.4473,-0.4596,0.0,0.0,0.0,-0.546,-0.5435,-0.5734,-0.6299,-0.6658,-0.6658,-0.6963,-0.7047,-0.6787,-0.7209,-0.7461,0.0,0.0,0.0,-1.0448,-0.9354,-0.9878,0.0,-1.098,0.0,0.0,0.0,0.0,0.0,0.0,0.0,0.0,0.0,0.0,0.0,0.0,0.0,-0.5507,-0.5702,-0.5922,-0.6282,-0.7081,-0.7229,0.0,0.0,0.0,0.0,0.0,0.0,0.0,0.0,0.0,0.0,0.0,0.0,0.0,0.0,0.0,0.0,0.0,0.0,0.0,0.0,0.0,0.0,0.0,0.0,0.0,0.0,0.0,0.0,0.0,0.0,0.0,0.0,-0.7637,-0.6426,-0.4116,-0.3652,-0.2424,-0.0095,0.0,0.0,0.0,0.0,0.0,0.0,0.0,0.0,0.0,0.0,0.0,0.0,0.0,0.0,0.009,0.1344,0.1969,0.2503,0.4556,0.5536,0.5894,0.6786,0.7139,0.7139,0.0,0.0,0.0,0.0,0.0,0.0,0.0,0.0,0.0,0.0,0.0,-0.4183,-0.4564,-0.4628,-0.4826,-0.5277,-0.5309,-0.5316,-0.534,-0.5354,-0.5399,-0.5399,-0.5413,0.0,-0.5943,-0.667,-0.71,0.0,0.0,0.0,-1.0086,-0.9328,-0.9714,-1.0958,-0.9426,-0.8543,-0.8194,0.0,0.0,0.0,0.0,0.0,0.0,0.0,0.0,0.0,0.0,0.0,0.0,-0.5079,-0.522,-0.5488,-0.6216,-0.6468,-0.6518,0.0,0.0,0.0,0.0,0.0,0.0,0.0,0.0,0.0,0.0,0.0,0.0,0.0,0.0,0.0,0.0,0.0,0.0,0.0,0.0,0.0,0.0,0.0,0.0,0.0,0.0,0.0,0.0,0.0,0.0,0.0,-0.6833,-0.5525,-0.4116,-0.2765,-0.1456,0.0,0.0,0.0,0.0,0.0,0.0,0.0,0.0,0.0,0.0,0.0,0.0,0.0,0.0,0.0,0.009,0.1344,0.2503,0.3659,0.491,0.6071,0.7051,0.7051,0.7139,0.7139,0.0,0.0,0.0,0.0,0.0,0.0,0.0,0.0,0.0,0.0,0.0,0.0,0.0,-0.4274,-0.4666,-0.4826,-0.5119,-0.5309,-0.5309,-0.5309,-0.5309,-0.5309,-0.5309,-0.5372,-0.5522,-0.6159,0.0,0.0,0.0,-0.8242,-0.9508,-0.8259,-0.8168,-0.904,-0.8672,-0.817,-0.7527,-0.6465,0.0,0.0,0.0,0.0,0.0,0.0,0.0,0.0,0.0,0.0,0.0,0.0,-0.4967,-0.49,-0.5523,0.0,0.0,0.0,0.0,0.0,0.0,0.0,0.0,0.0,0.0,0.0,0.0,0.0,0.0,0.0,0.0,0.0,0.0,0.0,0.0,0.0,0.0,0.0,0.0,0.0,0.0,0.0,0.0,0.0,0.0,0.0,0.0,0.0,0.0,-0.6326,-0.4116,-0.3554,-0.2243,-0.0097,0.0,0.0,0.0,0.0,0.0,0.0,0.0,0.0,0.0,0.0,0.0,0.0,0.0,0.0449,0.1254,0.2413,0.366,0.491,0.6068,0.6782,0.7139,0.7139,0.7139,0.7139,0.0,0.0,0.0,-0.2308,0.0,-0.248,-0.248,-0.2613,0.0,0.0,0.0,0.0,0.0,0.0,0.0,-0.4794,-0.5203,-0.5384,-0.5322,-0.5274,-0.5184,-0.5055,-0.4928,-0.4858,-0.4858,0.0,0.0,0.0,0.0,0.0,0.0,0.0,-0.7111,-0.7632,-0.7302,0.0,0.0,0.0,0.0,-0.4872,0.0,0.0,-0.602,0.0,0.0,0.0,0.0,0.0,0.0,0.0,0.0,0.0,0.0,0.0,0.0,0.0,0.0,0.0,0.0,0.0,0.0,0.0,0.0,0.0,0.0,0.0,0.0,0.0,0.0,0.0,0.0,0.0,0.0,0.0,0.0,0.0,0.0,0.0,0.0,0.0,0.0,0.0,0.0,0.0,0.0,0.0,0.0,0.0,-0.4116,-0.3554,-0.2342,-0.0097,0.0,0.0,0.0,0.0,0.0,0.0,0.0,0.0,0.0,0.0,0.0,0.0,0.0449,0.1076,0.1879,0.3126,0.4285,0.5536,0.6694,0.7139,0.7139,0.7139,0.7139,0.7139,0.0,-0.1981,-0.1845,-0.1406,-0.1711,-0.2019,-0.2019,-0.242,0.0,0.0,0.0,0.0,0.0,0.0,0.0,-0.524,-0.5538,-0.5578,-0.5279,-0.515,-0.4944,-0.4599,0.0,0.0,0.0,0.0,0.0,0.0,-0.6221,0.0,0.0,0.0,-0.6644,0.0,-0.5363,-0.5098,-0.5749,0.0,0.0,-0.5487,0.0,-0.621,-0.6003,0.0,0.0,0.0,-0.7041,-0.679,0.0,0.0,0.0,0.0,0.0,0.0,0.0,0.0,0.0,0.0,0.0,0.0,0.0,0.0,0.0,0.0,0.0,0.0,0.0,0.0,0.0,0.0,0.0,0.0,0.0,0.0,0.0,0.0,0.0,0.0,0.0,0.0,0.0,0.0,0.0,0.0,0.0,0.0,-0.6833,-0.5425,-0.4116,-0.2668,-0.1359,0.0,0.0,0.0,0.0,0.0,0.0,0.0,0.0,0.0,0.0,0.0,0.0,0.009,0.1254,0.179,0.1969,0.3126,0.4374,0.5536,0.6694,0.7139,0.7139,0.7139,0.7139,0.7139,-0.2211,-0.1742,-0.1573,-0.1778,-0.2006,-0.2272,-0.2599,-0.2775,0.0,0.0,0.0,0.0,0.0,0.0,0.0,0.0,-0.5614,-0.5348,-0.4551,-0.4485,-0.4464,-0.4459,-0.416,-0.4106,0.0,0.0,0.0,0.0,0.0,0.0,0.0,0.0,0.0,0.0,-0.5162,-0.4908,-0.4979,-0.468,0.0,0.0,-0.5895,-0.64,0.0,0.0,0.0,0.0,0.0,-0.8136,0.0,0.0,-0.677,-0.6027,0.0,0.0,0.0,0.0,0.0,0.0,-0.5919,0.0,0.0,0.0,0.0,0.0,0.0,0.0,0.0,0.0,0.0,0.0,0.0,0.0,0.0,0.0,0.0,0.0,0.0,0.0,0.0,0.0,0.0,0.0,0.0,0.0,0.0,0.0,-0.7637,-0.6426,-0.4116,-0.1803,-0.0397,0.0,0.0,0.0,0.0,0.0,0.0,0.0,0.0,0.0,0.0,0.0,0.0,0.0,0.0359,0.1522,0.3215,0.4374,0.5622,0.6694,0.6962,0.7139,0.7139,0.7139,0.7139,0.7139,-0.1972,-0.1554,-0.148,-0.1586,-0.1888,-0.2305,-0.2823,-0.3066,-0.3526,0.0,0.0,0.0,0.0,0.0,0.0,0.0,-0.5803,-0.5454,-0.4369,-0.4238,-0.4191,-0.4157,-0.3827,-0.3701,-0.3838,0.0,0.0,0.0,0.0,0.0,0.0,0.0,0.0,0.0,0.0,0.0,0.0,0.0,0.0,0.0,-0.6125,0.0,0.0,-0.8187,-0.857,0.0,0.0,0.0,-0.7967,-0.8109,-0.7353,0.0,0.0,0.0,0.0,0.0,0.0,0.0,0.0,0.0,0.0,0.0,0.0,0.0,0.0,0.0,0.0,0.0,0.0,0.0,0.0,0.0,0.0,0.0,0.0,0.0,0.0,0.0,0.0,0.0,0.0,0.0,0.0,-0.8353,-0.8208,-0.8052,-0.8038,-0.6828,-0.4116,-0.15,0.0,0.0,0.0,0.0,0.0,0.0,0.0,0.0,0.0,0.0,0.0,0.0,0.0,0.0,0.0539,0.1522,0.2948,0.4732,0.6071,0.7139,0.7139,0.7139,0.7139,0.7139,0.718,0.7227,0.0,-0.1563,-0.1564,-0.135,-0.1762,-0.2361,-0.2976,-0.343,-0.3938,0.0,0.0,0.0,0.0,0.0,0.0,0.0,0.0,-0.566,-0.4403,-0.4168,-0.4028,-0.377,-0.3335,-0.3137,-0.3171,0.0,0.0,0.0,0.0,0.0,0.0,0.0,0.0,0.0,0.0,0.0,0.0,0.0,0.0,-0.5311,-0.6546,-0.7037,0.0,0.0,-0.853,0.0,-0.8842,-0.8594,-0.8102,-0.871,-0.7902,0.0,0.0,0.0,0.0,0.0,-0.4548,0.0,0.0,0.0,0.0,0.0,0.0,0.0,0.0,0.0,0.0,0.0,0.0,0.0,0.0,0.0,0.0,0.0,0.0,0.0,0.0,0.0,0.0,0.0,0.0,0.0,-0.8472,-0.833,-0.8187,-0.8052,-0.7736,-0.6526,-0.4116,-0.1487,0.0,0.0,0.0,0.0,0.0,0.0,0.0,0.0,0.0,0.0,0.0,0.0,0.0,0.009,0.1165,0.17,0.1969,0.4287,0.5891,0.6962,0.7051,0.7139,0.7143,0.716,0.7251,0.7353,-0.2386,-0.2081,-0.2076,-0.2609,-0.2876,-0.3313,-0.4092,-0.4137,-0.4505,0.0,0.0,0.0,0.0,0.0,0.0,0.0,0.0,0.0,-0.3853,-0.3612,-0.3601,-0.3616,-0.3293,-0.3236,-0.3483,-0.3356,0.0,0.0,0.0,0.0,0.0,0.0,0.0,0.0,0.0,0.0,0.0,0.0,0.0,-0.5715,-0.6227,0.0,-0.7733,-0.8574,-0.9133,-0.949,-0.9605,-0.9479,-0.9208,0.0,-0.8299,-0.758,0.0,0.0,0.0,0.0,0.0,0.0,0.0,0.0,0.0,0.0,0.0,0.0,0.0,0.0,0.0,0.0,0.0,0.0,0.0,0.0,0.0,0.0,0.0,0.0,0.0,0.0,0.0,0.0,0.0,0.0,-0.8316,-0.8174,-0.8072,-0.8041,-0.6022,-0.4518,-0.4016,-0.1506,0.0,0.0,0.0,0.0,0.0,0.0,0.0,0.0,0.0,0.0,0.0,0.0,0.0,0.0,0.0269,0.0897,0.1879,0.3393,0.4641,0.5805,0.6782,0.7139,0.7156,0.7282,0.7346,0.7387,-0.2588,-0.2477,-0.2626,-0.3251,-0.3459,-0.3843,-0.4689,-0.4674,0.0,0.0,0.0,0.0,0.0,0.0,0.0,0.0,0.0,0.0,0.0,-0.3847,-0.3792,-0.3622,-0.3432,-0.3456,-0.368,-0.3541,-0.3537,0.0,0.0,0.0,0.0,0.0,0.0,0.0,0.0,0.0,0.0,0.0,-0.4585,-0.524,-0.6444,0.0,-0.8448,-0.9123,-0.9564,-0.9822,-0.9822,-0.973,-0.9527,-0.9001,-0.8377,0.0,0.0,-0.7061,-0.6552,0.0,-0.5901,-0.6129,0.0,0.0,0.0,-0.5785,0.0,0.0,0.0,0.0,0.0,0.0,0.0,0.0,0.0,0.0,0.0,0.0,0.0,0.0,0.0,0.0,0.0,0.0,0.0,0.0,-0.8272,-0.813,-0.7736,-0.7033,-0.512,-0.3715,-0.3015,-0.1109,0.0,0.0,0.0,0.0,0.0,0.0,0.0,0.0,0.0,0.0,0.0,0.0,0.0,0.0,0.0,0.0361,0.1,0.2244,0.3416,0.4806,0.6526,0.7255,0.7275,0.7428,0.7529,0.759,-0.2539,-0.2861,-0.3216,-0.3644,-0.3926,-0.4318,-0.5071,-0.5125,0.0,0.0,0.0,0.0,0.0,0.0,0.0,0.0,0.0,0.0,0.0,0.0,-0.4245,-0.3842,-0.3656,-0.37,-0.3958,-0.3714,-0.3636,0.0,0.0,0.0,0.0,0.0,0.0,0.0,0.0,0.0,0.0,0.0,0.0,-0.5236,0.0,-0.7906,-0.8509,-0.9303,-0.9588,-0.9585,-0.9758,-0.9747,-0.9578,-0.91,0.0,-0.7875,-0.798,-0.7651,0.0,0.0,0.0,0.0,0.0,0.0,0.0,0.0,0.0,-0.571,0.0,0.0,0.0,0.0,0.0,0.0,0.0,0.0,0.0,0.0,0.0,0.0,0.0,0.0,0.0,0.0,0.0,0.0,0.0,-0.7831,-0.7192,-0.6121,-0.4544,-0.3154,-0.2011,-0.0706,0.0,0.0,0.0,0.0,0.0,0.0,0.0,0.0,0.0,0.0,0.0,0.0,0.0,0.0,0.0,0.0,0.0092,0.1268,0.2635,0.4051,0.617,0.7204,0.7434,0.7584,0.7712,0.7797,-0.2459,-0.331,-0.3953,-0.4082,-0.4604,-0.5075,-0.5311,-0.5545,0.0,0.0,0.0,0.0,0.0,0.0,0.0,0.0,0.0,0.0,-0.4893,0.0,0.0,-0.4565,-0.3934,-0.3897,-0.4575,-0.3924,-0.3588,-0.3605,0.0,0.0,0.0,0.0,0.0,0.0,-0.4514,0.0,0.0,0.0,-0.604,0.0,-0.7302,-0.7061,0.0,-0.8258,-0.8754,-0.8737,-0.9534,-0.9812,-0.971,0.0,-0.8872,-0.8587,0.0,-0.7645,0.0,0.0,0.0,0.0,0.0,0.0,0.0,0.0,-0.5983,0.0,0.0,0.0,0.0,0.0,0.0,0.0,0.0,0.0,0.0,0.0,0.0,0.0,0.0,0.0,0.0,0.0,0.0,0.0,0.0,-0.6761,-0.6128,-0.5991,-0.362,-0.2205,-0.2004,-0.0706,0.0,0.0,0.0,0.0,0.0,0.0,0.0,0.0,0.0,0.0,0.0,0.0,0.0,0.0,0.0,0.0,0.009,0.1281,0.2577,0.3959,0.5252,0.6522,0.759,0.7733,0.7797,0.7828,-0.2475,-0.3358,-0.4052,-0.4606,-0.5206,-0.5798,-0.643,-0.7111,0.0,0.0,0.0,0.0,0.0,0.0,0.0,0.0,0.0,-0.6912,0.0,0.0,0.0,0.0,-0.3836,-0.3809,-0.429,-0.3826,-0.3622,-0.3704,-0.3622,0.0,0.0,0.0,0.0,0.0,-0.5179,0.0,-0.6596,0.0,0.0,0.0,0.0,0.0,0.0,-0.853,-0.9317,-0.9306,-0.9686,-0.9822,-0.9785,0.0,-0.8991,0.0,0.0,0.0,0.0,0.0,0.0,0.0,0.0,0.0,0.0,0.0,0.0,0.0,0.0,0.0,-0.4766,0.0,0.0,0.0,0.0,0.0,0.0,0.0,0.0,0.0,0.0,0.0,0.0,0.0,0.0,0.0,0.0,0.0,0.0,0.0,-0.2666,-0.1635,-0.0903,-0.0303,0.0,0.0,0.0,0.0,0.0,0.0,0.0,0.0,0.0,0.0,0.0,0.0,0.0,0.0,0.0,0.0,0.0,0.0566,0.1513,0.2861,0.4197,0.5942,0.774,0.7889,0.7943,0.7953,-0.2165,0.0,-0.408,-0.4919,-0.5648,-0.6452,-0.7366,-0.8548,0.0,0.0,0.0,0.0,-1.0887,-1.0371,0.0,0.0,0.0,-0.8454,0.0,0.0,-0.593,0.0,-0.4144,0.0,0.0,-0.3958,-0.367,-0.3734,0.0,0.0,0.0,0.0,0.0,0.0,0.0,-0.6765,-0.8505,0.0,0.0,-0.733,-0.7093,-0.7299,-0.7864,-0.8951,-0.9605,-0.9822,-0.9822,-0.9822,-0.9795,-0.9632,-0.9001,0.0,-0.8991,0.0,0.0,0.0,0.0,0.0,-0.6569,0.0,0.0,0.0,0.0,0.0,0.0,0.0,0.0,0.0,0.0,0.0,0.0,0.0,0.0,0.0,0.0,0.0,0.0,0.0,0.0,0.0,0.0,0.0,0.0,0.0,0.0,0.0,0.0,-0.1058,-0.01,0.0,0.0,0.0,0.0,0.0,0.0,0.0,0.0,0.0,0.0,0.0,0.0,0.0,0.0,0.0,0.0,0.0,0.0,0.0,0.0774,0.2152,0.344,0.5314,0.7394,0.7799,0.8038,0.8038,-0.146,-0.2895,0.0,-0.4773,-0.5849,-0.6889,-0.7863,0.0,0.0,0.0,0.0,0.0,0.0,0.0,0.0,0.0,0.0,-1.1707,-0.9481,0.0,-0.8028,0.0,0.0,-0.4619,0.0,0.0,-0.3721,-0.3588,0.0,0.0,0.0,0.0,0.0,0.0,0.0,-0.8133,-0.9606,-0.9068,-0.9728,-1.094,-0.9151,-0.9911,-1.1719,0.0,-0.9066,-0.9822,-0.9822,0.0,0.0,-0.9161,-0.8944,0.0,0.0,0.0,0.0,0.0,0.0,0.0,0.0,0.0,0.0,-0.5752,0.0,0.0,0.0,0.0,-0.5055,0.0,0.0,0.0,0.0,0.0,0.0,0.0,0.0,0.0,0.0,0.0,0.0,0.0,0.0,0.0,0.0,0.0,0.0,0.0,0.0,0.0,0.0,0.0,0.0,0.0,0.0,0.0,0.0,0.0,0.0,0.0,0.0,0.0,0.0,0.0,0.0,0.0,0.0,0.0,0.0,0.0,0.0784,0.2155,0.3486,0.4816,0.6224,0.7534,0.8038,0.8038,0.0,0.0,-0.395,-0.499,-0.611,-0.7704,0.0,-1.1615,0.0,0.0,0.0,0.0,0.0,0.0,-1.4334,0.0,0.0,-1.2844,-1.1202,-0.9464,0.0,0.0,0.0,-0.4711,0.0,0.0,0.0,0.0,0.0,0.0,0.0,0.0,0.0,0.0,0.0,-0.9331,0.0,0.0,0.0,0.0,0.0,-1.0241,-1.268,0.0,0.0,-1.1257,-1.0179,-0.9822,0.0,-0.9588,-0.9262,-0.8954,-0.9049,-0.874,-0.8364,-0.8455,-0.8418,0.0,0.0,0.0,-0.8126,-0.6624,0.0,0.0,0.0,0.0,0.0,0.0,0.0,0.0,0.0,0.0,0.0,0.0,0.0,0.0,0.0,0.0,0.0,0.0,0.0,0.0,0.0,0.0,0.0,0.0,0.0,0.0,0.0,0.0,0.0,0.0,0.0,0.0,0.0,0.0,0.0,0.0,0.0,0.0,0.0,0.0,0.0,0.0,0.0,0.0,0.0,0.0,0.03,0.08,0.2107,0.3516,0.492,0.7132,0.8038,0.8038,-0.2415,0.0,0.0,-0.5305,-0.6935,0.0,0.0,0.0,0.0,0.0,-1.6468,0.0,-1.778,0.0,-1.5402,0.0,-1.5221,-1.4424,-1.2681,-1.086,0.0,-0.9078,-0.6591,0.0,0.0,0.0,0.0,0.0,0.0,-0.3737,0.0,0.0,0.0,0.0,0.0,0.0,0.0,0.0,-1.083,0.0,0.0,-1.0579,0.0,0.0,-1.0554,-1.1598,0.0,-0.9822,-0.9822,-0.9822,-0.9568,-0.9303,-0.9595,-0.9218,-0.873,-0.9022,-0.8899,-0.8628,-0.8418,-0.8642,0.0,-0.7343,-0.7163,0.0,-0.5196,0.0,0.0,0.0,0.0,0.0,0.0,0.0,0.0,0.0,0.0,0.0,0.0,0.0,0.0,0.0,0.0,0.0,0.0,0.0,0.0,0.0,0.0,0.0,0.0,0.0,0.0,0.0,0.0,0.0,0.0,0.0,0.0,0.0,0.0,0.0,0.0,0.0,0.0,0.0,0.0,0.0,0.0,0.0,0.0,0.0202,0.2013,0.3215,0.4316,0.6429,0.7637,0.8038,0.0,0.0,0.0,0.0,-0.8307,0.0,0.0,0.0,-1.6514,0.0,-1.7627,-1.8087,-1.884,-1.7399,-1.6453,-1.6727,-1.7261,0.0,-1.4025,-1.2824,0.0,0.0,-0.7745,-0.7014,-0.7607,0.0,0.0,0.0,0.0,0.0,0.0,0.0,0.0,0.0,-0.7789,0.0,-1.3992,-1.2036,-1.2548,-1.4366,-1.114,-1.0763,-1.2059,-1.0411,-1.0244,-1.0791,-1.0014,-0.9822,-0.9822,-0.9822,-0.9822,-0.9822,-0.9822,-0.9822,-0.9822,-0.9822,-0.9822,-0.9696,-0.9133,-0.8984,-0.8771,-0.7885,0.0,0.0,0.0,0.0,-0.4748,0.0,0.0,0.0,0.0,0.0,0.0,0.0,0.0,0.0,0.0,0.0,0.0,0.0,0.0,0.0,0.0,0.0,0.0,0.0,0.0,0.0,0.0,0.0,0.0,0.0,0.0,0.0,0.0,0.0,0.0,0.0,0.0,0.0,0.0,0.0,0.0,0.0,0.0,0.0,0.0,0.0,0.0,0.0303,0.2914,0.4016,0.4218,0.5625,0.6933,0.8038,-0.381,-0.5696,-0.7361,0.0,-0.9373,-1.0631,0.0,0.0,0.0,0.0,-1.7911,-1.7822,-1.9269,-1.815,-1.7275,-1.7355,-1.7495,0.0,0.0,0.0,0.0,-1.2388,-0.9124,-0.7428,-0.7916,-0.6495,0.0,-0.5416,0.0,0.0,-0.408,0.0,0.0,0.0,0.0,0.0,-1.4077,-1.3252,-1.3598,-1.4366,-1.114,-1.1146,0.0,0.0,-1.0244,-1.0791,-1.0014,-0.9822,-0.9822,-0.9822,-0.9822,-0.9822,-0.9822,-0.9822,-0.9822,-0.9822,-0.9822,-0.9788,-0.9635,-0.9595,-0.9432,-0.8764,-0.7473,-0.6147,0.0,0.0,0.0,0.0,0.0,0.0,0.0,0.0,0.0,0.0,0.0,0.0,0.0,0.0,0.0,0.0,0.0,0.0,0.0,0.0,0.0,0.0,0.0,0.0,0.0,0.0,0.0,0.0,0.0,0.0,0.0,0.0,0.0,0.0,0.0,0.0,0.0,0.0,0.0,0.0,0.0,0.0,0.0,0.0,0.0,0.0202,0.1812,0.3718,0.5625,0.7033,0.7736,0.8038,-0.537,0.0,0.0,-1.059,0.0,0.0,-1.471,0.0,0.0,-1.8957,-1.8194,0.0,-1.8799,-1.8079,-1.7582,-1.7582,-1.7709,0.0,0.0,0.0,0.0,-1.2939,-0.9912,-0.8367,-0.8621,-0.7478,0.0,-0.6176,0.0,0.0,-0.4197,0.0,0.0,0.0,0.0,-1.0478,0.0,-1.3244,-1.3148,-1.2808,-1.0692,0.0,0.0,-1.0317,-1.0021,-1.0405,-0.9968,-0.9822,-0.9822,-0.9822,-0.9822,-0.9822,-0.9822,-0.9822,-0.9822,-0.9822,-0.9822,-0.9822,-0.9822,-0.9822,-0.9741,-0.9408,-0.8502,-0.7221,-0.5451,-0.4351,-0.3126,0.0,0.0,0.0,0.0,0.0,0.0,0.0,0.0,0.0,0.0,0.0,0.0,0.0,0.0,0.0,0.0,0.0,0.0,0.0,0.0,0.0,0.0,0.0,0.0,0.0,0.0,0.0,0.0,0.0,0.0,0.0,0.0,0.0,0.0,0.0,0.0,0.0,0.0,0.0,0.0,0.0,0.0303,0.1109,0.3017,0.5022,0.6933,0.7736,0.8038,0.8038,0.0,0.0,0.0,0.0,0.0,0.0,0.0,-1.6792,0.0,-1.9154,0.0,-1.7866,-1.7911,-1.7733,-1.7655,-1.7695,0.0,-1.7669,-1.6633,-1.4922,-1.3482,-1.2531,-1.0463,-0.9412,-0.9412,-0.8662,0.0,0.0,0.0,0.0,0.0,0.0,0.0,0.0,0.0,0.0,0.0,-1.2761,-1.2215,0.0,-1.0256,-0.9822,-0.9822,-0.9822,-0.9822,-0.9822,-0.9822,-0.9822,-0.9822,-0.9822,-0.9822,-0.9822,-0.9822,-0.9822,-0.9822,-0.9822,-0.9822,-0.9822,-0.9822,-0.9822,-0.9822,-0.9822,-0.9697,-0.8683,-0.5846,-0.4912,-0.3774,-0.0864,-0.02,0.0,0.0,0.0,0.0,0.0,0.0,0.0,0.0,0.0,0.0,0.0,0.0,0.0,0.0,0.0,0.0,0.0,0.0,0.0,0.0,0.0,0.0,0.0,0.0,0.0,0.0,0.0,0.0,0.0,0.0,0.0,0.0,0.0,0.0,0.0,0.0,0.0,0.0,0.0,0.0807,0.2213,0.4722,0.6531,0.7736,0.7939,0.8038,0.8038,0.0,0.0,0.0,0.0,0.0,-1.8017,-1.916,-1.8353,-1.7989,-1.901,-1.8274,-1.7784,-1.7939,-1.7943,-1.8063,-1.831,-1.8384,0.0,0.0,0.0,0.0,-1.3848,-1.1129,-0.9568,-0.9568,-0.8716,-0.7889,0.0,0.0,0.0,0.0,0.0,0.0,0.0,0.0,0.0,-1.4434,-1.3111,0.0,-1.3731,-1.0865,-0.9822,-0.9822,-0.9822,-0.9822,-0.9822,-0.9822,-0.9822,-0.9822,-0.9822,-0.9822,-0.9822,-0.9822,-0.9822,-0.9822,-0.9822,-0.9822,-0.9822,-0.9822,-0.9822,-0.9822,-0.9822,-0.8833,-0.7702,-0.7115,-0.4875,-0.2699,-0.2201,-0.1005,0.0,0.0,0.0,0.0,0.0,0.0,0.0,0.0,0.0,0.0,0.0,0.0,0.0,0.0,0.0,0.0,0.0,0.0,0.0,0.0,0.0,0.0,0.0,0.0,0.0,0.0,0.0,0.0,0.0,0.0,0.0,0.0,0.0,0.0,0.0,0.0,0.0,0.0,0.0,0.0807,0.2113,0.3717,0.512,0.6531,0.7637,0.8038,0.8038,0.0,0.0,0.0,0.0,0.0,0.0,0.0,-2.0676,0.0,-1.9734,-1.8086,-1.7014,-1.7321,-1.7903,-1.8337,-1.8477,-1.8631,-1.8718,-1.8718,-1.5954,-1.4326,-1.4427,-1.1375,0.0,-0.972,-0.9225,-0.8404,-0.7258,0.0,0.0,0.0,0.0,0.0,0.0,0.0,-1.1569,0.0,0.0,0.0,-1.3649,-1.0913,-0.9822,-0.9822,-0.9822,-0.9822,-0.9822,-0.9822,-0.9822,-0.9822,-0.9822,-0.9822,-0.9822,-0.9822,-0.9822,-0.9822,-0.9822,-0.9822,-0.9822,-0.9822,-0.9822,-0.9822,-0.9822,-0.9204,-0.845,-0.7412,-0.5994,-0.4616,-0.376,-0.2288,-0.0873,-0.01,0.0,0.0,0.0,0.0,0.0,0.0,0.0,0.0,0.0,0.0,0.0,0.0,0.0,0.0,0.0,0.0,0.0,0.0,0.0,0.0,0.0,0.0,0.0,0.0,0.0,0.0,0.0,0.0,0.0,0.0,0.0,0.0,0.0,0.0,0.0,0.0101,0.0706,0.1411,0.2113,0.3515,0.482,0.6029,0.6734,0.7434,0.8038,0.0,-1.5471,0.0,0.0,-2.0121,0.0,-2.3086,-2.2858,-2.2097,-2.0829,-1.8444,-1.6854,-1.7148,-1.8023,-1.8604,-1.8671,-1.8885,-1.9018,-1.9018,-1.6511,-1.5074,-1.5074,-1.1976,-1.0301,-1.0301,-0.9799,-0.8954,0.0,0.0,0.0,0.0,0.0,0.0,0.0,0.0,0.0,0.0,0.0,-1.3535,-1.3851,-1.168,-1.0778,-1.0778,-1.0418,-1.0301,-1.0301,-0.994,-0.9822,-0.9822,-0.9822,-0.9822,-0.9822,-0.9822,-0.9822,-0.9822,-0.9822,-0.9822,-0.9822,-0.9822,-0.9822,-0.9822,-0.9822,-0.9798,-0.9379,-0.7943,-0.733,-0.6645,-0.5245,-0.3533,-0.1744,-0.03,0.0,0.0,0.0,0.0,0.0,0.0,0.0,0.0,0.0,0.0,0.0,0.0,0.0,0.0,0.0,0.0,0.0,0.0,0.0,0.0,0.0,0.0,0.0,0.0,0.0,0.0,0.0,0.0,0.0,0.0,0.0,0.0,0.0,0.0,0.0,0.0101,0.1109,0.1611,0.1711,0.3015,0.4418,0.5625,0.5929,0.6833,0.8038,0.0,0.0,0.0,0.0,0.0,0.0,-2.3711,-2.3929,-2.3595,-2.2125,-1.9798,-1.8397,-1.8684,-1.8811,-1.8991,-1.9259,-1.9312,-1.9325,-1.9325,-1.7793,-1.6733,-1.6733,-1.3641,-1.1976,-1.1976,-1.039,-0.9205,0.0,0.0,-0.6505,0.0,0.0,0.0,0.0,0.0,0.0,0.0,-1.51,-1.5442,-1.6511,-1.4811,-1.4123,-1.4004,-1.2573,-1.1976,-1.1736,-1.0301,-0.9822,-0.9822,-0.9822,-0.9822,-0.9822,-0.9822,-0.9822,-0.9822,-0.9822,-0.9822,-0.9822,-0.9822,-0.9822,-0.9822,-0.9822,-0.9724,-0.9625,-0.937,-0.809,-0.6876,-0.6762,-0.4296,-0.1744,-0.03,0.0,0.0,0.0,0.0,0.0,0.0,0.0,0.0,0.0,0.0,0.0,0.0,0.0,0.0,0.0,0.0,0.0,0.0,0.0,0.0,0.0,0.0,0.0,0.0,0.0,0.0,0.0,0.0,0.0,0.0,0.0,0.0,0.0,0.0,0.0,0.0,0.0101,0.0202,0.0303,0.1711,0.3015,0.4318,0.5525,0.6833,0.8038,0.0,0.0,0.0,0.0,0.0,0.0,0.0,-2.4743,-2.4103,-2.2534,-2.103,-1.9843,-1.9266,-1.9192,-1.9239,-1.9359,-1.9366,-1.9366,-1.9366,-1.7923,-1.6968,-1.6968,-1.4831,-1.3646,-1.3646,-1.2976,-1.2165,0.0,0.0,0.0,0.0,0.0,0.0,0.0,0.0,-1.5409,-1.6932,-1.6381,-1.6498,-1.685,-1.5192,-1.4604,-1.4361,-1.2813,-1.2213,-1.1976,-1.0422,-0.9822,-0.9822,-0.9822,-0.9822,-0.9822,-0.9822,-0.9822,-0.9822,-0.9822,-0.9822,-0.9822,-0.9822,-0.9822,-0.9822,-0.9822,-0.9778,-0.969,-0.9513,-0.8907,-0.8082,-0.7019,-0.4374,-0.1771,-0.0321,0.0,0.0,0.0,0.0,0.0,0.0,0.0,0.0,0.0,0.0,0.0,0.0,0.0,0.0,0.0,0.0,0.0,0.0,0.0,0.0,0.0,0.0,0.0,0.0,0.0,0.0,0.0,0.0,0.0,0.0,0.0,0.0,0.0,0.0,0.0,0.0,0.0,0.0,0.0101,0.0605,0.1611,0.2916,0.4318,0.5625,0.6933,-2.2373,0.0,-2.176,0.0,-2.3741,-2.3841,-2.5635,-2.5803,-2.4939,-2.2906,-2.2245,-2.1339,-1.957,-1.9366,-1.9366,-1.9366,-1.9366,-1.9366,-1.9366,-1.8286,-1.7683,-1.7683,-1.6138,0.0,-1.5311,-1.4842,-1.4259,-1.3628,-1.2407,0.0,0.0,-1.1349,-1.2876,0.0,-1.6333,-1.7194,-1.7869,-1.7748,-1.7683,-1.7566,-1.6503,-1.6031,-1.579,-1.4237,-1.3283,-1.2693,-1.114,-1.0179,-0.9822,-0.9822,-0.9822,-0.9822,-0.9822,-0.9822,-0.9822,-0.9822,-0.9822,-0.9822,-0.9822,-0.9822,-0.9822,-0.9822,-0.9788,-0.9703,-0.9496,-0.9026,-0.8082,-0.5839,-0.3685,-0.1789,-0.0224,0.0,0.0,0.0,0.0,0.0,0.0,0.0,0.0,0.0,0.0,0.0,0.0,0.0,0.0,0.0,0.0,0.0,0.0,0.0,0.0,0.0,0.0,0.0,0.0,0.0,0.0,0.0,0.0,0.0,0.0,0.0,0.0,0.0,0.0,0.0,0.0,0.0,0.0,0.0,0.0,0.1109,0.2715,0.3615,0.512,0.6734,-2.3516,-2.376,-2.417,-2.5488,-2.6064,-2.6357,-2.6377,-2.7109,-2.6558,-2.3612,-2.3488,-2.2597,-1.9707,-1.9366,-1.9366,-1.9366,-1.9366,-1.9366,-1.9366,-1.9366,-1.9366,0.0,0.0,-1.6968,-1.6968,-1.5429,-1.4594,-1.4579,0.0,0.0,-1.3266,-1.3303,-1.4523,-1.6693,-1.7007,-1.7963,-1.9339,-1.9359,-1.9366,-1.9366,-1.9366,-1.9366,-1.9127,-1.7566,-1.5902,-1.4366,-1.2693,-1.1137,-0.9822,-0.9822,-0.9822,-0.9822,-0.9822,-0.9822,-0.9822,-0.9822,-0.9822,-0.9822,-0.9822,-0.9822,-0.9822,-0.9822,-0.9717,-0.9612,-0.9608,-0.8197,-0.6032,-0.2914,-0.2235,-0.1789,-0.0224,0.0,0.0,0.0,0.0,0.0,0.0,0.0,0.0,0.0,0.0,0.7525,0.8942,0.0,0.0,0.0,0.0,0.0,0.0,0.0,0.0,0.0,0.0,0.0,0.0,0.0,0.0,0.0,0.0,0.0,0.0,0.0,0.0,0.0,0.0,0.0,0.0,0.0,0.0,0.0,0.0,0.1611,0.4016,0.4016,0.572,0.7939,-2.5039,-2.5352,-2.5693,-2.6103,-2.6533,-2.6816,-2.6816,-2.7305,-2.6998,-2.4907,-2.5133,-2.4267,-2.1259,-2.004,-1.9366,0.0,-1.9366,-1.9366,0.0,-1.9366,-1.9366,-1.9366,-1.8887,-1.8642,-1.8642,-1.8169,-1.7812,-1.7812,0.0,0.0,0.0,-1.6017,-1.6889,-1.8524,-1.8617,-1.8925,-1.9366,-1.9366,-1.9366,-1.9366,-1.9366,-1.9366,-1.9243,-1.7566,-1.602,-1.4366,-1.2813,-1.114,-0.9822,-0.9822,-0.9822,-0.9822,-0.9822,-0.9822,-0.9822,-0.9822,-0.9822,-0.9822,-0.9822,-0.9822,-0.9822,-0.9822,-0.9788,-0.9362,-0.8181,-0.5737,-0.3418,-0.2355,-0.1454,-0.056,-0.0112,0.0,0.0324,0.1242,0.1763,0.0,0.0,0.0,0.0,0.0,0.0,0.8832,0.0,0.8649,0.0,0.0,0.0,0.0,0.0,0.0,0.0,0.0,0.0,0.0,0.0,0.0,0.0,0.0,0.0,0.0,0.0,0.0,0.0,0.0,0.0,0.0,0.0,0.0,0.0,0.0,0.0,0.0504,0.1511,0.3316,0.4518,0.552,-2.5947,-2.6201,-2.6435,-2.6592,-2.6973,-2.7256,-2.7256,-2.7627,-2.7343,-2.5891,-2.5448,-2.4258,-2.1919,-2.0256,0.0,-1.9366,-1.9366,-1.9366,-1.9366,-1.9366,-1.9366,-1.9366,-1.9366,-1.9366,-1.9366,-1.9366,0.0,-1.9366,-1.8437,-1.7983,-1.7983,-1.7983,-1.8477,-1.9366,-1.9366,-1.9366,-1.9366,-1.9366,-1.9366,-1.9366,-1.9366,-1.9366,-1.9249,-1.8286,-1.6856,-1.5429,-1.4356,-1.2928,-1.1615,-1.1615,-1.1257,-1.0657,-1.0657,-1.0301,-0.9822,-0.9822,-0.9822,-0.9822,-0.9822,-0.9822,-0.9822,-0.9822,-0.9822,-0.9156,-0.6812,-0.4219,-0.2184,-0.1461,-0.0672,0.0,0.0,0.0,0.0326,0.1068,0.2094,0.3285,0.5035,0.0,0.0,0.0,0.0,0.0,0.0,0.8374,0.7493,0.0,0.0,0.0,0.0,0.0,0.0,0.0,0.0,0.0,0.0,0.0,0.0,0.0,0.0,0.0,0.0,0.0,0.0,0.0,0.0,0.0,0.0,0.0,0.0,0.0,0.0,0.0605,0.1711,0.3416,0.4616,0.5722,-2.6269,-2.6416,-2.6592,0.0,-2.7412,0.0,-2.7715,-2.8047,-2.7843,-2.6381,-2.5041,-2.3487,-2.1919,-2.0479,-1.9591,-1.9366,0.0,0.0,0.0,-1.9366,-1.9366,-1.9366,-1.9366,-1.9366,-1.9366,-1.9366,-1.9366,-1.9366,-1.9366,-1.9366,-1.9366,-1.9366,-1.9366,-1.9366,-1.9366,-1.9366,-1.9366,-1.9366,-1.9366,-1.9366,-1.9366,-1.9366,-1.9366,-1.9366,-1.8402,-1.6968,-1.6968,-1.602,-1.4604,-1.4485,-1.3407,-1.2213,-1.2097,-1.102,-0.9822,-0.9822,-0.9822,-0.9822,-0.9822,-0.9822,-0.9822,-0.9822,-0.9697,-0.8887,-0.5785,-0.3755,-0.2212,-0.0677,-0.0224,-0.0112,-0.0112,-0.0111,0.0,0.0107,0.2197,0.3898,0.4026,0.6124,0.0,0.0,0.0,0.0,0.0,0.6774,0.5853,0.0,0.0,0.0,0.0,0.0,-0.0083,0.0,0.0,0.0,0.0,0.0,0.0,0.0,0.0,0.0,0.0,0.0,0.0,0.0,0.0,0.0,0.0,0.0,0.0,0.0,0.0101,0.1711,0.3915,0.4116,0.5722,0.7839,0.0,0.0,-2.7353,-2.7324,-2.7773,-2.8144,-2.8144,-2.8232,-2.8184,-2.7843,-2.7501,-2.6164,-2.3599,-2.2934,-2.182,-1.9591,-1.9366,-1.9366,-1.9366,-1.9366,-1.9366,-1.9366,-1.9366,-1.9366,-1.9366,-1.9366,-1.9366,-1.9366,-1.9366,-1.9366,-1.9366,-1.9366,-1.9366,-1.9366,-1.9366,-1.9366,-1.9366,-1.9366,-1.9366,-1.9366,-1.9366,-1.9366,-1.9366,-1.9366,-1.8402,-1.6968,-1.6968,-1.602,-1.4366,-1.3168,-1.2573,-1.1976,-1.0781,-1.0058,-0.9822,-0.9822,-0.9822,-0.9822,-0.9822,-0.9822,-0.9822,-0.9822,-0.8836,-0.7667,-0.6845,-0.5391,-0.4069,-0.349,-0.246,-0.1672,-0.1651,-0.0768,0.0325,0.1363,0.2075,0.2875,0.3827,0.4518,0.4976,0.0,0.4945,0.4899,0.506,0.4587,0.3923,0.0,0.0,0.0,0.0,-0.0783,-0.1079,0.0,0.0,0.0,0.0,0.0,0.0,0.0,0.0,0.0,0.0,0.0,0.0,0.0,0.0,0.0,0.0,0.0,0.0,0.0101,0.1109,0.1913,0.2715,0.4822,0.5927,0.6631,-2.6445,-2.6973,-2.7461,-2.7764,-2.8086,-2.8291,-2.8291,-2.8291,-2.8291,-2.8291,-2.706,-2.5608,-2.3933,-2.2597,-2.1159,-1.9591,-1.9366,-1.9366,-1.9366,-1.9366,-1.9366,-1.9366,-1.9366,-1.9366,-1.9366,-1.9366,-1.9366,-1.9366,-1.9366,-1.9366,-1.9366,-1.9366,-1.9366,-1.9366,-1.9366,-1.9366,-1.9366,-1.9366,-1.9366,-1.9366,-1.9366,-1.9366,-1.9366,-1.9366,-1.8887,-1.8046,-1.7202,-1.6492,-1.5429,-1.3885,-1.2813,-1.2097,-1.114,-1.0418,-0.9822,-0.9822,-0.9822,-0.9822,-0.9822,-0.9822,-0.9822,-0.9822,-0.859,-0.7317,-0.7267,-0.5926,-0.47,-0.4664,-0.3954,-0.3141,-0.2302,-0.1519,-0.0535,0.0833,0.1645,0.2034,0.2108,0.2706,0.2903,0.2198,0.2198,0.2083,0.1948,0.1459,0.0854,0.0,-0.1253,0.0,-0.1837,-0.1948,-0.1428,0.0,0.0,0.0,0.0,0.0,0.0,0.0,0.0,0.0,0.0,0.0,0.0,0.0,0.0,0.0,0.0,0.0,0.0404,0.1008,0.1711,0.2715,0.4021,0.5427,0.6431,0.7033,-2.7178,-2.7275,-2.7441,-2.8164,-2.8291,-2.8291,-2.8291,-2.8291,-2.8184,-2.796,-2.5717,-2.3933,-2.3487,-2.1266,-1.9591,-1.9366,-1.9366,-1.9366,-1.9366,-1.9366,-1.9366,-1.9366,-1.9366,-1.9366,-1.9366,-1.9366,-1.9366,-1.9366,-1.9366,-1.9366,-1.9366,-1.9366,-1.9366,-1.9366,-1.9366,-1.9366,-1.9366,-1.9366,-1.9366,-1.9366,-1.9366,-1.9366,-1.9366,-1.9366,-1.9249,-1.8887,-1.7449,-1.685,-1.6374,-1.4837,-1.3292,-1.2217,-1.1856,-1.0899,-0.9822,-0.9822,-0.9822,-0.9822,-0.9822,-0.9822,-0.9822,-0.9822,-0.8714,-0.7699,-0.7709,-0.6602,-0.5596,-0.543,-0.5157,-0.4644,-0.3182,-0.2474,-0.1792,-0.0513,0.0607,0.1002,-0.0099,0.0498,0.0699,-0.0498,-0.0597,-0.0693,-0.0779,-0.1656,-0.2326,-0.2479,-0.3631,-0.4149,-0.3728,-0.2848,-0.1585,0.0,0.0,0.0,0.0,0.0,0.0,0.0,0.0,0.0,0.0,0.0,0.0,0.0,0.0,0.0101,0.0303,0.0303,0.1109,0.2314,0.2515,0.4021,0.6029,0.6232,0.7033,0.8038,-2.7119,-2.7627,-2.8135,-2.8271,-2.8291,-2.8291,-2.8291,-2.8291,-2.7843,-2.6599,-2.6045,-2.4812,-2.2258,-2.1472,-2.0809,-1.9482,-1.9366,-1.9366,-1.9366,-1.9366,-1.9366,-1.9366,-1.9366,-1.9366,-1.9366,-1.9366,-1.9366,-1.9366,-1.9366,-1.9366,-1.9366,-1.9366,-1.9366,-1.9366,-1.9366,-1.9366,-1.9366,-1.9366,-1.9366,-1.9366,-1.9366,-1.9366,-1.9366,-1.9366,-1.8525,-1.7325,-1.7085,-1.6138,-1.4718,-1.3168,-1.2453,-1.1976,-1.066,-0.994,-0.9822,-0.9822,-0.9822,-0.9822,-0.9822,-0.9822,-0.9822,-0.9822,-0.9576,-0.9415,-0.9278,-0.9007,-0.8841,-0.8678,-0.7506,-0.6454,-0.6025,-0.3866,-0.2073,-0.1718,-0.1467,-0.1484,-0.1695,-0.2533,-0.3108,-0.3307,-0.3407,-0.3403,-0.3393,-0.3593,-0.3692,-0.368,-0.4978,-0.4688,-0.2404,-0.3202,-0.2506,-0.0101,0.0,0.0,0.0,0.0,0.0,0.0,0.0,0.0,0.0,0.0,0.0,0.0,0.0,0.0605,0.1711,0.1711,0.2514,0.3817,0.4922,0.5627,0.6129,0.7235,0.7839,0.8038,-2.7685,-2.8018,-2.8291,-2.8291,-2.8291,-2.8291,-2.8291,-2.8291,-2.7726,-2.6264,-2.538,-2.4044,-2.1805,-2.0923,-2.0148,-1.9482,-1.9366,-1.9366,-1.9366,-1.9366,-1.9366,-1.9366,-1.9519,-1.9599,-1.9599,-1.9753,-1.9679,-1.9366,-1.9519,-1.9519,-1.9366,-1.9366,-1.9366,-1.9366,-1.9366,-1.9366,-1.9366,-1.9366,-1.9366,-1.9366,-1.9366,-1.9366,-1.9366,-1.8402,-1.7683,-1.6727,-1.5063,-1.388,-1.3048,-1.1499,-1.0899,-1.0781,-1.0061,-0.9822,-0.9822,-0.9822,-0.9822,-0.9805,-0.9727,-0.9707,-0.9686,-0.9605,-0.9585,-0.9588,-0.9605,-0.9547,-0.9466,-0.9395,-0.8622,-0.7712,-0.6805,-0.5396,-0.4113,-0.3219,-0.3064,-0.3286,-0.4076,-0.4646,-0.5322,-0.6024,-0.6124,-0.6124,-0.6124,-0.6124,-0.6124,-0.6124,-0.6731,-0.6226,-0.4221,-0.4081,-0.307,-0.1092,-0.0402,0.0,0.0,0.0,0.0,0.0,0.0,0.0,0.0,0.0,0.0,0.0,0.0807,0.1411,0.2012,0.2815,0.3917,0.5122,0.5727,0.6431,0.7132,0.7736,0.8038,0.8038,-2.8203,-2.8291,-2.8291,-2.8291,-2.8291,-2.8291,-2.8291,-2.8291,-2.7618,-2.5827,-2.4488,-2.3151,-2.1252,-2.0033,-1.9366,-1.9366,-1.9366,-1.9366,-1.9366,-1.9366,-1.9366,-1.9366,-1.9646,-1.9833,-1.99,-2.0114,-1.998,-1.9466,-1.976,-1.9753,-1.9466,-1.9466,-1.9466,-1.9466,-1.9399,-1.9366,-1.9366,-1.9366,-1.9366,-1.9366,-1.9366,-1.9127,-1.8765,-1.7443,-1.6492,-1.5542,-1.3048,-1.1976,-1.1499,-1.0179,-0.9822,-0.9815,-0.9781,-0.9771,-0.9764,-0.973,-0.972,-0.9693,-0.9588,-0.9557,-0.953,-0.9412,-0.9381,-0.9412,-0.953,-0.9466,-0.9381,-0.9381,-0.9147,-0.8523,-0.7295,-0.6599,-0.592,-0.465,-0.448,-0.4798,-0.5824,-0.6278,-0.6833,-0.7839,-0.8038,-0.8038,-0.8038,-0.8038,-0.8038,-0.8038,-0.8038,-0.7235,-0.5627,-0.4542,-0.322,-0.1555,-0.0496,0.0,0.0,0.0,0.0,0.0,0.0,0.0,0.0,0.0,0.0,0.0101,0.1411,0.2213,0.2614,0.3917,0.5222,0.6431,0.6431,0.7132,0.8038,0.8038,0.8038,0.8038,-2.8281,-2.8291,-2.8291,-2.8291,-2.8291,-2.8291,-2.8291,-2.8291,-2.7286,-2.4378,-2.3822,-2.2717,-1.9815,-1.9482,-1.9366,-1.9366,-1.9366,-1.9366,-1.9366,-1.9366,-1.9366,-1.9366,-1.9646,-1.9927,-2.0194,-2.0221,-2.008,-1.9766,-2.006,-2.0054,-1.9766,-1.9766,-1.9766,-1.976,-1.9486,-1.9366,-1.9366,-1.9366,-1.9366,-1.9366,-1.9366,-1.8525,-1.7202,-1.7085,-1.5182,-1.2573,-1.2333,-1.1257,-0.994,-0.9819,-0.9822,-0.9798,-0.9666,-0.9625,-0.9598,-0.9456,-0.9412,-0.9412,-0.9401,-0.9398,-0.9395,-0.9384,-0.9381,-0.9384,-0.9395,-0.9391,-0.9381,-0.9381,-0.9147,-0.8779,-0.8615,-0.7287,-0.6152,-0.5909,-0.5823,-0.592,-0.5977,-0.7093,-0.7939,-0.7939,-0.8038,-0.8038,-0.8038,-0.8038,-0.8038,-0.8038,-0.8038,-0.683,-0.4316,-0.4048,-0.2814,-0.0191,-0.0097,0.0,0.0,0.0,0.0,0.0,0.0,0.0,0.0,0.0,0.0,0.0101,0.1411,0.2715,0.3915,0.5325,0.6631,0.7839,0.7839,0.7939,0.8038,0.8038,0.8038,0.8038,-2.8291,-2.8291,-2.8291,-2.8291,-2.8291,-2.8291,-2.8291,-2.8291,-2.7178,-2.4164,-2.3822,-2.2717,-1.9707,-1.9366,-1.9366,-1.9366,-1.9366,-1.9366,-1.9366,-1.9366,-1.9533,-1.9887,-2.0187,-2.0394,-2.0508,-2.0681,-2.0541,-2.0067,-2.0361,-2.0354,-2.006,-1.9887,-1.98,-1.9786,-1.9499,-1.9366,-1.9366,-1.9366,-1.9366,-1.9366,-1.9366,-1.8402,-1.685,-1.5902,-1.4118,-1.2097,-1.102,-1.0301,-0.9822,-0.9822,-0.9822,-0.9795,-0.9652,-0.9669,-0.9693,-0.9452,-0.9313,-0.9218,-0.913,-0.9171,-0.9218,-0.9127,-0.9106,-0.913,-0.9218,-0.9171,-0.913,-0.9222,-0.9005,-0.8777,-0.872,-0.8111,-0.7592,-0.7588,-0.7585,-0.7502,-0.7464,-0.7872,-0.8147,-0.8052,-0.8038,-0.8038,-0.8038,-0.8038,-0.8038,-0.8038,-0.7235,-0.5996,-0.4053,-0.24,-0.1031,0.0,0.0,0.0,0.0,0.0,0.0,0.0,0.0,0.0,0.0,0.0,0.0404,0.131,0.2614,0.4017,0.5322,0.6731,0.7537,0.8038,0.8038,0.8038,0.8038,0.8038,0.8038,0.8038,-2.8291,-2.8291,-2.8291,-2.8291,-2.8291,-2.8291,-2.8291,-2.795,-2.6717,-2.4156,-2.3375,-2.2153,-1.9707,-1.9366,-1.9366,-1.9366,-1.9366,-1.9366,-1.9366,-1.9452,-1.972,-2.0214,-2.0428,-2.0621,-2.0808,-2.1009,-2.0869,-2.0374,-2.0668,-2.0615,-2.0227,-2.0034,-1.9887,-1.9786,-1.9499,-1.9366,-1.9366,-1.9366,-1.9366,-1.9366,-1.9366,-1.8169,-1.6138,-1.5548,-1.3765,-1.1378,-1.0781,-1.0179,-0.9822,-0.9822,-0.9822,-0.9795,-0.9652,-0.9608,-0.9561,-0.9317,-0.9167,-0.9062,-0.8964,-0.9011,-0.9062,-0.8964,-0.894,-0.8964,-0.9062,-0.9011,-0.8967,-0.9066,-0.8886,-0.871,-0.871,-0.8584,-0.8482,-0.8482,-0.8482,-0.8431,-0.8289,-0.8272,-0.8109,-0.7453,-0.7335,-0.7232,-0.6828,-0.6728,-0.6728,-0.6728,-0.5924,-0.4771,-0.3399,-0.1223,0.0,0.0,0.0,0.0,0.0,0.0,0.0,0.0,0.0,0.0,0.0,0.0394,0.109,0.2078,0.3775,0.5077,0.6077,0.7415,0.8038,0.8038,0.8038,0.8038,0.8038,0.8038,0.8038,0.8038,-2.8291,-2.8291,-2.8291,-2.8291,-2.8291,-2.8291,-2.8291,-2.7051,-2.5599,-2.4044,-2.2484,-2.1031,-1.9591,-1.9366,-1.9366,-1.9366,-1.9366,-1.9366,-1.9366,-1.9639,-1.9927,-2.0221,-2.0234,-2.0508,-2.1096,-2.1109,-2.0969,-2.0681,-2.0969,-2.0808,-2.0241,-2.0234,-2.008,-1.9786,-1.9499,-1.9372,-1.9366,-1.9366,-1.9366,-1.9366,-1.9366,-1.7455,-1.4837,-1.6374,-1.3989,-1.0061,-1.1619,-1.1137,-0.9822,-0.9822,-0.9822,-0.9795,-0.9652,-0.9398,-0.9123,-0.8981,-0.894,-0.894,-0.894,-0.894,-0.894,-0.894,-0.894,-0.894,-0.894,-0.894,-0.894,-0.894,-0.8818,-0.8713,-0.8713,-0.8587,-0.8486,-0.8486,-0.8486,-0.8435,-0.8292,-0.8272,-0.7699,-0.6145,-0.6029,-0.5425,-0.4116,-0.4016,-0.4016,-0.4014,-0.4014,-0.3359,-0.2097,-0.0748,0.0,0.0,0.0,0.0,0.0,0.0,0.0,0.0,0.0,0.0,0.0,0.1238,0.1808,0.2,0.4651,0.5761,0.5966,0.7378,0.8038,0.8038,0.8038,0.8038,0.8038,0.8038,0.8038,0.8038,-2.8291,-2.8291,-2.8291,-2.8291,-2.8291,-2.8291,-2.8291,-2.795,-2.6717,-2.4156,-2.3375,-2.2153,-1.9707,-1.9366,-1.9366,-1.9366,-1.9366,-1.9366,-1.9366,-1.9446,-1.972,-2.0214,-2.0434,-2.0722,-2.1102,-2.1109,-2.1069,-2.0982,-2.1069,-2.1015,-2.0842,-2.0641,-2.0388,-2.0094,-1.98,-1.9559,-1.9366,-1.9366,-1.9366,-1.9366,-1.9366,-1.8169,-1.6256,-1.5548,-1.376,-1.1378,-1.0778,-1.0179,-0.9822,-0.9822,-0.9822,-0.9795,-0.9652,-0.9398,-0.9144,-0.91,-0.9018,-0.894,-0.894,-0.894,-0.894,-0.894,-0.894,-0.894,-0.894,-0.894,-0.894,-0.894,-0.8903,-0.8869,-0.8869,-0.8832,-0.8801,-0.8801,-0.8801,-0.8419,-0.72,-0.7001,-0.6479,-0.4822,-0.4554,-0.4418,-0.4016,-0.4016,-0.3995,-0.4044,-0.3174,-0.198,-0.0653,-0.0183,0.0,0.0,0.0,0.0,0.0,0.0,0.0,0.0,0.0,0.0,0.0,0.123,0.2283,0.3328,0.5037,0.6346,0.7233,0.7776,0.8038,0.8038,0.8038,0.8038,0.8038,0.8038,0.8038,0.8038,-2.8291,-2.8291,-2.8291,-2.8291,-2.8291,-2.8291,-2.8291,-2.7843,-2.6608,-2.4156,-2.3263,-2.204,-1.9707,-1.9366,-1.9366,-1.9366,-1.9366,-1.9419,-1.9533,-1.9539,-1.98,-2.0381,-2.0688,-2.0929,-2.1109,-2.1223,-2.1283,-2.1283,-2.1283,-2.1223,-2.1102,-2.0815,-2.0454,-2.0054,-1.988,-1.9639,-1.9366,-1.9366,-1.9366,-1.9366,-1.9366,-1.8402,-1.685,-1.5902,-1.4123,-1.2097,-1.114,-1.0301,-0.9822,-0.9822,-0.9822,-0.9795,-0.9652,-0.9442,-0.9232,-0.9171,-0.9052,-0.894,-0.894,-0.894,-0.894,-0.894,-0.894,-0.894,-0.894,-0.894,-0.894,-0.894,-0.894,-0.894,-0.894,-0.894,-0.894,-0.894,-0.8377,-0.7659,-0.6655,-0.6003,-0.495,-0.3417,-0.3252,-0.3015,-0.2514,-0.2398,-0.2369,-0.2422,-0.1692,-0.0832,0.0,0.0,0.0,0.0,0.0,0.0,0.0,0.0,0.0,0.0,0.0,0.0,0.0091,0.1756,0.2969,0.3803,0.5677,0.6902,0.774,0.7889,0.7984,0.8038,0.8038,0.8038,0.8038,0.8038,0.8038,0.8038,-2.8291,-2.8291,-2.8291,-2.8291,-2.8291,-2.8291,-2.8291,-2.7168,-2.5709,-2.4044,-2.2589,-2.1137,-1.9591,-1.9366,-1.9366,-1.9366,-1.9392,-1.9519,-1.978,-1.9826,-2.0087,-2.0648,-2.0955,-2.1122,-2.1149,-2.1443,-2.159,-2.159,-2.159,-2.145,-2.1182,-2.0862,-2.0414,-1.988,-1.982,-1.9639,-1.9366,-1.9366,-1.9366,-1.9366,-1.9366,-1.8402,-1.6962,-1.685,-1.4831,-1.2213,-1.2097,-1.102,-0.9822,-0.9822,-0.9822,-0.9795,-0.9652,-0.9503,-0.9351,-0.9198,-0.9052,-0.894,-0.894,-0.894,-0.894,-0.894,-0.894,-0.894,-0.894,-0.894,-0.894,-0.894,-0.894,-0.894,-0.894,-0.894,-0.894,-0.894,-0.7706,-0.6664,-0.634,-0.5044,-0.3481,-0.1975,-0.1835,-0.131,-0.0101,0.0,0.0,0.0,0.0,0.0,0.0,0.0,0.0,0.0,0.0,0.0,0.0,0.0,0.0,0.0,0.0,0.0,0.009,0.2503,0.357,0.3753,0.6297,0.7458,0.7611,0.7753,0.7899,0.8038,0.8038,0.8038,0.8038,0.8038,0.8038,0.8038,-2.8291,-2.8291,-2.8291,-2.8291,-2.8291,-2.8291,-2.8291,-2.8067,-2.6834,-2.4156,-2.3487,-2.2266,-1.9707,-1.9366,-1.9366,-1.9366,-1.9579,-1.9733,-1.98,-2.0013,-2.0301,-2.0661,-2.0955,-2.1216,-2.1456,-2.1744,-2.1891,-2.1891,-2.1891,-2.1857,-2.1784,-2.1263,-2.0828,-2.0468,-2.0007,-1.9639,-1.9366,-1.9366,-1.9366,-1.9366,-1.9366,-1.8402,-1.685,-1.5548,-1.3885,-1.1976,-1.0781,-1.0061,-0.9822,-0.9822,-0.9822,-0.9795,-0.9652,-0.9503,-0.9351,-0.9198,-0.9052,-0.894,-0.894,-0.894,-0.894,-0.894,-0.894,-0.894,-0.894,-0.894,-0.894,-0.894,-0.894,-0.894,-0.894,-0.894,-0.894,-0.894,-0.7706,-0.6246,-0.5115,-0.3574,-0.2124,-0.0636,-0.0412,-0.0303,0.0,0.0,0.0,0.0,0.0,0.0,0.0,0.0,0.0,0.0,0.0,0.0,0.0,0.0,0.0,0.0,0.0,0.0,0.009,0.2503,0.357,0.3753,0.6297,0.7458,0.7611,0.7753,0.7899,0.8038,0.8038,0.8038,0.8038,0.8038,0.8038,0.8038,-2.8291,-2.8291,-2.8291,-2.8291,-2.8291,-2.8291,-2.8291,-2.8291,-2.7178,-2.4164,-2.3822,-2.2717,-1.9707,-1.9366,-1.9419,-1.9559,-1.9713,-1.992,-2.0201,-2.0361,-2.0575,-2.0869,-2.1162,-2.1456,-2.175,-2.2044,-2.2191,-2.2191,-2.2191,-2.2191,-2.2184,-2.1737,-2.1223,-2.0661,-2.0354,-1.99,-1.9366,-1.9366,-1.9366,-1.9366,-1.9366,-1.8402,-1.6844,-1.5192,-1.3646,-1.1976,-1.0422,-0.9822,-0.9822,-0.9822,-0.9822,-0.9808,-0.9734,-0.9557,-0.9364,-0.9286,-0.911,-0.894,-0.894,-0.894,-0.894,-0.894,-0.894,-0.894,-0.894,-0.894,-0.894,-0.894,-0.894,-0.894,-0.894,-0.894,-0.894,-0.894,-0.7038,-0.5363,-0.4582,-0.2609,-0.0852,-0.0107,0.0,0.0,0.0,0.0,0.0,0.0,0.0,0.0,0.0,0.0,0.0,0.0,0.0,0.0,0.0,0.0,0.0,0.0,0.0,0.0,0.009,0.2503,0.357,0.3749,0.623,0.7346,0.7502,0.7648,0.7797,0.7936,0.8011,0.8038,0.8038,0.8038,0.8038,0.8038,-2.795,-2.795,-2.795,-2.795,-2.795,-2.8067,-2.8291,-2.8291,-2.7178,-2.4164,-2.3822,-2.2717,-1.9707,-1.9366,-1.9486,-1.9773,-1.9846,-2.01,-2.0641,-2.0722,-2.0855,-2.1096,-2.1396,-2.1663,-2.1904,-2.2245,-2.2445,-2.2498,-2.2498,-2.2498,-2.2485,-2.2098,-2.1496,-2.0742,-2.0595,-2.0094,-1.9366,-1.9366,-1.9366,-1.9366,-1.912,-1.8046,-1.6374,-1.4837,-1.3168,-1.1619,-1.0301,-0.9822,-0.9822,-0.9822,-0.9822,-0.9822,-0.9822,-0.9618,-0.9381,-0.9381,-0.9171,-0.894,-0.894,-0.894,-0.894,-0.894,-0.894,-0.894,-0.894,-0.894,-0.894,-0.894,-0.894,-0.894,-0.894,-0.894,-0.894,-0.894,-0.6478,-0.4467,-0.4453,-0.1955,0.0,0.0,0.0,0.0,0.0,0.0,0.0,0.0,0.0,0.0,0.0,0.0,0.0,0.0,0.0,0.0,0.0,0.0,0.0,0.0,0.0,0.0,0.009,0.2503,0.357,0.3748,0.6065,0.7227,0.7383,0.7536,0.7682,0.7828,0.798,0.8038,0.8038,0.8038,0.8038,0.8038,-2.6608,-2.6381,-2.6381,-2.6381,-2.6381,-2.6825,-2.8067,-2.8291,-2.7178,-2.4164,-2.3822,-2.2717,-1.9707,-1.9366,-1.9486,-1.9773,-2.0034,-2.0321,-2.0655,-2.0909,-2.1069,-2.1109,-2.1396,-2.157,-2.161,-2.2138,-2.2545,-2.2806,-2.2806,-2.2806,-2.2786,-2.1984,-2.141,-2.1015,-2.0261,-1.9713,-1.9366,-1.9366,-1.9366,-1.9249,-1.7923,-1.6374,-1.4718,-1.3168,-1.1499,-1.0061,-0.9819,-0.9822,-0.9822,-0.9822,-0.9822,-0.9822,-0.9822,-0.9618,-0.9381,-0.9381,-0.9171,-0.894,-0.894,-0.894,-0.894,-0.894,-0.894,-0.894,-0.894,-0.894,-0.894,-0.894,-0.894,-0.894,-0.894,-0.894,-0.894,-0.894,-0.6478,-0.4448,-0.4491,-0.1939,0.0,0.0,0.0,0.0,0.0,0.0,0.0,0.0,0.0,0.0,0.0,0.0,0.0,0.0,0.0,0.0,0.0,0.0,0.0,0.0,0.0,0.0,0.009,0.2503,0.357,0.3748,0.6065,0.7227,0.7383,0.7536,0.7682,0.7828,0.798,0.8038,0.8038,0.8038,0.8038,0.8038,-2.7501,-2.6717,-2.6381,-2.7168,-2.6608,-2.6599,-2.8067,-2.7618,-2.6273,-2.4044,-2.3039,-2.1813,-1.9591,-1.9366,-1.9486,-1.9773,-2.0067,-2.0361,-2.0661,-2.0949,-2.1109,-2.1109,-2.1236,-2.1383,-2.155,-2.1804,-2.2078,-2.2372,-2.2539,-2.2612,-2.2605,-2.2051,-2.155,-2.1089,-2.0708,-2.0187,-1.9606,-1.9606,-1.9512,-1.9249,-1.7683,-1.602,-1.4361,-1.2813,-1.1257,-0.9822,-0.9822,-0.9822,-0.9822,-0.9822,-0.9822,-0.9822,-0.9822,-0.9618,-0.9381,-0.9381,-0.9171,-0.894,-0.894,-0.894,-0.894,-0.894,-0.894,-0.894,-0.894,-0.894,-0.894,-0.894,-0.894,-0.894,-0.894,-0.894,-0.894,-0.894,-0.6478,-0.4445,-0.4477,-0.192,-0.0312,-0.1009,-0.0504,-0.0299,-0.1064,-0.0479,0.0,0.0,0.0,0.0,0.0,0.0,0.0,0.0,0.0,0.0,0.0,0.0,0.0,0.0,0.0,0.0359,0.1076,0.2769,0.3927,0.4732,0.6337,0.718,0.7261,0.7502,0.7638,0.7716,0.7946,0.8038,0.8038,0.8038,0.8038,0.8038]},{"header":{"parameterUnit":"m.s-1","parameterCategory":1,"la1":30.6,"la2":28.766,"lo1":-90.7593,"lo2":-88.6598,"dx":0.0162,"dy":0.0183,"nx":116,"ny":114,"refTime":"2022-12-27T18:00:00:Z","depth":0,"parameterNumber":3,"parameterNumberName":"V-component_of_WINDS"},"data":[0.0,0.0,0.0,0.0,0.0,0.0,0.0,0.0,0.0,0.0,0.0,0.0,0.0,0.0,0.0,0.0,0.0,0.0,0.0,0.0,0.0,0.0,0.0,0.0,0.0,0.0,0.0,0.0,0.0,0.0,0.0,0.0,0.0,0.0,0.0,0.0,0.0,0.0,0.0,0.0,0.0,0.0,0.0,0.0,0.0,0.0,0.0,0.0,0.0,0.0,0.0,0.0,0.0,0.0,0.0,0.0,0.0,0.0,0.0,0.0,0.0,0.0,0.0,0.0,0.0,0.0,0.0,0.0,0.0,0.0,0.0,0.0,0.0,0.0,0.0,0.0,0.0,0.0,0.0,0.0,0.0,0.0,0.0,0.0,0.0,0.0,0.0,0.0,0.0,0.0,0.0,0.0,0.0,0.0,0.0,0.0,0.0,0.0,0.0,0.0,0.0,0.0,0.0,0.0,0.0,0.0,0.0,0.0,0.0,0.0,0.0,0.0,0.0,0.0,0.0,0.0,0.0,0.0,0.0,0.0,0.0,0.0,0.0,0.0,0.0,0.0,0.0,0.0,0.0,0.0,0.0,0.0,0.0,0.0,0.0,0.0,0.0,0.0,0.0,0.0,0.0,0.0,0.0,0.0,0.0,0.0,0.0,0.0,0.0,0.0,0.0,0.0,0.0,0.0,0.0,0.0,0.0,0.0,0.0,0.0,0.0,0.0,0.0,0.0,0.0,0.0,0.0,0.0,0.0,0.0,0.0,0.0,0.0,0.0,0.0,0.0,0.0,0.0,0.0,0.0,0.0,0.0,0.0,0.0,0.0,0.0,0.0,0.0,0.0,0.0,0.0,0.0,0.0,0.0,0.0,0.0,0.0,0.0,0.0,0.0,0.0,0.0,0.0,0.0,0.0,0.0,0.0,0.0,0.0,0.0,0.0,0.0,0.0,0.0,0.0,0.0,0.0,0.0,0.0,0.0,0.0,0.0,0.0,0.0,0.0,0.0,0.0,0.0,0.0,0.0,0.0,0.0,0.0,0.0,0.0,0.0,0.0,0.0,0.0,0.0,0.0,0.0,0.0,0.0,0.0,0.0,0.0,0.0,0.0,0.0,0.0,0.0,0.0,0.0,0.0,0.0,0.0,0.0,0.0,0.0,0.0,0.0,0.0,0.0,0.0,0.0,0.0,0.0,0.0,0.0,0.0,0.0,0.0,0.0,0.0,0.0,0.0,0.0,0.0,0.0,0.0,0.0,0.0,0.0,0.0,0.0,0.0,0.0,0.0,0.0,0.0,0.0,0.0,0.0,0.0,0.0,0.0,0.0,0.0,0.0,0.0,0.0,0.0,0.0,0.0,0.0,0.0,0.0,0.0,0.0,0.0,0.0,0.0,0.0,0.0,0.0,0.0,0.0,0.0,0.0,0.0,0.0,0.0,0.0,0.0,0.0,0.0,0.0,0.0,0.0,0.0,0.0,0.0,0.0,0.0,0.0,0.0,0.0,0.0,0.0,0.0,0.0,0.0,0.0,0.0,0.0,0.0,0.0,0.0,0.0,0.0,0.0,0.0,0.0,0.0,0.0,0.0,0.0,0.0,0.0,0.0,0.0,0.0,0.0,0.0,0.0,0.0,0.0,0.0,0.0,0.0,0.0,0.0,0.0,0.0,0.0,0.0,0.0,0.0,0.0,0.0,0.0,0.0,0.0,0.0,0.0,0.0,0.0,0.0,0.0,0.0,0.0,0.0,0.0,0.0,0.0,0.0,0.0,0.0,0.0,0.0,0.0,0.0,0.0,0.0,0.0,0.0,0.0,0.0,0.0,0.0,0.0,0.0,0.0,0.0,0.0,0.0,0.0,0.0,0.0,0.0,0.0,0.0,0.0,0.0,0.0,0.0,0.0,0.0,0.0,0.0,0.0,0.0,0.0,0.0,0.0,0.0,0.0,0.0,0.0,0.0,0.0,0.0,0.0,0.0,0.0,0.0,0.0,0.0,0.0,0.0,0.0,0.0,0.0,0.0,0.0,0.0,0.0,0.0,0.0,0.0,0.0,0.0,0.0,0.0,0.0,0.0,0.0,0.0,0.0,0.0,0.0,0.0,0.0,0.0,0.0,0.0,0.0,0.0,0.0,0.0,0.0,0.0,0.0,0.0,0.0,0.0,0.0,0.0,0.0,0.0,0.0,0.0,0.0,0.0,0.0,0.0,0.0,0.0,0.0,0.0,0.0,0.0,0.0,0.0,0.0,0.0,0.0,0.0,0.0,0.0,0.0,0.0,0.0,0.0,0.0,0.0,0.0,0.0,0.0,0.0,0.0,0.0,0.0,0.0,0.0,0.0,0.0,0.0,0.0,0.0,0.0,0.0,0.0,0.0,0.0,0.0,0.0,0.0,0.0,0.0,0.0,0.0,0.0,0.0,0.0,0.0,0.0,0.0,0.0,0.0,0.0,0.0,0.0,0.0,0.0,0.0,0.0,0.0,0.0,0.0,0.0,0.0,0.0,0.0,0.0,0.0,0.0,0.0,0.0,0.0,0.0,0.0,0.0,0.0,0.0,0.0,0.0,0.0,0.0,0.0,0.0,0.0,0.0,0.0,0.0,0.0,0.0,0.0,0.0,0.0,0.0,0.0,0.0,0.0,0.0,0.0,0.0,0.0,0.0,0.0,0.0,0.0,0.0,0.0,0.0,0.0,0.0,0.0,0.0,0.0,0.0,0.0,0.0,0.0,0.0,0.0,0.0,0.0,0.0,0.0,0.0,0.0,0.0,0.0,0.0,0.0,0.0,0.0,0.0,0.0,0.0,0.0,0.0,0.0,0.0,0.0,0.0,0.0,0.0,0.0,0.0,0.0,0.0,0.0,0.0,0.0,0.0,0.0,0.0,0.0,0.0,0.0,0.0,0.0,0.0,0.0,0.0,0.0,0.0,0.0,0.0,0.0,0.0,0.0,0.0,0.0,0.0,0.0,0.0,0.0,0.0,0.0,0.0,0.0,0.0,0.0,0.0,0.0,0.0,0.0,0.0,0.0,0.0,0.0,0.0,0.0,0.0,0.0,0.0,0.0,0.0,0.0,0.0,0.0,0.0,0.0,0.0,0.0,0.0,0.0,0.0,0.0,0.0,0.0,0.0,0.0,0.0,0.0,0.0,0.0,0.0,0.0,0.0,0.0,0.0,0.0,0.0,0.0,0.0,0.0,0.0,0.0,0.0,0.0,0.0,0.0,0.0,0.0,0.0,0.0,0.0,0.0,0.0,0.0,0.0,0.0,0.0,0.0,0.0,0.0,0.0,0.0,0.0,0.0,0.0,0.0,0.0,0.0,0.0,0.0,0.0,0.0,0.0,0.0,0.0,0.0,0.0,0.0,0.0,0.0,0.0,0.0,0.0,0.0,0.0,0.0,0.0,0.0,0.0,0.0,0.0,0.0,0.0,0.0,0.0,0.0,0.0,0.0,0.0,0.0,0.0,0.0,0.0,0.0,0.0,0.0,0.0,0.0,0.0,0.0,0.0,0.0,0.0,0.0,0.0,0.0,0.0,0.0,0.0,0.0,0.0,0.0,0.0,0.0,0.0,0.0,0.0,0.0,0.0,0.0,0.0,0.0,0.0,0.0,0.0,0.0,0.0,0.0,0.0,0.0,0.0,0.0,0.0,0.0,0.0,0.0,0.0,0.0,0.0,0.0,0.0,0.0,0.0,0.0,0.0,0.0,0.0,0.0,0.0,0.0,0.0,0.0,0.0,0.0,0.0,0.0,0.0,0.0,0.0,0.0,0.0,0.0,0.0,0.0,0.0,0.0,0.0,0.0,0.0,0.0,0.0,0.0,0.0,0.0,0.0,0.0,0.0,0.0,0.0,0.0,0.0,0.0,0.0,0.0,0.0,0.0,0.0,0.0,0.0,0.0,0.0,0.0,0.0,0.0,0.0,0.0,0.0,0.0,0.0,0.0,0.0,0.0,0.0,0.0,0.0,0.0,0.0,0.0,0.0,0.0,0.0,0.0,0.0,0.0,0.0,0.0,0.0,0.0,0.0,0.0,0.0,0.0,0.0,0.0,0.0,0.0,0.0,0.0,0.0,0.0,0.0,0.0,0.0,0.0,0.0,0.0,0.0,0.0,0.0,0.0,0.0,0.0,0.0,0.0,0.0,0.0,0.0,0.0,0.0,0.0,0.0,0.0,0.0,0.0,0.0,0.0,0.0,0.0,0.0,0.0,0.0,0.0,0.0,0.0,0.0,0.0,0.0,0.0,0.0,0.0,0.0,0.0,0.0,0.0,0.0,0.0,0.0,0.0,0.0,0.0,0.0,0.0,0.0,0.0,0.0,0.0,0.0,0.0,0.0,0.0,0.0,0.0,0.0,0.0,0.0,0.0,0.0,0.0,0.0,0.0,0.0,0.0,0.0,0.0,0.0,0.0,0.0,0.0,0.0,0.0,0.0,0.0,0.0,0.0,0.0,0.0,0.0,0.0,0.0,0.0,0.0,0.0,0.0,0.0,0.0,0.0,0.0,0.0,0.0,0.0,0.0,0.0,0.0,0.0,0.0,0.0,0.0,0.0,0.0,0.0,0.0,0.0,0.0,0.0,0.0,0.0,0.0,0.0,0.0,0.0,0.0,0.0,0.0,0.0,0.0,0.0,0.0,0.0,0.0,0.0,0.0,0.0,0.0,0.0,0.0,0.0,0.0,0.0,0.0,0.0,0.0,0.0,0.0,0.0,0.0,0.0,0.0,0.0,0.0,0.0,0.0,0.0,0.0,0.0,0.0,0.0,0.0,0.0,0.0,0.0,0.0,0.0,0.0,0.0,0.0,0.0,0.0,0.0,0.0,0.0,0.0,0.0,0.0,0.0,0.0,0.0,0.0,0.0,0.0,0.0,0.0,0.0,0.0,0.0,0.0,0.0,0.0,0.0,0.0,0.0,0.0,0.0,0.0,0.0,0.0,0.0,0.0,0.0,0.0,0.0,0.0,0.0,0.0,0.0,0.0,0.0,0.0,0.0,0.0,0.0,0.0,0.0,0.0,0.0,0.0,0.0,0.0,0.0,0.0,0.0,0.0,0.0,0.0,0.0,0.0,0.0,0.0,0.0,0.0,0.0,0.0,0.0,0.0,0.0,0.0,0.0,0.0,0.0,0.0,0.0,0.0,0.0,0.0,0.0,0.0,0.0,0.0,0.0,0.0,0.0,0.0,0.0,0.0,0.0,0.0,0.0,0.0,0.0,0.0,0.0,0.0,0.0,0.0,0.0,0.0,0.0,0.0,0.0,0.0,0.0,0.0,0.0,0.0,0.0,0.0,0.0,0.0,0.0,0.0,0.0,0.0,0.0,0.0,0.0,0.0,0.0,0.0,0.0,0.0,0.0,0.0,0.0,0.0,0.0,0.0,0.0,0.0,0.0,0.0,0.0,0.0,0.0,0.0,0.0,0.0,0.0,0.0,0.0,0.0,0.0,0.0,0.0,0.0,0.0,0.0,0.0,0.0,0.0,0.0,0.0,0.0,0.0,0.0,0.0,0.0,0.0,0.0,0.0,0.0,0.0,0.0,0.0,0.0,0.0,0.0,0.0,0.0,0.0,0.0,0.0,0.0,0.0,0.0,0.0,0.0,0.0,0.0,0.0,0.0,0.0,0.0,0.0,0.0,0.0,0.0,0.0,0.0,0.0,0.0,0.0,0.0,0.0,0.0,0.0,0.0,0.0,0.0,0.0,0.0,0.0,0.0,0.0,0.0,0.0,0.0,0.0,0.0,0.0,0.0,0.0,0.0,0.0,0.0,0.0,0.0,0.0,0.0,0.0,0.0,0.0,0.0,0.0,0.0,0.0,0.0,0.0,0.0,0.0,0.0,0.0,0.0,0.0,0.0,0.0,0.0,0.0,0.0,0.0,0.0,0.0,0.0,0.0,0.0,0.0,0.0,0.0,0.0,0.0,0.0,0.0,0.0,0.0,0.0,0.0,0.0,0.0,0.0,0.0,0.0,0.0,0.0,0.0,0.0,0.0,0.0,0.0,0.0,0.0,0.0,0.0,0.0,0.0,0.0,0.0,0.0,0.0,0.0,0.0,0.0,0.0,0.0,0.0,0.0,0.0,0.0,0.0,0.0,0.0,0.0,1.8877,0.0,0.0,0.0,0.0,0.0,0.0,0.0,0.0,0.0,0.0,0.0,0.0,0.0,0.0,0.0,0.0,0.0,0.0,0.0,0.0,0.0,0.0,0.0,0.0,0.9468,0.9663,1.0247,0.995,0.0,0.0,0.0,0.0,0.0,0.0,0.0,0.0,0.0,0.0,0.0,0.0,1.4105,1.6686,1.4742,1.3083,0.0,0.0,0.0,0.0,0.0,0.0,0.0,0.0,0.0,0.0,0.0,0.0,0.0,0.0,0.0,0.0,0.0,0.0,0.0,0.0,0.0,0.0,0.0,0.0,0.0,0.0,0.0,0.0,0.0,0.0,0.0,0.0,0.0,0.0,0.0,0.0,0.0,0.0,0.0,0.0,0.0,0.0,0.0,0.0,0.0,0.0,0.0,0.0,0.0,0.0,0.0,0.0,0.0,0.0,0.0,0.0,0.0,0.0,0.0,0.0,0.0,0.0,0.0,0.0,0.0,0.0,0.0,0.0,0.0,0.0,0.0,0.0,1.9508,0.0,0.0,0.0,0.0,0.0,0.0,0.0,0.0,0.0,0.0,0.0,0.0,0.0,0.0,0.0,0.0,0.0,0.0,0.0,0.0,0.0,0.9569,1.0271,1.0263,1.0668,1.1844,1.113,1.0808,1.1276,1.0437,0.0,0.0,0.0,0.0,0.0,0.96,0.0,0.0,0.0,0.0,0.0,2.0588,0.0,0.0,0.0,0.0,0.0,0.0,0.0,0.0,0.0,0.0,0.0,0.0,0.0,0.0,0.0,0.0,0.0,0.0,0.0,0.0,0.0,0.0,0.0,0.0,0.0,0.0,0.0,0.0,0.0,0.0,0.0,0.0,0.0,0.0,0.0,0.0,0.0,0.0,0.0,0.0,0.0,0.0,0.0,0.0,0.0,0.0,0.0,0.0,0.0,0.0,0.0,0.0,0.0,0.0,0.0,0.0,0.0,0.0,0.0,0.0,0.0,0.0,0.0,0.0,0.0,0.0,2.3951,2.3866,2.3866,2.3866,2.4847,2.6437,2.3849,2.3422,2.4198,1.9832,0.0,0.0,0.0,0.0,0.0,0.0,0.0,0.0,0.0,0.0,0.0,0.0,0.0,0.0,0.0,0.0,0.0,0.0,0.0,1.0294,1.09,1.0974,1.1591,1.3192,1.2174,1.176,1.2508,1.1471,0.0,0.0,0.0,0.0,0.9278,1.021,1.1446,0.0,0.0,0.0,2.4624,0.0,0.0,0.0,0.0,0.0,0.0,0.0,0.0,0.0,0.0,0.0,0.0,0.0,0.0,0.0,0.0,0.0,0.0,0.0,0.0,0.0,0.0,0.0,0.0,0.0,0.0,0.0,0.0,0.0,0.0,0.0,0.0,0.0,0.0,0.0,0.0,0.0,0.0,0.0,0.0,0.0,0.0,0.0,0.0,0.0,0.0,0.0,2.0242,2.0621,0.0,0.0,0.0,0.0,0.0,0.0,0.0,0.0,0.0,0.0,0.0,0.0,0.0,2.3004,2.3393,2.5845,2.7097,2.7232,2.9127,3.0023,3.0023,3.0023,3.0192,3.0395,2.9381,0.0,2.4709,2.382,0.0,0.0,0.0,0.0,0.0,0.0,0.0,0.0,0.0,0.0,0.0,0.0,0.0,0.0,0.0,0.0,0.0,0.0,0.0,0.0,0.0,1.4041,1.5361,1.8132,1.7805,1.72,1.6593,1.4731,0.0,0.0,0.0,0.9633,1.0093,1.1842,1.4918,0.0,0.0,0.0,0.0,0.0,0.0,0.0,0.0,0.0,0.0,0.0,0.0,0.0,0.0,0.0,0.0,0.0,0.0,0.0,0.0,0.0,0.0,0.0,0.0,0.0,0.0,0.0,0.0,0.0,0.0,0.0,0.0,0.0,0.0,0.0,0.0,0.0,0.0,0.0,0.0,0.0,0.0,0.0,0.0,0.0,0.0,0.0,0.0,0.0,0.0,1.8468,1.9845,2.1423,2.0016,1.8199,0.0,0.0,0.0,0.0,0.0,0.0,0.0,0.0,0.0,2.493,2.5563,2.6488,2.7757,2.9076,2.9719,2.9719,3.0717,3.119,3.119,3.119,3.119,3.1173,3.0852,2.9624,2.7607,2.5418,2.3313,2.1264,0.0,0.0,0.0,0.0,2.028,2.057,0.0,0.0,0.0,0.0,0.0,0.0,0.0,0.0,0.0,0.0,0.0,0.0,1.606,1.7386,1.943,2.2594,2.2523,2.1917,2.0943,1.7976,0.0,0.0,1.1021,1.0212,1.0911,1.4113,1.8744,0.0,0.0,0.0,0.0,0.0,0.0,0.0,0.0,0.0,0.0,0.0,0.0,0.0,0.0,0.0,0.0,0.0,0.0,0.0,0.0,0.0,0.0,0.0,0.0,0.0,0.0,0.0,0.0,0.0,0.0,0.0,0.0,0.0,0.0,0.0,0.0,0.0,0.0,0.0,0.0,0.0,0.0,0.0,0.0,0.0,0.0,0.0,0.0,0.0,0.0,1.9716,2.0793,2.2734,2.2004,2.021,0.0,0.0,0.0,0.0,0.0,0.0,2.3659,2.428,2.5797,2.8367,2.8783,2.977,3.1444,3.1664,3.1765,3.1765,3.1765,3.1664,3.1461,3.1461,3.1376,3.119,3.1329,3.0942,2.9986,2.6928,2.5554,2.5174,2.2694,2.1772,2.195,2.3162,2.3235,2.3162,0.0,0.0,0.0,0.0,0.0,0.0,0.0,0.0,0.0,0.0,0.0,1.6877,1.763,2.0281,2.2856,2.4861,2.3879,2.356,2.4563,2.0282,1.7178,1.6041,1.3285,1.1614,1.1282,1.7055,2.2107,0.0,0.0,0.0,0.0,0.0,0.0,0.0,0.0,0.0,0.0,0.0,0.0,0.0,0.0,0.0,0.0,0.0,0.0,0.0,0.0,0.0,0.0,0.0,0.0,0.0,0.0,0.0,0.0,0.0,0.0,0.0,0.0,0.0,0.0,0.0,0.0,0.0,0.0,0.0,0.0,0.0,0.0,0.0,0.0,0.0,0.0,0.0,0.0,0.0,0.0,0.0,0.0,2.5321,2.5751,0.0,0.0,0.0,0.0,2.3156,2.386,2.513,2.7049,2.8338,2.9353,3.0153,3.1422,3.2121,3.2222,3.2933,3.3288,3.3288,3.3288,3.2916,3.2222,3.2222,3.185,3.123,3.1603,3.132,3.0472,2.9257,2.7429,2.5305,2.44,2.3123,2.2078,2.4429,2.5256,2.5568,0.0,0.0,0.0,1.1629,1.1837,1.2146,1.2753,1.286,1.2909,1.3035,1.5622,1.8297,2.0467,2.3359,2.6294,2.9174,2.901,2.8378,2.7538,2.3329,2.0552,1.9853,0.0,1.5214,1.9118,2.2497,2.5936,0.0,0.0,0.0,0.0,0.0,0.0,0.0,0.0,0.0,0.0,0.0,0.0,0.0,0.0,0.0,0.0,0.0,0.0,0.0,0.0,0.0,0.0,0.0,0.0,0.0,0.0,0.0,0.0,0.0,0.0,0.0,0.0,0.0,0.0,0.0,0.0,0.0,0.0,0.0,0.0,0.0,0.0,0.0,0.0,0.0,0.0,0.0,0.0,0.0,0.0,0.0,0.0,2.4331,2.5205,0.0,2.2223,2.3871,2.5227,2.5496,2.7628,2.9453,3.062,3.1465,3.206,3.2286,3.2782,3.3,3.3,3.3271,3.3406,3.3406,3.3406,3.3444,3.3532,3.3532,3.3277,3.279,3.2424,3.1791,3.0933,2.9577,2.8669,2.8013,2.7217,2.6723,2.6539,2.7402,2.7732,2.7842,0.0,0.0,0.0,1.194,1.2332,1.278,1.3324,1.3476,1.382,1.4641,1.7631,2.0839,2.3849,2.7029,2.9958,3.2357,3.2325,3.1707,3.0568,2.5958,2.3044,0.0,0.0,0.0,0.0,2.6358,0.0,0.0,0.0,0.0,0.0,0.0,0.0,0.0,0.0,0.0,0.0,0.0,0.0,0.0,0.0,0.0,1.9219,0.0,0.0,0.0,0.0,0.0,0.0,0.0,0.0,0.0,0.0,0.0,0.0,0.0,0.0,0.0,0.0,0.0,0.0,0.0,0.0,0.0,0.0,0.0,0.0,0.0,0.0,0.0,0.0,0.0,0.0,0.0,0.0,0.0,0.0,0.0,2.4147,2.394,2.5481,2.587,2.4115,2.6498,2.8247,2.849,3.0539,3.1957,3.2397,3.3043,3.3406,3.3406,3.3643,3.3778,3.3778,3.4032,3.415,3.415,3.4346,3.4322,3.4164,3.462,3.4231,3.3294,3.3197,3.2375,3.1075,3.0188,2.9647,2.9326,2.8662,2.8658,2.8994,2.8994,2.8994,2.9017,0.0,0.0,1.126,1.1158,1.1858,1.2545,1.2951,1.3243,1.4355,1.7063,2.0908,2.4526,2.7502,3.1173,3.3598,3.4081,3.345,3.3152,3.3511,2.7875,2.4397,0.0,0.0,0.0,0.0,0.0,0.0,0.0,0.0,0.0,0.0,0.0,0.0,0.0,0.0,0.0,0.0,0.0,0.0,0.0,0.0,0.0,2.4453,0.0,0.0,0.0,0.0,0.0,0.0,0.0,0.0,0.0,0.0,0.0,0.0,0.0,0.0,0.0,0.0,0.0,0.0,0.0,0.0,0.0,0.0,0.0,0.0,0.0,0.0,0.0,0.0,0.0,0.0,0.0,0.0,0.0,2.2851,2.3323,2.3985,2.457,2.6925,2.8466,2.8456,3.027,3.1672,3.23,3.2457,3.2513,3.2391,3.3068,3.3457,3.344,3.415,3.4523,3.4523,3.525,3.5622,3.5622,3.6139,3.5636,3.4216,3.5467,3.4747,3.2672,3.384,3.3039,3.0874,3.1214,3.0467,2.9025,2.8583,2.8658,2.8994,2.8994,2.9017,2.9044,0.9649,1.0479,1.1338,1.1872,1.2438,1.2941,1.3227,1.3191,1.4205,1.7294,2.1005,2.4746,2.8264,3.1495,3.3651,3.4346,3.3717,3.2895,3.1939,2.7743,2.4628,0.0,0.0,0.0,0.0,0.0,0.0,0.0,0.0,0.0,0.0,0.0,0.0,0.0,0.0,0.0,0.0,0.0,0.0,0.0,0.0,0.0,2.7646,0.0,0.0,0.0,0.0,0.0,0.0,0.0,0.0,0.0,0.0,0.0,0.0,0.0,0.0,0.0,0.0,0.0,0.0,0.0,0.0,0.0,0.0,0.0,0.0,0.0,0.0,0.0,0.0,0.0,0.0,0.0,0.0,2.487,2.476,2.6049,2.7277,2.7973,2.9154,2.991,2.9939,3.1303,3.2503,3.3212,3.3684,3.3953,3.3897,3.459,3.4759,3.4201,3.4912,3.5318,3.5318,3.552,3.5783,3.6182,3.6333,3.6239,3.5989,3.6342,3.5696,3.4302,3.4071,3.3259,3.2017,3.0968,3.0613,3.0613,2.9344,2.8887,2.8994,2.8994,2.9134,2.933,1.0005,1.0876,1.1756,1.2212,1.2774,1.3173,1.3243,1.3458,1.5044,1.9001,2.2051,2.5524,2.9926,3.195,3.3198,3.36,3.2981,3.1943,3.047,2.7774,0.0,0.0,0.0,0.0,0.0,0.0,0.0,0.0,0.0,0.0,0.0,0.0,0.0,0.0,0.0,0.0,0.0,0.0,0.0,0.0,0.0,0.0,3.0366,2.9781,2.7996,2.5641,2.4575,2.3748,2.3056,2.2245,0.0,0.0,0.0,0.0,0.0,0.0,0.0,0.0,0.0,0.0,0.0,0.0,0.0,0.0,0.0,0.0,0.0,0.0,0.0,0.0,0.0,0.0,0.0,0.0,2.6099,2.762,2.795,2.819,2.8721,2.9708,3.0206,3.0924,3.2065,3.2873,3.3501,3.3963,3.4583,3.4692,3.4066,3.5047,3.5267,3.4506,3.4912,3.5301,3.5622,3.5504,3.5616,3.589,3.6313,3.622,3.5714,3.6286,3.5793,3.4504,3.4376,3.366,3.254,3.1604,3.1274,0.0,0.0,0.0,0.0,0.0,2.9312,2.9551,1.0467,1.1381,1.2331,1.2415,1.294,1.3278,1.3085,1.3777,1.6168,2.1273,2.3358,2.637,3.1618,3.239,3.2451,3.2406,3.1858,3.0912,2.9444,0.0,0.0,0.0,0.0,0.0,0.0,0.0,0.0,0.0,0.0,0.0,0.0,0.0,0.0,0.0,0.0,0.0,0.0,0.0,0.0,0.0,0.0,0.0,3.2721,3.1524,3.0503,2.9483,2.7951,2.6912,2.6161,2.5192,0.0,0.0,0.0,0.0,0.0,0.0,0.0,0.0,0.0,0.0,0.0,0.0,0.0,0.0,0.0,0.0,0.0,0.0,0.0,0.0,0.0,0.0,0.0,0.0,2.9011,3.0787,3.1539,3.0092,2.9355,3.0493,3.0767,3.1816,3.4242,3.4573,3.4624,3.4624,3.5233,3.4979,3.3491,0.0,0.0,0.0,0.0,3.4735,3.544,3.5253,3.5174,3.5235,3.6132,3.5786,3.4424,3.5597,3.5293,3.3844,3.4559,3.4037,3.2742,3.2651,3.2144,3.1311,2.9871,2.9706,3.0194,2.9783,2.9664,2.9763,1.2214,1.218,1.2483,1.3091,1.3125,1.3138,1.3294,1.329,1.5437,2.145,2.3025,2.5647,3.1008,3.2155,3.2298,3.1835,3.2076,3.1715,0.0,0.0,0.0,0.0,0.0,0.0,0.0,0.0,0.0,0.0,0.0,0.0,0.0,0.0,0.0,0.0,0.0,0.0,0.0,0.0,0.0,0.0,0.0,0.0,3.4891,3.4637,3.4085,3.3336,3.2496,3.1702,3.1035,3.0278,2.8779,2.704,2.6272,0.0,0.0,0.0,0.0,0.0,0.0,0.0,0.0,0.0,0.0,0.0,0.0,0.0,0.0,0.0,0.0,0.0,0.0,0.0,0.0,2.9688,3.1075,3.2331,3.3011,3.2696,3.2312,3.1982,3.2976,3.3929,3.4455,3.5047,3.5402,3.5402,3.5537,3.4979,3.3491,3.4235,3.41,3.2747,3.3305,3.387,3.4416,3.434,3.4719,3.5449,0.0,0.0,3.4859,3.5127,3.4724,3.3807,3.3972,3.3862,3.3532,3.2871,3.2256,3.1697,3.1399,3.0968,3.0565,3.0841,3.0513,2.9969,1.3275,1.3007,1.2973,1.3345,1.3294,1.326,1.3379,1.3614,1.554,2.0508,2.1927,2.4049,2.8279,2.8433,2.8013,2.7624,2.8398,0.0,0.0,0.0,0.0,0.0,0.0,0.0,0.0,0.0,0.0,0.0,0.0,0.0,0.0,0.0,0.0,0.0,0.0,0.0,0.0,0.0,0.0,0.0,0.0,0.0,3.5953,3.5624,3.5295,3.4951,3.4622,3.4292,3.3903,3.323,3.2004,3.0711,3.032,2.8656,2.6405,0.0,0.0,0.0,0.0,0.0,0.0,0.0,0.0,0.0,0.0,0.0,0.0,0.0,0.0,2.6986,0.0,0.0,3.1698,3.206,3.2883,3.364,3.3946,3.3977,3.3812,3.3423,3.4032,3.4641,3.5013,3.5402,3.5622,3.5622,3.5267,3.4573,3.3457,3.3744,3.344,3.2307,3.2645,3.3247,3.4086,3.3975,3.4235,3.492,3.5157,3.4965,3.4412,3.4412,3.4192,3.3807,3.3807,3.3807,3.3797,3.3511,3.3239,3.3034,3.3332,3.2694,3.1636,3.1857,3.1479,3.0874,1.3913,1.368,1.3479,1.3413,1.3396,1.3396,1.3396,1.3904,1.5561,1.9106,2.0229,2.1847,2.4789,2.3941,2.3231,2.3389,2.4971,0.0,0.0,0.0,0.0,0.0,0.0,0.0,0.0,0.0,0.0,0.0,0.0,0.0,0.0,0.0,0.0,0.0,0.0,0.0,0.0,0.0,0.0,0.0,0.0,0.0,3.6833,3.6213,3.5733,3.5489,3.5355,3.531,3.519,3.4517,3.3819,3.3244,3.3419,3.2112,3.012,2.8425,2.6989,0.0,0.0,0.0,0.0,0.0,0.0,0.0,0.0,0.0,2.5207,2.8675,3.0032,3.0907,3.2021,3.356,3.456,3.406,3.441,3.4709,3.4709,3.4709,3.4709,3.4709,3.4709,3.4895,3.5351,3.5402,3.5351,3.5199,3.4624,3.3964,3.3237,3.3186,3.2848,3.2087,3.2173,3.2706,3.3772,3.367,3.3802,3.4202,3.4593,3.4431,3.3807,3.3807,3.3807,3.3788,3.3868,3.3876,3.3902,3.4171,3.4315,3.4427,3.4907,3.4318,3.3142,3.297,3.2387,3.1698,1.3941,1.387,1.3756,1.3446,1.3396,1.3396,1.3396,1.3481,1.4597,1.7659,1.7933,1.8808,2.1295,2.0923,2.1151,2.2665,0.0,0.0,0.0,0.0,0.0,0.0,0.0,0.0,0.0,0.0,0.0,0.0,0.0,0.0,0.0,0.0,0.0,0.0,0.0,0.0,0.0,0.0,0.0,0.0,0.0,0.0,3.8314,3.7723,3.6662,3.5429,3.4816,3.4592,3.4487,3.3829,3.3171,3.2715,3.3313,3.2483,3.1325,3.1632,0.0,2.703,2.6197,0.0,0.0,2.4772,2.5519,2.6654,0.0,0.0,3.0245,3.2524,3.3506,3.4209,3.4992,3.5324,3.5442,3.5397,3.5442,3.5504,3.5504,3.5504,3.5504,3.5504,3.5504,3.5267,3.4675,3.4624,3.4353,3.3711,3.3575,3.3203,3.2442,3.2408,3.207,3.1343,3.1665,3.2142,3.2682,3.3051,3.3459,3.3881,3.3908,3.3899,3.3807,3.3807,3.3807,3.3815,3.4043,3.4171,3.4195,3.4508,3.4793,3.5016,3.5069,3.5124,3.5076,3.4307,3.3032,3.1698,1.4078,1.3983,1.3856,1.3711,1.368,1.365,1.3524,1.3526,1.423,1.6258,1.6525,1.7044,1.8411,1.7989,1.813,1.9484,2.4112,0.0,0.0,0.0,0.0,0.0,0.0,0.0,0.0,0.0,0.0,0.0,0.0,0.0,0.0,0.0,0.0,0.0,0.0,0.0,0.0,0.0,0.0,0.0,0.0,0.0,3.8023,3.7855,3.6521,3.4864,3.5047,3.4611,0.0,0.0,3.3328,3.2588,3.3263,3.2814,3.213,3.2411,3.1407,0.0,3.0015,0.0,0.0,0.0,2.9583,3.0429,3.1508,3.2055,3.2757,3.4409,3.4953,3.525,3.5554,3.5622,3.5622,0.0,3.5622,3.5622,3.5622,3.5622,3.5622,3.5622,3.5622,3.5504,3.5182,3.5148,3.503,3.4709,3.3897,3.3271,3.2949,3.2121,3.1635,3.1545,3.1716,3.2161,3.2921,3.3105,3.339,3.3807,3.3807,3.3807,3.3807,3.3807,3.3876,3.4043,3.4147,3.4311,3.451,3.4813,3.4999,3.5122,3.5273,3.5398,3.5468,3.5084,3.4199,3.3083,1.4201,1.4136,1.4038,1.3997,1.4024,1.3983,1.3721,1.3676,1.4015,1.4928,1.5138,1.5249,1.5471,1.5325,1.5668,1.6849,2.2021,2.6833,0.0,0.0,0.0,0.0,0.0,0.0,0.0,0.0,0.0,0.0,0.0,0.0,0.0,0.0,0.0,0.0,0.0,0.0,0.0,0.0,0.0,0.0,0.0,0.0,3.7955,3.7598,3.6104,3.4198,3.4548,3.3738,0.0,0.0,3.1973,3.1576,3.2118,3.2238,3.2302,3.2918,3.2873,3.2594,3.2594,0.0,0.0,3.2575,3.3208,3.3679,3.3483,3.3822,3.4418,3.5414,3.5622,3.5622,3.5622,3.5622,3.5622,3.5622,3.5622,3.5622,3.5622,3.5622,3.5622,3.5622,3.5622,3.5622,3.5622,3.5436,3.526,3.5214,3.421,3.3577,3.3499,3.2454,3.1921,3.2004,3.2127,3.25,3.3184,3.3302,3.3522,3.3807,3.3807,3.3807,3.3788,3.3876,3.4068,3.4357,3.4405,3.4574,3.4813,3.5105,3.5207,3.5223,3.5432,3.5493,3.5493,3.5493,3.4949,3.4103,1.4245,1.4362,1.4411,1.4214,1.4362,1.435,1.3955,1.3899,1.3845,1.3684,1.3496,1.3102,1.2343,1.3094,1.4271,1.5725,2.0874,2.5781,2.9867,3.4336,0.0,0.0,0.0,0.0,0.0,0.0,0.0,0.0,0.0,0.0,0.0,0.0,0.0,0.0,0.0,0.0,0.0,0.0,0.0,0.0,0.0,0.0,3.864,3.7315,3.5462,3.3447,3.2672,0.0,0.0,0.0,2.8063,2.9178,2.9134,3.0202,0.0,3.384,3.3921,0.0,0.0,0.0,3.458,3.529,3.6067,3.6455,3.5678,3.5526,3.5543,3.556,3.5622,3.5622,3.5622,3.5622,3.5622,3.5622,3.5622,3.5622,3.5622,3.5622,3.5622,3.5622,3.5622,3.5622,0.0,3.4962,3.4474,3.4246,3.4181,3.4027,3.3704,3.365,3.3278,3.2502,3.2921,3.3184,3.3214,3.3578,3.3807,3.3807,3.3807,3.3807,3.3807,3.4068,3.4379,3.4694,3.4963,3.5088,3.5105,3.5369,3.5493,3.5493,3.5493,3.5493,3.5493,3.5493,3.4949,3.4199,1.4411,1.4453,1.4476,1.4399,1.4453,1.4453,1.4307,1.4175,1.4024,1.3842,1.3507,0.0,0.0,0.0,0.0,0.0,1.9283,2.3279,2.6877,3.0852,0.0,0.0,0.0,0.0,0.0,0.0,0.0,0.0,0.0,0.0,0.0,0.0,0.0,0.0,0.0,0.0,0.0,0.0,0.0,0.0,0.0,0.0,3.6095,3.7658,3.4695,2.9828,0.0,0.0,0.0,0.0,0.0,0.0,2.818,2.9016,3.0054,3.1237,3.2797,0.0,0.0,0.0,3.6197,3.6941,3.6958,3.6705,3.6451,3.5994,3.5622,3.5622,3.5622,3.5774,3.6299,3.596,3.5791,3.6299,3.596,3.5622,3.5622,3.5622,3.5739,3.6097,3.6139,0.0,0.0,0.0,0.0,3.5121,3.5001,3.4888,3.4763,3.4588,3.428,3.3759,3.3898,3.3876,3.3597,3.3734,3.3807,3.3807,3.3807,3.3902,3.4068,3.4171,3.4489,3.4963,3.507,3.5207,3.5369,3.546,3.5493,3.5493,3.5493,3.5493,3.5493,3.5493,3.5315,3.4988,1.4635,1.4635,1.4635,1.4635,1.4635,0.0,0.0,0.0,0.0,0.0,0.0,0.0,0.0,0.0,0.0,0.0,0.0,2.1069,2.4313,0.0,0.0,0.0,0.0,0.0,0.0,0.0,0.0,0.0,0.0,0.0,0.0,0.0,0.0,0.0,0.0,0.0,0.0,0.0,0.0,0.0,0.0,0.0,3.4167,3.4776,3.1681,0.0,0.0,0.0,0.0,0.0,0.0,0.0,2.6899,2.8354,2.9985,3.0988,3.2628,0.0,0.0,3.6434,3.7364,3.8108,3.7736,3.711,3.684,3.618,3.5622,3.5622,3.5402,3.5453,3.6231,3.574,3.5639,3.6975,3.6755,3.6434,3.6434,3.6582,3.661,3.6402,3.658,3.6843,0.0,0.0,0.0,3.6422,3.6313,3.6176,3.6095,3.5914,3.5457,3.4643,3.4606,3.4342,3.3807,3.3807,3.3807,3.3807,3.3902,3.4093,3.4379,3.4489,3.4794,3.5239,3.5239,3.5354,3.5493,3.5493,3.5493,3.5493,3.5493,3.5493,3.5493,3.5493,3.5493,3.543,1.4904,1.4904,1.4904,0.0,0.0,0.0,0.0,0.0,0.0,0.0,0.0,0.0,0.0,0.0,0.0,0.0,0.0,0.0,0.0,0.0,0.0,0.0,0.0,0.0,0.0,0.0,0.0,0.0,0.0,0.0,0.0,0.0,0.0,0.0,0.0,0.0,0.0,0.0,0.0,0.0,0.0,0.0,3.2527,2.9161,0.0,0.0,0.0,0.0,0.0,0.0,0.0,0.0,2.5642,2.8383,3.1579,3.3,3.3508,3.4269,3.7127,3.7973,3.8176,3.887,3.8464,3.7719,3.7009,3.6197,3.5605,3.5571,3.4996,3.4709,0.0,0.0,3.5216,3.7432,3.7787,3.7835,3.7835,3.8242,3.801,0.0,0.0,0.0,0.0,0.0,0.0,3.7911,0.0,3.7805,3.7539,3.7514,3.6743,3.5119,3.5009,3.4605,3.3807,3.3807,3.3807,3.3815,3.4093,3.4379,3.4714,3.4981,3.5258,3.5493,3.5493,3.5493,3.5493,3.5493,3.5493,3.5493,3.5493,3.5493,3.5493,3.5493,3.5507,3.552,0.0,0.0,0.0,0.0,0.0,0.0,0.0,0.0,0.0,0.0,0.0,0.0,0.0,0.0,0.0,0.0,0.0,0.0,0.0,0.0,0.0,0.0,0.0,0.0,0.0,0.0,0.0,0.0,0.0,0.0,0.0,0.0,0.0,0.0,0.0,0.0,0.0,0.0,0.0,0.0,0.0,0.0,2.6407,0.0,0.0,0.0,0.0,0.0,0.0,0.0,0.0,0.0,0.0,3.119,3.2916,3.3288,0.0,3.6924,3.7702,3.87,3.9563,3.9749,3.8853,3.7855,3.7669,3.6586,3.5453,3.4895,3.4624,3.4556,0.0,0.0,0.0,3.6011,3.6522,0.0,3.6767,3.7236,0.0,0.0,0.0,3.7877,3.8285,3.8318,0.0,0.0,3.815,3.7889,3.7809,3.7619,3.7019,3.6009,3.5349,3.4605,3.3807,3.3807,3.3902,3.4099,3.4171,3.447,3.4999,3.507,3.5258,3.5493,3.5493,3.5493,3.5493,3.5493,3.5493,3.5493,3.5493,3.5493,3.5493,3.5493,3.5528,3.5577,0.0,0.0,0.0,0.0,0.0,0.0,0.0,0.0,0.0,0.0,0.0,0.0,0.0,0.0,0.0,0.0,0.0,0.0,0.0,0.0,0.0,0.0,0.0,0.0,0.0,0.0,0.0,0.0,0.0,0.0,0.0,0.0,0.0,0.0,0.0,0.0,0.0,0.0,0.0,0.0,0.0,0.0,0.0,0.0,0.0,0.0,0.0,0.0,0.0,0.0,0.0,3.0209,3.1698,3.2966,3.4134,3.547,0.0,3.8125,3.9089,3.9715,4.0003,3.9681,3.8751,3.7736,3.706,3.5977,3.4912,3.4167,3.3744,0.0,0.0,0.0,0.0,0.0,0.0,0.0,3.7679,3.8143,3.8347,0.0,3.8099,0.0,3.8658,3.8707,3.8707,0.0,3.8415,3.8267,3.8267,3.776,3.711,3.6321,3.5459,3.4605,3.3807,3.3928,3.4043,3.42,3.447,3.4774,3.5105,3.5223,3.5354,3.5493,0.0,3.5493,3.5493,3.5493,3.5493,3.5493,3.5493,3.5493,3.5493,3.5493,3.5534,3.5611,0.0,0.0,0.0,0.0,0.0,0.0,0.0,0.0,0.0,0.0,0.0,0.0,0.0,0.0,0.0,0.0,0.0,0.0,0.0,0.0,0.0,0.0,0.0,0.0,0.0,0.0,0.0,0.0,0.0,0.0,0.0,0.0,0.0,0.0,0.0,0.0,0.0,0.0,0.0,0.0,0.0,0.0,0.0,0.0,0.0,0.0,0.0,0.0,0.0,0.0,3.154,3.1901,3.3389,3.4353,3.547,3.8193,3.8616,3.8616,4.0527,4.051,3.9783,3.9157,3.8362,3.7381,3.5943,3.503,3.4252,3.3423,0.0,0.0,3.2154,0.0,3.3862,3.5814,0.0,3.8475,3.9115,3.96,3.9445,3.8142,3.8433,3.8707,3.8707,3.8707,3.8707,3.8707,3.8707,3.8707,3.8707,3.7826,3.6909,3.5991,3.5238,3.4504,3.3868,3.4074,3.4246,3.4315,3.4851,3.5122,3.5155,3.5383,3.5493,3.5493,3.5493,3.5493,3.5493,3.5493,3.5493,3.5493,3.5493,3.552,3.5515,3.5515,3.5562,3.564,0.0,0.0,0.0,0.0,0.0,0.0,0.0,0.0,0.0,0.0,1.6801,1.4954,0.0,0.0,0.0,0.0,0.0,0.0,0.0,0.0,0.0,0.0,0.0,0.0,0.0,0.0,0.0,0.0,0.0,0.0,0.0,0.0,0.0,0.0,0.0,0.0,0.0,0.0,0.0,0.0,0.0,0.0,0.0,0.0,0.0,0.0,0.0,0.0,0.0,0.0,3.3248,3.4184,3.5723,3.6705,3.7533,3.8667,3.9326,3.9783,4.0172,3.9732,3.9157,3.9022,3.7973,3.6738,3.5825,3.503,0.0,0.0,0.0,3.2087,3.1495,0.0,0.0,3.4367,0.0,0.0,0.0,0.0,3.8857,0.0,0.0,0.0,0.0,0.0,0.0,0.0,0.0,3.8707,3.8707,3.7312,3.5807,3.4284,3.4082,3.405,3.4123,3.4195,3.4449,3.4944,3.5051,3.5223,3.5432,3.5479,3.5493,3.5493,3.5493,0.0,3.5493,3.5493,3.5493,3.5493,3.5493,3.5528,3.5568,3.5568,3.5702,3.5856,0.0,0.0,0.0,0.0,0.0,0.0,0.0,1.9061,2.0139,2.3178,2.1701,1.9501,1.7281,1.6262,1.5514,0.0,0.0,0.0,0.0,0.0,0.0,0.0,0.0,0.0,0.0,0.0,0.0,0.0,0.0,0.0,0.0,0.0,0.0,0.0,0.0,0.0,0.0,0.0,0.0,0.0,0.0,0.0,0.0,0.0,0.0,0.0,0.0,0.0,0.0,0.0,3.281,3.507,3.6373,3.7478,3.854,3.9671,4.0271,4.0666,4.1011,4.0065,3.8984,3.8828,3.7963,3.6835,3.5509,0.0,0.0,0.0,0.0,3.2191,3.1427,0.0,0.0,0.0,0.0,0.0,0.0,0.0,0.0,0.0,0.0,0.0,0.0,0.0,0.0,0.0,0.0,3.8524,3.8102,3.6523,3.5073,3.3844,3.3954,3.4068,3.42,3.4513,3.4813,3.5105,3.5239,3.5369,3.5493,3.5493,3.5493,3.5493,3.5493,0.0,3.5493,3.5493,3.5493,3.5493,3.5493,3.5534,3.5611,3.5611,3.5741,3.5903,0.0,0.0,0.0,0.0,0.0,0.0,0.0,2.1551,2.2947,2.7371,2.7044,2.4841,2.0784,1.8542,1.6784,0.0,0.0,0.0,0.0,0.0,0.0,0.0,0.0,0.0,0.0,0.0,0.0,0.0,0.0,0.0,0.0,0.0,0.0,0.0,0.0,0.0,0.0,0.0,0.0,0.0,0.0,0.0,0.0,0.0,0.0,0.0,0.0,0.0,0.0,0.0,3.1898,3.4579,3.5951,3.7317,3.8747,4.0227,4.0787,4.107,4.1853,4.0578,3.9071,3.8851,3.8129,3.6957,3.5207,3.4783,0.0,0.0,0.0,0.0,0.0,0.0,0.0,0.0,0.0,0.0,0.0,0.0,0.0,0.0,0.0,0.0,0.0,0.0,0.0,0.0,0.0,0.0,3.7305,3.6048,3.4907,3.3913,3.4147,3.4315,3.4383,3.4851,3.5122,3.519,3.5398,3.5493,3.5493,3.5493,3.5493,3.5493,3.5493,0.0,0.0,3.5493,3.5493,3.5507,3.5528,3.5562,3.5621,3.5639,3.5762,3.5916,0.0,0.0,0.0,0.0,0.0,0.0,0.0,2.3953,2.664,3.166,3.0929,2.8591,2.5091,2.1861,1.8977,0.0,0.0,0.0,0.0,0.0,0.0,0.0,0.0,0.0,0.0,0.0,0.0,0.0,0.0,0.0,0.0,0.0,0.0,0.0,0.0,0.0,0.0,0.0,0.0,0.0,0.0,0.0,0.0,0.0,0.0,0.0,0.0,0.0,0.0,0.0,0.0,3.2031,3.4198,3.6142,3.7923,3.9448,0.0,0.0,4.1619,4.0658,3.9458,3.9428,3.8298,3.6816,3.5172,0.0,0.0,0.0,3.2484,3.2466,0.0,0.0,0.0,0.0,0.0,0.0,0.0,0.0,0.0,0.0,0.0,0.0,0.0,0.0,0.0,0.0,0.0,0.0,3.6479,3.6498,3.5801,3.4208,3.4486,3.4774,3.5016,3.5069,3.5223,3.546,3.5493,3.5493,3.5493,3.5493,3.5493,3.5493,3.5493,0.0,0.0,3.5493,3.5493,3.552,3.5574,3.563,3.5703,3.5831,3.5918,3.5996,0.0,0.0,0.0,0.0,0.0,0.0,2.3537,2.4485,2.7161,3.4375,3.3774,3.2011,3.0253,2.6513,2.188,1.6215,0.0,0.0,0.0,0.0,0.0,0.0,0.0,0.0,0.0,0.0,0.0,0.0,0.0,0.0,0.0,0.0,0.0,0.0,0.0,0.0,0.0,0.0,0.0,0.0,0.0,0.0,0.0,0.0,0.0,0.0,0.0,0.0,0.0,0.0,0.0,0.0,3.2462,3.4004,0.0,0.0,3.9465,4.042,4.0763,3.9815,3.8841,3.9131,3.842,3.7272,3.5991,0.0,0.0,3.361,3.3284,3.3284,3.3284,0.0,0.0,0.0,0.0,0.0,0.0,0.0,0.0,0.0,0.0,0.0,0.0,0.0,0.0,0.0,0.0,0.0,3.7605,3.7202,3.6712,3.6036,3.5778,3.5702,3.581,3.5503,3.5383,3.5493,3.5493,3.5493,3.5493,3.5493,3.5493,3.5493,3.5493,0.0,0.0,3.5493,3.5522,3.5562,3.559,3.569,3.5836,3.5877,3.5945,3.5996,0.0,0.0,0.0,0.0,0.0,1.8429,2.4111,2.4904,2.7593,3.5166,3.4621,3.3248,3.2544,2.8133,2.2946,1.7263,1.5811,0.0,0.0,0.0,0.0,0.0,0.0,0.0,0.0,0.0,0.0,0.0,0.0,0.0,0.0,0.0,0.0,0.0,0.0,0.0,0.0,0.0,0.0,0.0,0.0,0.0,0.0,0.0,0.0,0.0,0.0,0.0,0.0,0.0,0.0,0.0,0.0,0.0,0.0,0.0,3.8956,3.9929,4.0636,3.9806,3.885,3.9189,3.8679,3.7798,0.0,0.0,0.0,3.4156,3.3807,3.3807,3.3807,3.3807,3.3807,0.0,0.0,0.0,0.0,0.0,0.0,0.0,0.0,0.0,0.0,0.0,0.0,0.0,0.0,0.0,3.8921,3.823,3.7546,3.6936,3.6611,3.6293,3.6064,3.5686,3.5493,3.5493,3.5493,3.5493,3.5493,3.5493,3.5493,3.5493,3.5493,0.0,0.0,3.5515,3.5585,3.563,3.5666,3.5781,3.5903,3.5916,3.5951,3.5996,0.0,0.0,0.0,0.0,0.0,0.0,2.3431,2.5602,2.8543,3.3751,3.2975,3.1617,3.0812,2.5362,2.1394,2.0522,1.7293,0.0,0.0,0.0,0.0,0.0,0.0,0.0,0.0,0.0,0.0,0.0,0.0,0.0,0.0,0.0,0.0,0.0,0.0,0.0,0.0,0.0,0.0,0.0,0.0,0.0,0.0,0.0,0.0,0.0,0.0,0.0,0.0,0.0,0.0,0.0,0.0,0.0,0.0,0.0,3.8919,3.9258,4.1644,4.1111,3.9882,3.9882,3.9294,3.8285,0.0,0.0,0.0,3.4156,3.3807,3.3807,3.3807,3.3807,3.3807,3.3807,0.0,0.0,0.0,0.0,0.0,0.0,0.0,0.0,0.0,0.0,0.0,0.0,0.0,0.0,4.0081,3.9572,3.8358,3.6381,3.6558,3.6301,3.5512,3.5493,3.5493,3.5493,3.5493,3.5493,3.5493,3.5493,3.5493,0.0,0.0,0.0,0.0,3.5611,3.5648,3.571,3.5841,3.59,3.5907,3.5974,3.5996,3.5996,0.0,0.0,0.0,0.0,0.0,0.0,0.0,2.1636,2.4011,2.8651,2.8254,2.7915,2.8949,2.4664,2.1393,2.0639,1.7337,0.0,0.0,0.0,0.0,0.0,0.0,0.0,0.0,0.0,2.1542,2.1751,2.2669,2.3286,0.0,0.0,0.0,0.0,0.0,0.0,0.0,0.0,0.0,0.0,0.0,0.0,0.0,0.0,0.0,0.0,0.0,0.0,0.0,0.0,0.0,0.0,0.0,0.0,0.0,3.5556,3.7058,3.7918,3.8138,3.823,3.812,3.7569,3.7239,3.682,3.5943,0.0,0.0,0.0,3.3928,3.3807,3.3807,3.3807,3.4174,3.5312,0.0,0.0,0.0,0.0,0.0,0.0,0.0,0.0,0.0,0.0,0.0,0.0,0.0,0.0,4.0375,4.0207,3.9588,3.8393,3.7286,3.6584,3.6334,3.5776,3.5493,3.5493,3.5493,3.5493,3.5493,3.5493,3.5493,0.0,0.0,0.0,0.0,3.5646,3.5736,3.5841,3.5877,3.5938,3.5973,3.5996,3.5996,3.5996,0.0,0.0,0.0,0.0,0.0,0.0,0.0,1.9355,2.1126,2.4553,2.4219,2.4456,2.6601,2.2626,2.0022,2.0547,1.7669,0.0,0.0,0.0,0.0,0.0,0.0,0.0,0.0,2.1462,2.2701,2.4497,2.5263,2.6131,2.71,2.6467,2.5086,0.0,0.0,0.0,0.0,0.0,0.0,0.0,0.0,0.0,2.3722,0.0,0.0,0.0,0.0,0.0,0.0,0.0,0.0,0.0,0.0,0.0,0.0,0.0,3.5577,3.6877,0.0,3.689,3.6927,3.6431,3.638,0.0,0.0,0.0,0.0,0.0,0.0,3.4136,3.4136,3.3852,3.4043,3.5309,3.5264,0.0,0.0,0.0,0.0,0.0,0.0,0.0,0.0,0.0,0.0,0.0,0.0,0.0,4.1008,4.0392,3.9662,3.8834,3.7757,3.7026,3.6699,3.5911,3.5493,3.5493,3.5493,3.5493,3.5493,3.5493,3.5515,0.0,0.0,0.0,0.0,3.5768,3.5845,3.5942,3.5942,3.5953,3.5996,3.5996,3.5996,3.5996,0.0,0.0,0.0,0.0,0.0,0.0,0.0,1.8464,1.9622,2.1308,2.082,2.1211,2.3594,1.9512,1.7598,2.0019,0.0,0.0,0.0,0.0,0.0,0.0,0.0,0.0,0.0,2.1474,2.3612,2.805,2.8163,2.9344,3.1415,3.1194,2.8854,2.487,2.4271,2.2514,1.9984,0.0,0.0,0.0,0.0,2.3299,0.0,0.0,0.0,0.0,0.0,0.0,0.0,0.0,0.0,0.0,0.0,0.0,0.0,0.0,0.0,0.0,0.0,3.6757,3.626,3.6205,3.635,3.636,0.0,0.0,0.0,0.0,0.0,0.0,0.0,3.3995,3.3629,3.4358,0.0,0.0,0.0,0.0,0.0,0.0,0.0,0.0,0.0,0.0,0.0,0.0,0.0,0.0,4.1816,4.0315,3.9046,3.8123,3.8027,3.7546,3.6622,3.5872,3.5493,3.5493,3.5493,3.5507,3.5501,3.5501,3.5534,0.0,0.0,0.0,0.0,3.5907,3.5947,3.5996,3.5996,3.5996,3.5996,3.5996,3.5996,3.5996,0.0,0.0,0.0,0.0,0.0,0.0,0.0,0.0,0.0,0.0,1.7734,1.7832,1.8437,1.6836,1.5957,0.0,0.0,0.0,0.0,0.0,0.0,0.0,0.0,0.0,0.0,2.2729,2.4358,2.5461,2.891,3.0983,3.1723,3.2458,3.0996,2.7669,2.6477,2.3725,1.9984,1.9858,0.0,0.0,2.2299,2.3299,0.0,0.0,0.0,0.0,2.6054,2.6367,0.0,0.0,0.0,0.0,0.0,0.0,0.0,0.0,3.3204,3.3181,3.4108,0.0,3.5852,3.5233,3.5108,3.516,0.0,0.0,0.0,0.0,0.0,0.0,0.0,0.0,0.0,0.0,0.0,0.0,0.0,0.0,0.0,0.0,0.0,0.0,0.0,0.0,0.0,0.0,0.0,4.3143,4.1873,4.1431,4.0527,3.9027,3.8354,3.7296,3.5815,3.5589,3.5493,3.5493,3.5493,3.5534,3.5577,3.5577,3.5611,0.0,0.0,0.0,3.5903,3.597,3.5995,3.5996,3.5996,3.5996,3.5996,3.5996,3.5996,3.5996,0.0,0.0,0.0,0.0,0.0,0.0,0.0,0.0,0.0,0.0,0.0,0.0,0.0,0.0,0.0,0.0,0.0,0.0,0.0,0.0,0.0,0.0,0.0,0.0,2.0119,2.2552,2.4817,2.6847,3.0478,3.2903,3.4127,3.5038,3.3175,2.8933,2.5711,2.2719,2.0162,2.0461,2.1327,2.2555,2.2966,0.0,0.0,0.0,0.0,0.0,2.6675,2.7072,0.0,3.1216,3.2828,3.3523,0.0,0.0,0.0,0.0,3.3451,3.2654,3.353,3.4529,3.5241,3.4807,3.4793,3.5021,3.5528,0.0,0.0,0.0,0.0,0.0,0.0,0.0,0.0,0.0,0.0,0.0,0.0,0.0,0.0,0.0,0.0,0.0,0.0,0.0,0.0,0.0,0.0,4.3893,4.3008,4.2604,4.1431,3.9373,3.8834,3.7777,3.6084,3.568,3.5493,3.5507,3.5528,3.5554,3.5591,3.563,3.5702,0.0,0.0,0.0,3.5948,3.5995,3.5996,3.5996,3.5996,3.5996,3.5996,3.5996,3.5996,3.5996,0.0,0.0,0.0,0.0,0.0,0.0,0.0,0.0,0.0,0.0,0.0,0.0,0.0,0.0,0.0,0.0,0.0,0.0,0.0,0.0,0.0,0.0,0.0,0.0,1.9931,2.1859,2.4919,2.9106,3.2061,3.463,3.6823,3.794,3.5352,2.955,2.4519,2.162,2.0523,2.1081,2.185,2.2754,2.3571,0.0,0.0,0.0,0.0,0.0,0.0,0.0,0.0,3.2455,3.4237,3.4996,3.5086,0.0,0.0,0.0,0.0,0.0,3.4064,3.4601,3.4794,3.4661,3.4999,3.5499,3.6052,0.0,0.0,0.0,0.0,0.0,0.0,0.0,0.0,0.0,0.0,0.0,0.0,0.0,0.0,0.0,0.0,0.0,0.0,0.0,0.0,0.0,0.0,4.4432,4.4316,4.3643,4.2181,3.9758,3.9546,3.8642,3.693,3.5968,3.552,3.5528,3.5566,3.5611,3.565,3.5709,3.5802,3.5913,0.0,0.0,3.5996,3.5996,3.5996,3.5996,3.5996,3.5996,3.5996,3.5996,3.5996,3.5996,0.0,0.0,0.0,0.0,0.0,0.0,0.0,0.0,0.0,0.0,0.0,0.0,0.0,0.0,0.0,0.0,0.0,0.0,0.0,0.0,0.0,0.0,0.0,0.0,0.0,2.1999,2.4205,2.7217,3.2022,3.5222,3.6859,3.9704,3.7416,3.0804,2.7355,2.4139,2.1273,2.0716,2.1111,2.216,0.0,0.0,0.0,0.0,0.0,0.0,0.0,0.0,0.0,3.2352,3.4097,3.5161,3.3737,0.0,0.0,0.0,0.0,0.0,3.4487,3.535,3.5211,3.4462,3.536,3.631,0.0,0.0,0.0,0.0,0.0,0.0,0.0,0.0,0.0,0.0,0.0,0.0,0.0,0.0,0.0,0.0,0.0,0.0,0.0,0.0,0.0,0.0,0.0,4.5066,4.4335,4.4182,4.3297,4.147,4.07,3.9508,3.7815,3.6276,3.5534,3.5579,3.56,3.5702,3.586,3.5869,3.5916,3.5976,0.0,3.5996,3.5996,3.5996,3.5996,3.5996,3.5996,3.5996,3.5996,3.5996,3.5996,3.5996,0.0,0.0,0.0,0.0,0.0,0.0,0.0,0.0,0.0,0.0,0.0,0.0,0.0,0.0,0.0,0.0,0.0,0.0,0.0,0.0,0.0,0.0,0.0,0.0,0.0,2.3259,2.6318,2.9279,3.4316,3.7479,3.8827,3.7966,3.4657,2.9344,2.6357,2.3741,2.1531,2.1308,2.1171,2.1261,0.0,0.0,0.0,0.0,0.0,0.0,0.0,0.0,0.0,0.0,3.2679,3.3949,3.3141,0.0,0.0,0.0,0.0,0.0,3.3236,3.4217,3.4665,3.4975,3.623,0.0,0.0,0.0,0.0,0.0,0.0,0.0,0.0,0.0,0.0,0.0,0.0,0.0,0.0,0.0,0.0,0.0,0.0,0.0,0.0,0.0,0.0,0.0,0.0,0.0,4.5009,4.4989,4.422,4.2566,4.1662,4.0434,3.8756,3.7571,3.6493,3.5591,3.5698,3.5811,3.5903,3.5942,3.5973,3.5996,0.0,3.5996,3.5996,3.5996,3.5996,3.5996,3.5996,3.5996,3.5996,3.5996,3.5996,3.5996,0.0,0.0,0.0,0.0,0.0,0.0,0.0,0.0,0.0,0.0,0.0,0.0,0.0,0.0,0.0,0.0,0.0,0.0,0.0,0.0,0.0,0.0,0.0,0.0,0.0,2.5036,2.8693,3.2368,3.6749,3.9504,4.061,3.6787,3.2595,2.8196,2.5823,2.3579,2.1602,2.1589,2.1109,2.0601,0.0,0.0,0.0,0.0,0.0,0.0,0.0,0.0,0.0,0.0,0.0,0.0,0.0,0.0,0.0,3.2891,3.1872,3.1053,3.2672,3.3446,3.416,3.5735,0.0,0.0,0.0,0.0,0.0,0.0,0.0,0.0,0.0,0.0,0.0,0.0,0.0,0.0,0.0,0.0,0.0,0.0,0.0,0.0,0.0,0.0,0.0,0.0,0.0,0.0,4.5586,4.5586,4.4913,4.3431,4.2547,4.1316,3.9669,3.8905,3.7754,3.6267,3.6211,3.6199,3.6211,3.6072,3.5996,3.5996,3.5996,3.5996,3.5996,3.5996,3.5996,3.5996,3.5996,3.5996,3.5996,3.5996,3.5996,3.5996,0.0,0.0,0.0,0.0,0.0,0.0,0.0,0.0,0.0,0.0,0.0,0.0,0.0,0.0,0.0,0.0,0.0,0.0,0.0,0.0,0.0,0.0,0.0,0.0,0.0,2.714,3.0009,3.5284,3.8183,4.0145,4.1013,3.8711,3.4604,2.9165,2.8348,2.5596,2.1545,2.0764,2.0375,2.0594,2.3947,0.0,0.0,0.0,0.0,0.0,0.0,0.0,0.0,0.0,0.0,0.0,0.0,0.0,3.2891,3.2891,3.2295,3.2084,3.4308,3.4377,3.4329,3.6556,0.0,0.0,0.0,0.0,0.0,0.0,0.0,0.0,0.0,0.0,0.0,0.0,0.0,0.0,0.0,0.0,0.0,0.0,0.0,0.0,0.0,0.0,0.0,0.0,0.0,0.0,4.5586,4.5586,4.5163,4.4239,4.3431,4.2178,4.0442,3.9809,3.9059,3.8198,3.7464,3.7133,3.7168,3.6367,3.5996,3.5996,3.5996,3.5996,3.5996,3.5996,3.5996,3.5996,3.5996,3.5996,3.5996,3.5996,3.5996,3.5996,0.0,0.0,0.0,0.0,0.0,0.0,0.0,0.0,0.0,0.0,0.0,0.0,0.0,0.0,0.0,0.0,0.0,0.0,0.0,0.0,0.0,0.0,0.0,2.1513,2.6049,2.8837,3.2716,3.7695,3.9853,4.0463,3.9588,3.6182,3.2637,2.9021,2.6895,2.4933,2.3082,2.1121,2.15,2.3522,2.4785,2.5301,0.0,0.0,0.0,0.0,0.0,0.0,0.0,0.0,3.2343,3.3306,3.1826,3.2429,3.3506,3.2468,3.1948,3.1924,3.3004,3.3392,3.3996,3.6106,0.0,0.0,0.0,0.0,0.0,0.0,0.0,0.0,0.0,0.0,0.0,0.0,0.0,0.0,0.0,0.0,0.0,0.0,0.0,0.0,0.0,0.0,0.0,0.0,0.0,0.0,4.5586,4.5586,4.5201,4.4335,4.3559,4.2628,4.1505,4.0804,4.0368,4.0112,3.8726,3.8084,3.8105,3.7773,3.7324,3.6816,3.6816,3.6504,3.5996,3.5996,3.5996,3.5996,3.5996,3.5996,3.5996,3.5948,3.5942,3.5918,0.0,0.0,0.0,0.0,0.0,0.0,0.0,0.0,0.0,0.0,0.0,0.0,0.0,0.0,0.0,0.0,0.0,0.0,0.0,0.0,0.0,0.0,0.0,2.094,2.4917,2.8962,3.3194,3.7559,3.9782,3.9736,3.753,3.3907,3.0889,0.0,0.0,0.0,0.0,0.0,0.0,0.0,2.4949,2.503,0.0,0.0,0.0,0.0,0.0,0.0,0.0,0.0,3.1426,3.2615,3.2153,3.2609,3.3204,3.2648,3.2679,3.2864,3.274,3.3204,3.4167,0.0,0.0,0.0,0.0,0.0,0.0,0.0,0.0,0.0,0.0,0.0,0.0,0.0,0.0,0.0,0.0,0.0,0.0,0.0,0.0,0.0,0.0,0.0,0.0,0.0,0.0,0.0,0.0,4.5398,4.4839,4.3987,4.3234,4.2468,4.1674,4.1226,4.1052,4.1129,3.996,3.9277,3.9004,3.873,3.8262,3.7715,3.7715,3.7226,3.6426,3.6719,3.666,3.6387,3.6113,3.5996,3.5996,3.5918,3.5903,3.5873,0.0,0.0,0.0,0.0,0.0,0.0,0.0,0.0,0.0,0.0,0.0,0.0,0.0,0.0,0.0,0.0,0.0,0.0,1.4611,1.4276,1.4491,1.5371,0.0,1.9759,2.3573,2.7273,3.0919,3.4479,3.7672,3.7792,3.4899,3.2522,0.0,0.0,0.0,0.0,0.0,0.0,0.0,0.0,2.4208,2.4454,2.4601,0.0,0.0,0.0,0.0,0.0,0.0,0.0,2.8699,2.7637,3.3577,3.3588,3.1781,3.364,3.4795,3.5235,3.4094,3.4243,0.0,0.0,0.0,0.0,0.0,0.0,0.0,0.0,0.0,0.0,0.0,0.0,0.0,0.0,0.0,0.0,0.0,0.0,0.0,0.0,0.0,0.0,0.0,0.0,0.0,0.0,0.0,0.0,0.0,4.497,4.4099,4.3233,4.249,4.1655,4.0703,4.0909,4.0996,4.0996,4.1149,4.0742,3.9883,3.9023,3.8613,3.8613,3.8613,3.8125,3.7383,3.8242,3.8086,3.7207,3.6348,3.6016,3.5996,3.5916,3.59,3.5864,0.0,0.0,0.0,0.0,0.0,0.0,0.0,0.0,0.0,0.0,0.0,0.0,0.0,0.0,0.0,0.0,0.0,0.0,1.4329,1.3966,1.4354,1.5691,1.7103,1.8643,2.0301,2.3477,2.8163,3.4384,3.6341,3.5554,3.212,0.0,0.0,0.0,0.0,0.0,0.0,0.0,0.0,0.0,2.5886,2.5446,2.4707,0.0,0.0,0.0,0.0,0.0,0.0,0.0,0.0,0.0,3.0811,3.19,3.2344,3.2856,3.3215,3.3337,3.2819,3.3913,0.0,0.0,0.0,0.0,0.0,0.0,0.0,0.0,0.0,0.0,0.0,0.0,0.0,0.0,0.0,0.0,0.0,0.0,0.0,0.0,0.0,0.0,0.0,0.0,0.0,0.0,0.0,0.0,0.0,4.5544,4.4781,4.3374,4.3227,4.244,4.0935,4.1052,4.1149,4.1149,4.1171,4.1055,4.0801,4.0547,4.0098,3.9512,3.9512,3.9023,3.8223,3.8496,3.8086,3.7266,3.7012,3.6501,3.5916,3.5807,3.5723,3.5676,0.0,0.0,0.0,0.0,0.0,0.0,0.0,0.0,1.4813,1.4813,1.4766,1.4737,0.0,0.0,0.0,1.4624,1.4444,1.4253,1.4078,1.3766,1.4244,1.5721,1.6812,1.8268,2.0213,2.2598,2.576,2.9709,3.1956,3.1864,0.0,0.0,0.0,0.0,0.0,0.0,0.0,0.0,0.0,0.0,2.7378,2.6543,2.5011,0.0,0.0,0.0,0.0,0.0,0.0,0.0,0.0,0.0,2.8692,2.9706,3.0639,3.1984,3.3102,3.4015,3.4488,0.0,0.0,0.0,0.0,0.0,0.0,0.0,0.0,0.0,0.0,0.0,0.0,0.0,0.0,0.0,0.0,0.0,0.0,0.0,0.0,0.0,0.0,0.0,0.0,0.0,0.0,0.0,0.0,0.0,0.0,4.5545,4.4773,4.3526,4.3244,4.2438,4.1016,4.1128,4.1191,4.1191,4.1191,4.1191,4.1191,4.1191,4.0918,4.0391,4.0059,3.9805,3.957,3.8887,3.8496,3.8301,3.7949,3.7436,3.6891,3.6767,3.6673,3.6538,0.0,0.0,0.0,0.0,0.0,0.0,0.0,1.4756,1.4687,1.4687,1.4589,1.4488,0.0,0.0,0.0,1.4476,1.4307,1.411,1.3899,1.3691,1.4195,1.5547,1.658,1.8724,2.2226,2.3477,2.3568,2.2496,2.5913,0.0,0.0,0.0,0.0,0.0,0.0,0.0,0.0,0.0,0.0,0.0,2.8426,2.7527,2.5625,2.5458,0.0,0.0,0.0,0.0,0.0,0.0,0.0,0.0,2.716,2.7443,2.766,3.096,3.3693,3.5975,3.7529,0.0,0.0,0.0,0.0,0.0,0.0,0.0,0.0,0.0,0.0,0.0,0.0,0.0,0.0,0.0,0.0,0.0,0.0,0.0,0.0,0.0,0.0,0.0,0.0,0.0,0.0,0.0,0.0,0.0,0.0,4.5131,4.437,4.3611,4.2827,4.1969,4.1023,4.1149,4.1191,4.1191,4.1191,4.1191,4.1191,4.1191,4.1191,4.1152,4.0351,4.0469,4.1074,3.9492,3.9258,3.9824,3.9004,3.8563,3.838,3.8312,3.8209,3.7967,0.0,0.0,0.0,0.0,0.0,0.0,1.4589,1.4567,1.4545,1.4545,1.4511,1.4488,1.4488,1.4488,0.0,1.4282,1.4214,1.4038,1.3676,1.3615,1.4195,1.5547,1.8595,2.0873,2.2276,2.1404,2.0935,2.0891,2.371,0.0,0.0,0.0,0.0,0.0,0.0,0.0,0.0,0.0,0.0,0.0,0.0,2.7292,2.7378,2.5941,2.5114,0.0,0.0,0.0,0.0,0.0,0.0,0.0,2.6578,2.7045,2.74,2.9399,3.1736,3.3825,3.4806,3.7497,0.0,0.0,0.0,0.0,0.0,0.0,0.0,0.0,0.0,0.0,0.0,0.0,0.0,0.0,0.0,0.0,0.0,0.0,0.0,0.0,0.0,0.0,0.0,0.0,0.0,0.0,0.0,0.0,4.5808,4.5104,4.4362,4.3626,4.2827,4.1992,4.117,4.1191,4.1191,0.0,4.1191,4.1191,4.1191,4.1191,4.1191,4.1191,4.0996,4.1035,4.1172,4.0801,4.0351,3.9863,3.9576,3.9009,3.8312,3.82,3.809,3.7987,0.0,0.0,0.0,0.0,0.0,0.0,0.0,0.0,1.4488,1.4488,1.4488,1.4488,1.4488,1.4488,0.0,0.0,1.4188,1.4024,1.3632,1.3584,1.4366,1.6055,1.9391,2.0856,2.0162,1.9343,1.9155,1.958,2.059,0.0,0.0,0.0,0.0,0.0,0.0,0.0,0.0,0.0,0.0,0.0,0.0,0.0,0.0,0.0,2.4783,2.3782,2.2458,0.0,0.0,0.0,0.0,0.0,0.0,0.0,2.6042,2.804,3.0354,3.2736,3.5132,0.0,0.0,0.0,0.0,0.0,0.0,0.0,0.0,0.0,0.0,0.0,0.0,0.0,0.0,0.0,0.0,0.0,0.0,0.0,0.0,0.0,0.0,0.0,0.0,0.0,0.0,0.0,0.0,4.5677,4.5847,4.5473,4.4773,4.3676,4.324,4.2441,4.1211,4.1191,4.1191,4.1191,4.1191,4.1191,4.1191,4.1191,4.1191,4.1191,4.1191,4.1191,4.1191,4.1191,4.0937,4.0508,4.0369,3.9984,3.9482,3.9372,3.9277,3.9142,0.0,0.0,0.0,0.0,0.0,0.0,0.0,0.0,0.0,1.4499,1.4488,1.4488,1.4488,1.4488,1.4411,0.0,0.0,0.0,1.3676,1.3767,1.4727,1.672,1.9301,1.994,1.8263,1.7974,1.8262,1.9088,1.836,0.0,0.0,0.0,0.0,0.0,0.0,0.0,0.0,0.0,0.0,0.0,0.0,0.0,0.0,0.0,0.0,0.0,2.1924,2.2279,2.3123,2.3095,0.0,0.0,0.0,0.0,2.4612,2.6759,2.9182,3.1916,3.5312,0.0,0.0,0.0,0.0,0.0,0.0,0.0,0.0,0.0,0.0,0.0,0.0,0.0,0.0,0.0,0.0,0.0,0.0,0.0,0.0,0.0,0.0,0.0,0.0,0.0,0.0,0.0,0.0,4.5688,4.5872,4.5754,4.5085,4.3729,4.3554,4.2734,4.1211,4.1191,4.1191,4.1191,4.1191,4.1191,4.1191,4.1191,4.1191,4.1191,4.1191,4.1191,4.1191,4.1191,4.1191,4.115,4.1023,4.0896,4.0779,4.0696,4.0615,4.0392,0.0,0.0,0.0,0.0,0.0,0.0,0.0,0.0,0.0,0.0,1.4488,1.4488,1.4488,1.4488,1.4411,1.4232,1.4362,1.4282,1.3899,0.0,0.0,1.7148,1.8208,1.9143,1.9956,1.8709,1.8913,2.0607,0.0,0.0,0.0,0.0,0.0,0.0,0.0,0.0,0.0,0.0,0.0,0.0,0.0,0.0,0.0,0.0,0.0,0.0,2.0628,2.1092,2.2402,2.2234,2.3212,0.0,0.0,0.0,2.4392,2.5421,2.7915,3.0485,0.0,0.0,0.0,0.0,0.0,0.0,0.0,0.0,0.0,0.0,0.0,0.0,0.0,0.0,0.0,0.0,0.0,0.0,0.0,0.0,0.0,0.0,0.0,0.0,0.0,0.0,0.0,0.0,4.5586,4.5665,4.5803,4.521,4.4487,4.3634,4.2945,4.2129,4.1211,4.1191,4.1191,4.1191,4.1191,4.1191,4.1191,4.1191,4.1191,4.1191,4.1191,4.1191,4.1191,4.1191,4.1128,4.1,4.0877,4.077,4.0696,4.0568,4.0519,4.0469,0.0,0.0,0.0,0.0,0.0,0.0,0.0,0.0,0.0,0.0,0.0,1.4603,1.4603,1.4545,1.4411,1.4232,1.4387,1.4375,1.4096,1.4651,1.53,1.5972,1.6747,1.7219,1.7315,1.7181,1.8,1.9883,0.0,0.0,0.0,2.9018,3.0845,0.0,0.0,0.0,0.0,0.0,0.0,0.0,0.0,0.0,0.0,0.0,0.0,0.0,0.0,2.0564,2.1632,2.2041,2.297,2.3989,2.4279,0.0,0.0,0.0,2.5695,0.0,3.2504,0.0,0.0,0.0,0.0,0.0,0.0,0.0,0.0,0.0,0.0,0.0,0.0,0.0,0.0,0.0,0.0,0.0,0.0,0.0,0.0,0.0,0.0,0.0,0.0,0.0,0.0,0.0,4.5586,4.5658,4.5839,4.5123,4.439,4.3681,4.2831,4.2012,4.1211,4.1191,4.1191,4.1191,4.1191,4.1191,4.1191,4.1191,4.1191,4.1191,4.1191,4.1191,4.1191,4.1126,4.1052,4.0988,4.0816,4.074,4.068,4.0545,4.0489,4.0489,0.0,0.0,0.0,0.0,0.0,0.0,0.0,0.0,0.0,0.0,0.0,1.4747,1.4688,0.0,0.0,0.0,1.4411,1.4441,1.4282,1.4661,1.4866,1.4866,1.5457,1.5462,1.4808,1.5818,1.7159,0.0,0.0,0.0,2.8705,2.9223,3.086,0.0,3.2347,0.0,0.0,0.0,0.0,0.0,0.0,0.0,0.0,0.0,0.0,0.0,0.0,0.0,2.2721,2.2451,2.2899,2.3652,2.4098,2.383,0.0,0.0,0.0,0.0,0.0,0.0,0.0,0.0,0.0,0.0,0.0,0.0,0.0,0.0,0.0,0.0,0.0,0.0,0.0,0.0,0.0,0.0,0.0,0.0,0.0,0.0,0.0,0.0,0.0,0.0,0.0,0.0,4.5635,4.5722,4.589,4.5145,4.4406,4.3711,4.2851,4.2012,4.1211,4.1191,4.1191,4.1191,4.1191,4.1191,4.1191,4.1191,4.1191,4.1191,4.1191,4.1191,4.1191,4.1052,4.0988,4.092,4.0781,4.068,4.0649,4.0549,4.0489,4.0489,0.0,0.0,0.0,0.0,0.0,0.0,0.0,0.0,0.0,0.0,0.0,1.4832,1.4698,1.4678,1.4635,1.4499,1.4488,1.4506,1.4476,1.4513,1.4538,1.4538,1.4574,0.0,1.426,1.5713,1.6931,0.0,0.0,0.0,2.7901,2.8924,3.1526,3.5291,3.399,3.2449,3.0581,0.0,0.0,0.0,0.0,0.0,0.0,0.0,0.0,0.0,0.0,0.0,0.0,2.364,2.3069,2.3769,2.3609,2.3521,2.3305,0.0,0.0,0.0,0.0,0.0,0.0,0.0,0.0,0.0,0.0,0.0,0.0,0.0,0.0,0.0,0.0,0.0,0.0,0.0,0.0,0.0,0.0,0.0,0.0,0.0,0.0,0.0,0.0,0.0,0.0,0.0,4.5723,4.582,4.589,4.5208,4.4468,4.3711,4.2851,4.2012,4.1211,4.1191,4.1191,4.1191,4.1191,4.1191,4.1191,4.1191,4.1191,4.1191,4.1191,4.1191,4.1191,4.1052,4.092,4.0793,4.0721,4.0623,4.0504,4.0504,4.0489,4.0489,0.0,0.0,0.0,0.0,0.0,0.0,0.0,0.0,0.0,0.0,0.0,0.0,0.0,1.4785,1.4687,1.4635,1.4556,1.4488,1.4488,1.4488,1.4488,1.4488,1.4488,1.4464,1.4387,1.5941,0.0,0.0,0.0,2.2191,2.6303,2.8108,2.9961,3.1786,3.1808,3.188,3.1656,2.693,0.0,0.0,0.0,0.0,0.0,0.0,0.0,0.0,0.0,0.0,0.0,0.0,2.5855,2.4635,2.3921,0.0,0.0,0.0,0.0,0.0,0.0,0.0,0.0,0.0,0.0,0.0,0.0,0.0,0.0,0.0,0.0,0.0,0.0,0.0,0.0,0.0,0.0,0.0,0.0,0.0,0.0,0.0,0.0,0.0,0.0,0.0,0.0,0.0,0.0,4.5736,4.589,4.5153,4.467,4.4531,4.3144,4.2012,4.1211,4.1191,4.1191,4.1191,4.1191,4.1191,4.1191,4.1191,4.1191,4.1191,4.1191,4.115,4.1055,4.0925,4.0813,4.0721,4.0604,4.053,4.0489,4.0489,4.0489,4.0489,0.0,0.0,0.0,1.5217,0.0,1.5229,1.5229,1.5207,0.0,0.0,0.0,0.0,0.0,0.0,0.0,1.4645,1.4795,1.4793,1.4524,1.4791,1.4844,1.4578,1.4622,1.4624,1.4624,0.0,0.0,0.0,0.0,0.0,0.0,0.0,2.8521,2.978,2.9561,0.0,0.0,0.0,0.0,2.7283,0.0,0.0,3.4141,0.0,0.0,0.0,0.0,0.0,0.0,0.0,0.0,0.0,0.0,0.0,0.0,0.0,0.0,0.0,0.0,0.0,0.0,0.0,0.0,0.0,0.0,0.0,0.0,0.0,0.0,0.0,0.0,0.0,0.0,0.0,0.0,0.0,0.0,0.0,0.0,0.0,0.0,0.0,0.0,0.0,0.0,0.0,0.0,0.0,4.589,4.5153,4.4685,4.457,4.2891,4.1875,4.1601,4.1328,4.1191,4.1191,4.1191,4.1191,4.1191,4.1191,4.1191,4.1191,4.115,4.108,4.0992,4.0857,4.0771,4.068,4.0545,4.0489,4.0489,4.0489,4.0489,4.0489,0.0,1.5302,1.5299,1.5307,1.5315,1.5336,1.5336,1.5278,0.0,0.0,0.0,0.0,0.0,0.0,0.0,1.4596,1.5319,1.5429,1.4602,1.5392,1.5562,1.481,0.0,0.0,0.0,0.0,0.0,0.0,1.9582,0.0,0.0,0.0,2.7409,0.0,2.7589,2.8909,3.2602,0.0,0.0,3.0725,0.0,3.5218,3.4045,0.0,0.0,0.0,3.9931,3.8507,0.0,0.0,0.0,0.0,0.0,0.0,0.0,0.0,0.0,0.0,0.0,0.0,0.0,0.0,0.0,0.0,0.0,0.0,0.0,0.0,0.0,0.0,0.0,0.0,0.0,0.0,0.0,0.0,0.0,0.0,0.0,0.0,0.0,0.0,0.0,0.0,0.0,0.0,4.5723,4.5832,4.589,4.5234,4.4491,4.3769,4.2168,4.166,4.2383,4.1621,4.1211,4.1191,4.1191,4.1191,4.1191,4.1191,4.1191,4.1191,4.1055,4.0996,4.0988,4.0857,4.0762,4.068,4.0545,4.0489,4.0489,4.0489,4.0489,4.0489,1.5251,1.5292,1.529,1.5307,1.5771,1.6169,1.6179,1.615,0.0,0.0,0.0,0.0,0.0,0.0,0.0,0.0,1.7151,1.7093,1.5742,1.5903,1.6233,1.664,1.5526,1.546,0.0,0.0,0.0,0.0,0.0,0.0,0.0,0.0,0.0,0.0,2.719,2.7832,2.8236,2.6544,0.0,0.0,3.343,3.6295,0.0,0.0,0.0,0.0,0.0,4.6144,0.0,0.0,3.8392,3.418,0.0,0.0,0.0,0.0,0.0,0.0,2.2092,0.0,0.0,0.0,0.0,0.0,0.0,0.0,0.0,0.0,0.0,0.0,0.0,0.0,0.0,0.0,0.0,0.0,0.0,0.0,0.0,0.0,0.0,0.0,0.0,0.0,0.0,0.0,4.5635,4.5722,4.589,4.5882,4.5506,4.4668,4.4199,4.3457,4.2402,4.2187,4.1777,4.1191,4.1191,4.1191,4.1191,4.1191,4.1191,4.1191,4.1151,4.1026,4.085,4.0762,4.0648,4.0545,4.0519,4.0489,4.0489,4.0489,4.0489,4.0489,1.5776,1.6136,1.6496,1.6859,1.7594,1.8116,1.8082,1.8082,1.8356,0.0,0.0,0.0,0.0,0.0,0.0,0.0,1.8404,1.8266,1.6744,1.6999,1.7292,1.7481,1.6576,1.6524,1.7494,0.0,0.0,0.0,0.0,0.0,0.0,0.0,0.0,0.0,0.0,0.0,0.0,0.0,0.0,0.0,3.4737,0.0,0.0,4.6432,4.8606,0.0,0.0,0.0,4.5182,4.599,4.17,0.0,0.0,0.0,0.0,0.0,0.0,0.0,0.0,0.0,0.0,0.0,0.0,0.0,0.0,0.0,0.0,0.0,0.0,0.0,0.0,0.0,0.0,0.0,0.0,0.0,0.0,0.0,0.0,0.0,0.0,0.0,0.0,4.7375,4.6547,4.5663,4.5586,4.5684,4.589,4.5815,4.5683,4.5547,4.4473,4.3594,4.2949,4.2246,4.166,4.1191,4.1191,4.1191,4.1191,4.1191,4.1191,4.1191,4.1149,4.1026,4.087,4.0742,4.0623,4.0489,4.0489,4.0489,4.0489,4.0489,4.0719,4.0989,0.0,1.743,1.8332,1.9308,2.0138,2.0725,2.0843,2.0773,2.0743,0.0,0.0,0.0,0.0,0.0,0.0,0.0,0.0,1.9264,1.7824,1.8421,1.8552,1.7928,1.7776,1.7792,1.7984,0.0,0.0,0.0,0.0,0.0,0.0,0.0,0.0,0.0,0.0,0.0,0.0,0.0,0.0,3.0121,3.7123,3.9912,0.0,0.0,4.8375,0.0,5.0144,4.874,4.5951,4.9394,4.4816,0.0,0.0,0.0,0.0,0.0,2.5793,0.0,0.0,0.0,0.0,0.0,0.0,0.0,0.0,0.0,0.0,0.0,0.0,0.0,0.0,0.0,0.0,0.0,0.0,0.0,0.0,0.0,0.0,0.0,0.0,0.0,4.8048,4.724,4.6432,4.5663,4.5618,4.5708,4.589,4.5425,4.5508,4.6289,4.3945,4.3008,4.3691,4.2129,4.1289,4.1191,4.1191,4.1191,4.1191,4.1191,4.1191,4.1191,4.1077,4.1,4.0988,4.0791,4.063,4.0519,4.0504,4.0489,4.0508,4.0604,4.1123,4.17,1.7534,1.8261,1.9342,2.0873,2.1843,2.2847,2.4128,2.3764,2.4015,0.0,0.0,0.0,0.0,0.0,0.0,0.0,0.0,0.0,1.9824,1.9254,1.9196,1.975,1.8439,1.835,1.9754,1.928,0.0,0.0,0.0,0.0,0.0,0.0,0.0,0.0,0.0,0.0,0.0,0.0,0.0,3.241,3.5315,0.0,4.3855,4.8625,5.1798,5.3818,5.4472,5.376,5.2222,0.0,4.7067,4.2989,0.0,0.0,0.0,0.0,0.0,0.0,0.0,0.0,0.0,0.0,0.0,0.0,0.0,0.0,0.0,0.0,0.0,0.0,0.0,0.0,0.0,0.0,0.0,0.0,0.0,0.0,0.0,0.0,0.0,0.0,4.7163,4.6355,4.5778,4.5605,4.5738,4.5872,4.5899,4.5991,4.6113,4.6289,4.5117,4.4238,4.3711,4.2676,4.1836,4.1191,4.1191,4.1191,4.1191,4.1191,4.1191,4.1191,4.1171,4.1103,4.0992,4.0836,4.0732,4.0662,4.053,4.0489,4.0585,4.1296,4.1662,4.1893,1.8413,1.9472,2.1008,2.3132,2.4227,2.5335,2.6939,2.6505,0.0,0.0,0.0,0.0,0.0,0.0,0.0,0.0,0.0,0.0,0.0,2.0024,1.9737,2.0285,1.9465,1.96,2.0869,2.0081,2.0062,0.0,0.0,0.0,0.0,0.0,0.0,0.0,0.0,0.0,0.0,0.0,2.6005,2.9717,3.6546,0.0,4.7913,5.1741,5.4241,5.5703,5.5703,5.5184,5.403,5.1048,4.7509,0.0,0.0,4.0046,3.7161,0.0,3.3468,3.4757,0.0,0.0,0.0,3.0471,0.0,0.0,0.0,0.0,0.0,0.0,0.0,0.0,0.0,0.0,0.0,0.0,0.0,0.0,0.0,0.0,0.0,0.0,0.0,0.0,4.6913,4.6105,4.5618,4.5692,4.5828,4.5924,4.5995,4.6198,4.6308,4.6308,4.5449,4.457,4.3711,4.2832,4.1992,4.1191,4.1191,4.1191,4.1191,4.1191,4.1426,4.1777,4.1367,4.1385,4.1668,4.1111,4.1108,4.1382,4.1205,4.1143,4.1258,4.2124,4.2701,4.3047,1.9287,2.0682,2.2525,2.4753,2.6271,2.7653,2.9132,2.9063,0.0,0.0,0.0,0.0,0.0,0.0,0.0,0.0,0.0,0.0,0.0,0.0,2.134,2.1515,2.0735,2.0985,2.2447,2.1062,2.0619,0.0,0.0,0.0,0.0,0.0,0.0,0.0,0.0,0.0,0.0,0.0,0.0,2.9321,0.0,4.4836,4.8259,5.276,5.4376,5.4357,5.5338,5.528,5.4318,5.1606,0.0,4.4662,4.5259,4.3393,0.0,0.0,0.0,0.0,0.0,0.0,0.0,0.0,0.0,3.1975,0.0,0.0,0.0,0.0,0.0,0.0,0.0,0.0,0.0,0.0,0.0,0.0,0.0,0.0,0.0,0.0,0.0,0.0,0.0,4.4987,4.4778,4.5725,4.5123,4.5105,4.605,4.6225,4.6308,4.6308,4.5449,4.457,4.3711,4.2832,4.207,4.1426,4.1269,4.1289,4.1426,4.1269,4.1543,4.2129,4.1484,4.1562,4.2129,4.1504,4.1596,4.2071,4.1911,4.1925,4.2162,4.3008,4.3739,4.422,2.0025,2.1505,2.3003,2.407,2.6795,2.9151,3.0121,3.1448,0.0,0.0,0.0,0.0,0.0,0.0,0.0,0.0,0.0,0.0,2.7399,0.0,0.0,2.589,2.2312,2.21,2.5947,2.2254,2.035,2.0446,0.0,0.0,0.0,0.0,0.0,0.0,2.5601,0.0,0.0,0.0,3.4257,0.0,4.1412,4.0046,0.0,4.6836,4.9644,4.9548,5.4068,5.5645,5.5068,0.0,5.0317,4.8702,0.0,4.3355,0.0,0.0,0.0,0.0,0.0,0.0,0.0,0.0,3.393,0.0,0.0,0.0,0.0,0.0,0.0,0.0,0.0,0.0,0.0,0.0,0.0,0.0,0.0,0.0,0.0,0.0,0.0,0.0,0.0,4.0949,4.1622,4.5506,4.2443,4.2071,4.5894,4.6225,4.6308,4.6308,4.5449,4.457,4.3711,4.2832,4.2344,4.2266,4.1543,4.1562,4.2246,4.1523,4.125,4.1328,4.123,4.125,4.1387,4.1933,4.2128,4.208,4.2017,4.2372,4.3047,4.3855,4.422,4.4393,2.0161,2.1201,2.241,2.3697,2.5031,2.6702,2.9003,3.1112,0.0,0.0,0.0,0.0,0.0,0.0,0.0,0.0,0.0,3.1177,0.0,0.0,0.0,0.0,2.1754,2.16,2.4332,2.1696,2.0542,2.1004,2.0542,0.0,0.0,0.0,0.0,0.0,2.7942,0.0,3.3159,0.0,0.0,0.0,0.0,0.0,0.0,4.8375,5.2837,5.2779,5.4934,5.5703,5.5491,0.0,5.0991,0.0,0.0,0.0,0.0,0.0,0.0,0.0,0.0,0.0,0.0,0.0,0.0,0.0,0.0,0.0,2.7738,0.0,0.0,0.0,0.0,0.0,0.0,0.0,0.0,0.0,0.0,0.0,0.0,0.0,0.0,0.0,0.0,0.0,0.0,0.0,4.2084,4.1608,4.5987,4.6268,4.6308,4.6308,4.5957,4.5332,4.4453,4.4082,4.3652,4.3144,4.2812,4.2832,4.3144,4.2793,4.293,4.3379,4.2871,4.2949,4.3398,4.3199,4.3333,4.3656,4.3587,4.366,4.3893,4.4739,4.5047,4.5105,2.0177,0.0,2.1749,2.2895,2.3752,2.5404,2.8739,3.0565,0.0,0.0,0.0,0.0,3.4269,3.4735,0.0,0.0,0.0,3.4547,0.0,0.0,2.8511,0.0,2.3505,0.0,0.0,2.2447,2.0812,2.1177,0.0,0.0,0.0,0.0,0.0,0.0,0.0,3.2885,3.7585,0.0,0.0,3.7712,3.9227,3.9865,4.0931,5.0125,5.4472,5.5703,5.5703,5.5703,5.5549,5.4626,5.1048,0.0,5.0991,0.0,0.0,0.0,0.0,0.0,3.7257,0.0,0.0,0.0,0.0,0.0,0.0,0.0,0.0,0.0,0.0,0.0,0.0,0.0,0.0,0.0,0.0,0.0,0.0,0.0,0.0,0.0,0.0,0.0,0.0,0.0,0.0,0.0,0.0,4.0416,4.5996,4.6308,4.6308,4.6308,4.6308,4.5879,4.5019,4.5,4.4687,4.4043,4.3808,4.3828,4.4043,4.3808,4.4043,4.4609,4.3965,4.4062,4.4609,4.4219,4.4349,4.4812,4.4966,4.4901,4.4784,4.5389,4.5586,4.5586,2.024,2.0933,0.0,2.1308,2.3904,2.7127,3.0406,0.0,0.0,0.0,0.0,0.0,0.0,0.0,0.0,0.0,0.0,4.4865,4.1068,0.0,3.659,0.0,0.0,2.6197,0.0,0.0,2.11,2.035,0.0,0.0,0.0,0.0,0.0,0.0,0.0,3.3238,3.4934,3.9279,4.4336,4.9349,4.8201,5.0402,5.3977,0.0,5.1414,5.5703,5.5703,0.0,0.0,5.1952,5.0721,0.0,0.0,0.0,0.0,0.0,0.0,0.0,0.0,0.0,0.0,3.2622,0.0,0.0,0.0,0.0,2.9036,0.0,0.0,0.0,0.0,0.0,0.0,0.0,0.0,0.0,0.0,0.0,0.0,0.0,0.0,0.0,0.0,0.0,0.0,0.0,0.0,0.0,4.5859,4.6308,4.6308,4.6308,4.6308,4.5879,4.5019,4.5,4.498,4.4941,4.4101,4.4141,4.4922,4.4082,4.3711,4.373,4.3711,4.3711,4.3808,4.4629,4.4895,4.487,4.557,4.5822,4.5731,4.5632,4.5586,4.5586,0.0,0.0,2.1058,2.0394,2.0964,2.2858,0.0,2.8569,0.0,0.0,0.0,0.0,0.0,0.0,4.2532,0.0,0.0,4.4065,4.1806,3.7959,0.0,0.0,0.0,2.6717,0.0,0.0,0.0,0.0,0.0,0.0,0.0,0.0,0.0,0.0,0.0,3.5129,0.0,0.0,0.0,0.0,0.0,4.9778,5.2313,0.0,0.0,5.5331,5.5599,5.5703,0.0,5.4376,5.2529,5.0779,5.1318,4.9567,4.7432,4.7952,4.774,0.0,0.0,0.0,4.6086,3.7565,0.0,0.0,0.0,0.0,0.0,0.0,0.0,0.0,0.0,0.0,0.0,0.0,0.0,0.0,0.0,0.0,0.0,0.0,0.0,0.0,0.0,0.0,0.0,0.0,0.0,0.0,0.0,4.5996,4.6308,4.6308,4.6308,4.6152,4.5859,4.5859,4.5859,4.5859,4.5566,4.5586,4.5859,4.5566,4.543,4.543,4.543,4.543,4.5449,4.5742,4.5839,4.5813,4.5967,4.5959,4.585,4.5677,4.5586,4.5586,2.2056,0.0,0.0,2.0698,2.0726,0.0,0.0,0.0,0.0,0.0,3.6346,0.0,4.0891,0.0,4.3195,0.0,4.549,4.4724,4.281,4.0179,0.0,4.0118,3.3518,0.0,0.0,0.0,0.0,0.0,0.0,2.1196,0.0,0.0,0.0,0.0,0.0,0.0,0.0,0.0,4.6449,0.0,0.0,5.1423,0.0,0.0,5.4933,5.3983,0.0,5.5703,5.5703,5.5703,5.426,5.276,5.4414,5.2279,4.951,5.1164,5.0471,4.8933,4.774,4.9009,0.0,4.1643,4.0623,0.0,3.1904,0.0,0.0,0.0,0.0,0.0,0.0,0.0,0.0,0.0,0.0,0.0,0.0,0.0,0.0,0.0,0.0,0.0,0.0,0.0,0.0,0.0,0.0,0.0,0.0,0.0,4.5976,4.6289,4.6308,4.6308,4.6308,4.6308,4.6308,4.6308,4.6308,4.6308,4.6308,4.6308,4.6308,4.6308,4.6308,4.6308,4.6308,4.6308,4.6308,4.6289,4.6108,4.5981,4.5872,4.5742,4.5635,4.5586,0.0,0.0,0.0,0.0,2.2978,0.0,0.0,0.0,3.1058,0.0,3.6341,3.9235,4.0866,4.3337,4.5204,4.5957,4.7425,0.0,4.4482,4.3643,0.0,0.0,4.0795,3.9777,4.3143,0.0,0.0,0.0,0.0,0.0,0.0,0.0,0.0,0.0,2.739,0.0,3.897,4.3036,4.8521,5.4566,5.5375,5.537,5.4962,5.5497,5.3958,5.1878,5.4696,5.5703,5.5703,5.5703,5.5703,5.5703,5.5703,5.5703,5.5703,5.5703,5.5703,5.4991,5.1798,5.0952,4.974,4.472,0.0,0.0,0.0,0.0,3.7986,0.0,0.0,0.0,0.0,0.0,0.0,0.0,0.0,0.0,0.0,0.0,0.0,0.0,0.0,0.0,0.0,0.0,0.0,0.0,0.0,0.0,0.0,0.0,4.5215,4.6269,4.6308,4.6308,4.6308,4.6308,4.6308,4.6308,4.6308,4.6308,4.6308,4.6308,4.6308,4.6308,4.6308,4.6308,4.6308,4.6308,4.6308,4.6268,4.6001,4.5899,4.59,4.5808,4.5708,4.5586,2.2769,2.3499,2.4076,0.0,2.2353,2.2799,0.0,0.0,0.0,0.0,3.953,4.2763,4.5396,4.6673,4.7462,4.7682,4.8067,0.0,0.0,0.0,0.0,4.9227,4.3866,4.2124,4.4893,3.6834,0.0,3.0717,0.0,0.0,2.3139,0.0,0.0,0.0,0.0,0.0,3.894,4.2677,4.8217,5.4566,5.5375,5.4178,0.0,0.0,5.3958,5.1878,5.4696,5.5703,5.5703,5.5703,5.5703,5.5703,5.5703,5.5703,5.5703,5.5703,5.5703,5.5511,5.4645,5.4414,5.3491,4.9702,4.7857,4.5918,0.0,0.0,0.0,0.0,0.0,0.0,0.0,0.0,0.0,0.0,0.0,0.0,0.0,0.0,0.0,0.0,0.0,0.0,0.0,0.0,0.0,0.0,0.0,0.0,0.0,0.0,0.0,4.6191,4.6308,4.6308,4.6308,4.6308,4.6308,4.6308,4.6308,4.6308,4.6308,4.6308,4.6308,4.6308,4.6308,4.6308,4.6308,4.6308,4.6308,4.6289,4.6117,4.5963,4.5808,4.5692,4.5618,4.5586,2.3496,0.0,0.0,2.5886,0.0,0.0,2.841,0.0,0.0,3.6416,4.0388,0.0,4.5106,4.7098,4.8306,4.8306,4.8655,0.0,0.0,0.0,0.0,4.9145,4.7652,4.7451,4.8894,4.2412,0.0,3.5026,0.0,0.0,2.411,0.0,0.0,0.0,0.0,3.1774,0.0,4.366,4.907,5.3347,5.5006,0.0,0.0,5.4998,5.4735,5.3529,5.5122,5.5703,5.5703,5.5703,5.5703,5.5703,5.5703,5.5703,5.5703,5.5703,5.5703,5.5703,5.5703,5.5703,5.5241,5.3356,5.2203,5.0581,4.6931,4.6241,4.6144,0.0,0.0,0.0,0.0,0.0,0.0,0.0,0.0,0.0,0.0,0.0,0.0,0.0,0.0,0.0,0.0,0.0,0.0,0.0,0.0,0.0,0.0,0.0,0.0,4.5625,4.5351,4.5527,4.6289,4.5547,4.5547,4.6308,4.6308,4.6308,4.6308,4.6308,4.6308,4.6308,4.6308,4.6308,4.6308,4.6308,4.6268,4.6198,4.6034,4.5859,4.5708,4.5618,4.5586,4.5586,0.0,0.0,0.0,0.0,0.0,0.0,0.0,3.2258,0.0,3.6599,0.0,4.34,4.3508,4.6499,4.8508,4.8618,0.0,4.8545,4.57,4.958,5.0759,4.8021,5.1427,5.3376,5.3376,4.9125,0.0,0.0,0.0,0.0,0.0,0.0,0.0,0.0,0.0,0.0,0.0,4.5247,5.0396,0.0,5.4671,5.5703,5.5703,5.5703,5.5703,5.5703,5.5703,5.5703,5.5703,5.5703,5.5703,5.5703,5.5703,5.5703,5.5703,5.5703,5.5703,5.5703,5.5703,5.5703,5.5703,5.5703,5.5705,5.4824,5.1309,4.9876,4.9328,4.9504,4.58,4.3965,0.0,0.0,0.0,0.0,0.0,0.0,0.0,0.0,0.0,0.0,0.0,0.0,0.0,0.0,0.0,0.0,0.0,0.0,0.0,0.0,0.0,4.4883,4.4277,4.4531,4.5957,0.0,4.4687,4.5957,4.6191,4.6308,4.6308,4.6308,4.6308,4.6308,4.6308,4.6308,4.6308,4.6308,4.6223,4.608,4.589,4.5747,4.5618,4.5603,4.5586,4.5586,0.0,0.0,0.0,0.0,0.0,3.4064,3.5845,3.7421,3.9022,4.0766,4.4668,4.7565,4.83,4.8964,4.9627,5.0306,5.0508,0.0,0.0,0.0,0.0,5.2137,5.3503,5.426,5.426,4.9433,4.4739,0.0,0.0,0.0,0.0,0.0,0.0,0.0,0.0,0.0,4.0202,4.6102,0.0,5.4065,5.525,5.5703,5.5703,5.5703,5.5703,5.5703,5.5703,5.5703,5.5703,5.5703,5.5703,5.5703,5.5703,5.5703,5.5703,5.5703,5.5703,5.5703,5.5703,5.5703,5.5703,5.5703,5.577,5.5681,5.4971,5.4352,5.3741,5.3079,5.1162,4.8848,4.6367,0.0,0.0,0.0,0.0,0.0,0.0,0.0,0.0,0.0,0.0,0.0,0.0,0.0,0.0,0.0,0.0,0.0,0.0,0.0,0.0,0.0,4.4844,0.0,0.0,0.0,4.5273,4.418,4.5605,4.6308,4.6308,4.6308,4.6308,4.6308,4.6308,4.6308,4.6308,4.6308,4.6223,4.6084,4.5944,4.5828,4.5747,4.5635,4.5586,4.5586,0.0,0.0,0.0,0.0,0.0,0.0,0.0,4.1698,0.0,4.2562,4.4765,4.6746,4.759,4.9187,5.038,5.0765,5.1187,5.1426,5.1426,5.2594,5.3465,5.3843,5.4689,0.0,5.5126,5.2318,4.7663,4.1162,0.0,0.0,0.0,0.0,0.0,0.0,0.0,3.3839,0.0,0.0,0.0,5.2775,5.4863,5.5703,5.5703,5.5703,5.5703,5.5703,5.5703,5.5703,5.5703,5.5703,5.5703,5.5703,5.5703,5.5703,5.5703,5.5703,5.5703,5.5703,5.5703,5.5703,5.5703,5.5703,5.5749,5.571,5.5365,5.4731,5.412,5.3775,5.2411,5.0012,4.5781,4.0781,0.0,0.0,0.0,0.0,0.0,0.0,0.0,0.0,0.0,0.0,0.0,0.0,0.0,0.0,0.0,0.0,0.0,0.0,0.0,0.0,0.0,0.0,0.0,0.0,0.0,4.5058,4.5898,4.6308,4.6308,4.6308,4.6308,4.6308,4.6308,4.6308,4.6289,4.6225,4.617,4.6084,4.594,4.5861,4.5796,4.5737,4.5648,4.5586,0.0,3.1373,0.0,0.0,3.7058,0.0,4.0189,4.4381,4.6588,4.4163,4.5084,4.6305,4.7113,4.9517,5.1114,5.1298,5.1885,5.2252,5.2252,5.3588,5.4355,5.4355,5.516,5.5577,5.5577,5.4874,5.0779,0.0,0.0,0.0,0.0,0.0,0.0,0.0,0.0,0.0,0.0,0.0,5.0078,5.1692,5.4365,5.5446,5.5446,5.5535,5.5577,5.5577,5.5662,5.5703,5.5703,5.5703,5.5703,5.5703,5.5703,5.5703,5.5703,5.5703,5.5703,5.5703,5.5703,5.5703,5.5703,5.5703,5.5568,5.5304,5.4779,5.3859,5.316,5.3258,5.2166,4.993,4.5761,4.2285,0.0,0.0,0.0,0.0,0.0,0.0,0.0,0.0,0.0,0.0,0.0,0.0,0.0,0.0,0.0,0.0,0.0,0.0,0.0,0.0,0.0,4.2773,4.4648,0.0,4.4766,4.5742,4.6113,4.6308,4.6308,4.6308,4.6308,4.6308,4.6308,4.6308,4.6289,4.6198,4.6144,4.612,4.5995,4.5881,4.5808,4.5809,4.5723,4.5586,0.0,0.0,0.0,0.0,0.0,0.0,4.1068,4.4302,4.6812,4.7179,4.9003,5.0545,5.1334,5.1683,5.2179,5.2913,5.3059,5.3096,5.3096,5.3567,5.3888,5.3888,5.4712,5.516,5.516,5.4725,5.2202,0.0,0.0,3.6892,0.0,0.0,0.0,0.0,0.0,0.0,0.0,4.7173,5.0116,5.3588,5.4326,5.4609,5.464,5.5007,5.516,5.5212,5.5577,5.5703,5.5703,5.5703,5.5703,5.5703,5.5703,5.5703,5.5703,5.5703,5.5703,5.5703,5.5703,5.5703,5.5703,5.5703,5.5145,5.4587,5.4533,5.3335,5.2225,5.224,5.1697,4.993,4.5761,4.7187,4.668,0.0,0.0,0.0,0.0,0.0,0.0,0.0,0.0,0.0,0.0,0.0,0.0,0.0,0.0,0.0,0.0,0.0,0.0,3.8926,0.0,3.9863,3.9336,4.3808,4.5351,4.3965,4.5547,4.6308,4.6308,4.6308,4.6308,4.6308,4.6308,4.6308,4.6308,4.6289,4.6289,4.6268,4.612,4.5995,4.5891,4.582,4.5723,4.5586,0.0,0.0,0.0,0.0,0.0,0.0,0.0,4.5571,4.7561,4.8325,4.9847,5.1358,5.2577,5.2729,5.2858,5.3188,5.3206,5.3206,5.3206,5.3565,5.3814,5.3814,5.4401,5.4731,5.4731,5.4572,5.2175,0.0,0.0,0.0,0.0,0.0,0.0,0.0,0.0,4.3214,4.6838,5.0043,5.2324,5.3851,5.4322,5.4503,5.4547,5.4952,5.5088,5.516,5.5554,5.5703,5.5703,5.5703,5.5703,5.5703,5.5703,5.5703,5.5703,5.5703,5.5703,5.5703,5.5703,5.5703,5.5703,5.5703,5.5453,5.4953,5.3953,5.3225,5.2507,5.1575,5.1279,5.0711,4.912,4.7441,4.6133,0.0,0.0,0.0,0.0,0.0,0.0,0.0,0.0,0.0,0.0,0.0,0.0,0.0,0.0,0.0,0.0,0.0,0.0,3.5391,0.0,4.1523,4.0176,4.4238,4.5957,4.5273,4.5976,4.6308,4.6308,4.6308,4.6308,4.6308,4.6308,4.6308,4.6308,4.6308,4.6308,4.6289,4.6246,4.6144,4.6021,4.5891,4.5808,4.5708,3.8751,0.0,3.9255,0.0,4.2176,4.2791,4.4626,4.6549,4.8164,4.9121,5.0258,5.1517,5.3048,5.3206,5.3206,5.3206,5.3206,5.3206,5.3206,5.3484,5.3624,5.3624,5.4048,0.0,5.4288,5.4439,5.2755,4.9141,4.4737,0.0,0.0,3.5721,3.7396,0.0,4.4874,4.7241,4.9095,5.2284,5.3624,5.3663,5.3979,5.4121,5.4171,5.456,5.48,5.4979,5.5375,5.5599,5.5703,5.5703,5.5703,5.5703,5.5703,5.5703,5.5703,5.5703,5.5703,5.5703,5.5703,5.5703,5.5703,5.5703,5.5511,5.503,5.3857,5.3224,5.2507,5.125,5.1098,5.1238,5.1386,4.8223,4.6191,4.8008,0.0,0.0,0.0,0.0,0.0,0.0,0.0,0.0,0.0,0.0,0.0,0.0,0.0,0.0,0.0,0.0,0.0,0.0,0.0,0.0,0.0,4.459,4.6308,4.6308,4.6308,4.6308,4.6308,4.6308,4.6308,4.6308,4.6308,4.6308,4.6308,4.6308,4.6308,4.6308,4.6308,4.6198,4.6033,4.5932,4.5828,4.5737,4.073,4.1153,4.1863,4.4147,4.5145,4.5652,4.5686,4.6955,4.8408,4.9782,5.0659,5.1661,5.306,5.3206,5.3206,5.3206,5.3206,5.3206,5.3206,5.3206,5.3206,0.0,0.0,5.3814,5.3814,5.4255,5.4465,5.4409,0.0,0.0,4.6646,4.2191,4.2179,4.5865,4.6728,4.9352,5.3133,5.3188,5.3206,5.3206,5.3206,5.3206,5.3272,5.3663,5.4118,5.4566,5.4979,5.5356,5.5703,5.5703,5.5703,5.5703,5.5703,5.5703,5.5703,5.5703,5.5703,5.5703,5.5703,5.5703,5.5703,5.5703,5.5107,5.4511,5.4491,5.3259,5.1936,5.1323,5.1201,5.1238,5.1386,5.0703,4.873,4.4473,0.0,0.0,0.0,0.0,0.0,0.0,0.0,3.0753,3.5533,0.0,0.0,0.0,0.0,0.0,0.0,0.0,0.0,3.8437,4.0293,0.0,4.1191,4.459,4.6308,4.6308,4.6308,4.6308,4.6308,4.6308,4.6308,4.6308,4.6308,4.6308,4.6308,4.6308,4.6308,4.6308,4.6308,4.6144,4.5899,4.5899,4.5757,4.5603,4.3369,4.391,4.4502,4.5213,4.5957,4.6447,4.6447,4.7293,4.8209,4.9147,4.9864,5.0876,5.2289,5.2893,5.3206,0.0,5.3206,5.3206,0.0,5.3206,5.3206,5.3206,5.3336,5.3381,5.3381,5.3524,5.3623,5.3623,0.0,0.0,0.0,4.5547,4.704,5.0894,5.1151,5.1995,5.3206,5.3206,5.3206,5.3206,5.3206,5.3206,5.323,5.3663,5.4083,5.4566,5.4952,5.5375,5.5703,5.5703,5.5703,5.5703,5.5703,5.5703,5.5703,5.5703,5.5703,5.5703,5.5703,5.5703,5.5703,5.5703,5.5511,5.5208,5.4743,5.3462,5.2154,5.1372,5.1268,5.1344,5.1386,5.0742,4.9511,4.7445,4.7506,0.0,0.0,0.0,0.0,0.0,0.0,3.9433,0.0,3.5344,0.0,0.0,0.0,0.0,0.0,0.0,0.0,0.0,4.0742,0.0,4.1211,4.459,4.6308,4.6308,4.6308,4.6308,4.6308,4.6308,4.6308,4.6308,4.6308,4.6308,4.6308,4.6308,4.6308,4.6308,4.6308,4.6247,4.6147,4.5974,4.5872,4.5782,4.4942,4.5382,4.5788,4.6058,4.6718,4.7208,4.7208,4.7851,4.8575,4.921,4.9945,5.0858,5.1952,5.2769,0.0,5.3206,5.3206,5.3206,5.3206,5.3206,5.3206,5.3206,5.3206,5.3206,5.3206,5.3206,0.0,5.3206,5.0655,4.9407,4.9407,4.9407,5.0765,5.3206,5.3206,5.3206,5.3206,5.3206,5.3206,5.3206,5.3206,5.3206,5.3248,5.3484,5.387,5.4255,5.4528,5.4905,5.5237,5.5237,5.5331,5.547,5.547,5.5577,5.5703,5.5703,5.5703,5.5703,5.5703,5.5703,5.5703,5.5703,5.5703,5.546,5.4498,5.3604,5.265,5.1503,5.1343,5.1406,5.1406,5.0742,4.9882,4.8934,4.7962,4.6975,4.5975,0.0,0.0,0.0,0.0,0.0,0.0,3.7774,3.6026,0.0,0.0,0.0,0.0,0.0,0.0,3.7715,4.2793,0.0,4.3125,4.5234,4.6308,4.6308,4.6308,4.6308,4.6308,4.6308,4.6308,4.6308,4.6308,4.6308,4.6308,4.6308,4.6308,4.6308,4.6308,4.6246,4.612,4.5967,4.5842,4.5776,4.55,4.5754,4.6058,0.0,4.7479,0.0,4.8003,4.8578,4.9212,4.9879,5.05,5.1241,5.1952,5.2662,5.3103,5.3206,0.0,0.0,0.0,5.3206,5.3206,5.3206,5.3206,5.3206,5.3206,5.3206,5.3206,5.3206,5.3206,5.3206,5.3206,5.3206,5.3206,5.3206,5.3206,5.3206,5.3206,5.3206,5.3206,5.3206,5.3206,5.3206,5.3206,5.3206,5.3444,5.3814,5.3814,5.4083,5.4503,5.4535,5.479,5.5088,5.5134,5.5399,5.5703,5.5703,5.5703,5.5703,5.5703,5.5703,5.5703,5.5703,5.5705,5.5326,5.3909,5.3697,5.3333,5.1714,5.1386,5.1367,5.1308,5.0703,4.9883,4.8945,4.7918,4.6909,4.6016,4.5744,0.0,0.0,0.0,0.0,0.0,3.7002,3.8029,0.0,0.0,0.0,0.0,0.0,3.8164,4.4785,4.5859,4.6308,4.6308,4.6308,4.6308,4.6308,4.6308,4.6308,4.6308,4.6308,4.6308,4.6308,4.6308,4.6308,4.6308,4.6308,4.6308,4.6308,4.6289,4.612,4.5907,4.589,4.5776,4.562,0.0,0.0,4.7378,4.7327,4.8105,4.8748,4.8748,4.89,4.9063,4.9212,4.9359,4.9993,5.1189,5.1512,5.2036,5.3103,5.3206,5.3206,5.3206,5.3206,5.3206,5.3206,5.3206,5.3206,5.3206,5.3206,5.3206,5.3206,5.3206,5.3206,5.3206,5.3206,5.3206,5.3206,5.3206,5.3206,5.3206,5.3206,5.3206,5.3206,5.3206,5.3206,5.3206,5.3206,5.3444,5.3814,5.3814,5.4083,5.4566,5.4848,5.5007,5.516,5.5466,5.5621,5.5703,5.5703,5.5703,5.5703,5.5703,5.5703,5.5703,5.5703,5.5789,5.5429,5.3805,5.3538,5.3184,5.1522,5.121,5.1066,5.0442,5.0267,4.9667,4.8027,4.7533,4.7002,4.6052,4.5872,4.5431,0.0,4.4256,4.3848,4.2748,4.2743,4.1691,0.0,0.0,0.0,0.0,3.9856,4.1197,4.4883,4.5859,4.6308,4.6308,4.6308,4.6308,4.6308,4.6308,4.6308,4.6308,4.6308,4.6308,4.6308,4.6308,4.6308,4.6308,4.6308,4.6308,4.6289,4.6198,4.6113,4.6033,4.588,4.579,4.5733,4.5805,4.6718,4.7564,4.8088,4.8646,4.9001,4.9001,4.9001,4.9001,4.9001,4.958,5.0258,5.1034,5.1661,5.2371,5.3103,5.3206,5.3206,5.3206,5.3206,5.3206,5.3206,5.3206,5.3206,5.3206,5.3206,5.3206,5.3206,5.3206,5.3206,5.3206,5.3206,5.3206,5.3206,5.3206,5.3206,5.3206,5.3206,5.3206,5.3206,5.3206,5.3206,5.3206,5.3206,5.3336,5.3545,5.374,5.3941,5.4255,5.4671,5.4952,5.5134,5.5375,5.5535,5.5703,5.5703,5.5703,5.5703,5.5703,5.5703,5.5703,5.5703,5.5808,5.5575,5.4281,5.411,5.372,5.1998,5.1685,5.1349,5.0221,4.9723,4.9079,4.7707,4.71,4.6596,4.5987,4.5877,4.5826,4.5767,4.5767,4.544,4.4606,4.4566,4.3488,4.0801,4.1016,0.0,4.2069,4.2494,4.3609,4.5527,4.6055,4.6308,4.6308,4.6308,4.6308,4.6308,4.6308,4.6308,4.6308,4.6308,4.6308,4.6308,4.6308,4.6308,4.6308,4.6308,4.6268,4.62,4.612,4.6033,4.5957,4.5852,4.5761,4.5692,4.7073,4.7242,4.753,4.8781,4.9001,4.9001,4.9001,4.9001,4.9063,4.9168,5.0202,5.1034,5.1241,5.2307,5.3103,5.3206,5.3206,5.3206,5.3206,5.3206,5.3206,5.3206,5.3206,5.3206,5.3206,5.3206,5.3206,5.3206,5.3206,5.3206,5.3206,5.3206,5.3206,5.3206,5.3206,5.3206,5.3206,5.3206,5.3206,5.3206,5.3206,5.3206,5.3206,5.3206,5.3248,5.3336,5.3701,5.3851,5.3977,5.442,5.4838,5.5107,5.5186,5.5423,5.5703,5.5703,5.5703,5.5703,5.5703,5.5703,5.5703,5.5703,5.5808,5.5661,5.4851,5.476,5.4381,5.2768,5.2364,5.1784,5.0231,4.9254,4.8287,4.7009,4.6402,4.5926,4.5429,4.5622,4.5776,4.5661,4.5641,4.5346,4.4602,4.4637,4.4392,4.366,4.3697,4.4102,4.4865,4.4949,4.5382,4.6269,4.6308,4.6308,4.6308,4.6308,4.6308,4.6308,4.6308,4.6308,4.6308,4.6308,4.6308,4.6308,4.6308,4.6289,4.6268,4.6268,4.6198,4.6075,4.6064,4.5957,4.5796,4.5789,4.5692,4.5586,4.6972,4.7851,4.8731,4.8968,4.9001,4.9001,4.9001,4.9001,4.9212,4.9763,5.0033,5.0591,5.1808,5.2159,5.249,5.3164,5.3206,5.3206,5.3206,5.3206,5.3206,5.3206,5.3206,5.3206,5.3206,5.3206,5.3206,5.3206,5.3206,5.3206,5.3206,5.3206,5.3206,5.3206,5.3206,5.3206,5.3206,5.3206,5.3206,5.3206,5.3206,5.3206,5.3206,5.3206,5.3422,5.372,5.3777,5.4048,5.4452,5.4848,5.5034,5.516,5.5489,5.5662,5.5703,5.5703,5.5703,5.5703,5.5703,5.5703,5.5703,5.5703,5.5726,5.5516,5.4707,5.4554,5.4285,5.3282,5.2572,5.1629,4.997,4.9125,4.7474,4.3736,4.48,4.5347,4.315,4.4616,4.5891,4.5857,4.585,4.5792,4.5655,4.5659,4.5632,4.5496,4.5451,4.556,4.5874,4.5787,4.5908,4.6289,4.6308,4.6308,4.6308,4.6308,4.6308,4.6308,4.6308,4.6308,4.6308,4.6308,4.6308,4.6308,4.6308,4.6246,4.612,4.612,4.6045,4.5935,4.5869,4.5828,4.5783,4.568,4.562,4.5586,4.7953,4.8528,4.9001,4.9001,4.9001,4.9001,4.9001,4.9001,4.9256,4.9919,5.0352,5.0981,5.2,5.2445,5.2831,5.3164,5.3206,5.3206,5.3206,5.3206,5.3206,5.3206,5.3628,5.3849,5.3849,5.4271,5.4069,5.3206,5.3628,5.3628,5.3206,5.3206,5.3206,5.3206,5.3206,5.3206,5.3206,5.3206,5.3206,5.3206,5.3206,5.3206,5.3206,5.3444,5.3624,5.3869,5.4317,5.4652,5.4876,5.5282,5.5423,5.5466,5.564,5.5703,5.5703,5.5703,5.5703,5.5607,5.5164,5.5049,5.4934,5.4472,5.4357,5.4376,5.4472,5.4145,5.3683,5.328,5.2223,5.0844,4.9199,4.8293,4.7008,4.463,4.5228,4.5565,4.4364,4.5152,4.5825,4.5757,4.5744,4.5744,4.5744,4.5744,4.5744,4.5744,4.5718,4.575,4.5939,4.5501,4.5326,4.5495,4.6014,4.6308,4.6308,4.6308,4.6308,4.6308,4.6308,4.6308,4.6308,4.6308,4.6308,4.6308,4.6223,4.617,4.6089,4.6027,4.5927,4.5847,4.5815,4.5761,4.5677,4.5618,4.5586,4.5586,4.8849,4.9001,4.9001,4.9001,4.9001,4.9001,4.9001,4.9001,4.9316,5.0146,5.077,5.1393,5.2271,5.2875,5.3206,5.3206,5.3206,5.3206,5.3206,5.3206,5.3206,5.3206,5.3977,5.4491,5.4675,5.5262,5.4895,5.3482,5.4289,5.4271,5.3482,5.3482,5.3482,5.3482,5.3298,5.3206,5.3206,5.3206,5.3206,5.3206,5.3206,5.3272,5.3359,5.3683,5.3941,5.4202,5.4876,5.516,5.5282,5.5599,5.5703,5.5665,5.5472,5.5415,5.5376,5.5184,5.5126,5.4972,5.4376,5.4203,5.4049,5.3376,5.3203,5.3376,5.4049,5.3683,5.3203,5.3203,5.1875,5.0259,4.8813,4.771,4.6539,4.5191,4.5483,4.5647,4.4996,4.5388,4.5723,4.562,4.5586,4.5586,4.5586,4.5586,4.5586,4.5586,4.5586,4.568,4.5828,4.5104,4.465,4.4543,4.5485,4.5996,4.5996,4.6191,4.6308,4.6308,4.6308,4.6308,4.6308,4.6308,4.6308,4.6289,4.617,4.608,4.6039,4.5927,4.5836,4.5761,4.5761,4.5677,4.5586,4.5586,4.5586,4.5586,4.8984,4.9001,4.9001,4.9001,4.9001,4.9001,4.9001,4.9001,4.9479,5.0823,5.1086,5.1629,5.2999,5.3164,5.3206,5.3206,5.3206,5.3206,5.3206,5.3206,5.3206,5.3206,5.3977,5.4748,5.5482,5.5556,5.517,5.4308,5.5115,5.5097,5.4308,5.4308,5.4308,5.4289,5.3537,5.3206,5.3206,5.3206,5.3206,5.3206,5.3206,5.3422,5.374,5.3777,5.4284,5.5007,5.5061,5.5331,5.5662,5.5684,5.5703,5.5568,5.4818,5.4587,5.4434,5.3626,5.3376,5.3376,5.3318,5.3299,5.328,5.3222,5.3203,5.3222,5.328,5.326,5.3203,5.3203,5.1875,5.0433,4.949,4.8044,4.5957,4.2718,4.4228,4.4963,4.2531,4.416,4.5603,4.5603,4.5586,4.5586,4.5586,4.5586,4.5586,4.5586,4.5586,4.5703,4.5872,4.5131,4.4423,4.3808,4.4648,4.5098,4.5098,4.5898,4.6308,4.6308,4.6308,4.6308,4.6308,4.6308,4.6308,4.6289,4.617,4.6033,4.5907,4.5844,4.5733,4.562,4.562,4.5603,4.5586,4.5586,4.5586,4.5586,4.9001,4.9001,4.9001,4.9001,4.9001,4.9001,4.9001,4.9001,4.9538,5.0947,5.1086,5.1629,5.306,5.3206,5.3206,5.3206,5.3206,5.3206,5.3206,5.3206,5.3665,5.4638,5.5464,5.6033,5.6345,5.6822,5.6436,5.5133,5.5941,5.5923,5.5115,5.4638,5.4399,5.4363,5.3573,5.3206,5.3206,5.3206,5.3206,5.3206,5.3206,5.3444,5.3851,5.4118,5.4591,5.5134,5.5399,5.5577,5.5703,5.5703,5.5703,5.5549,5.4741,5.4838,5.4972,5.3606,5.2818,5.2279,5.1779,5.201,5.2279,5.176,5.1645,5.1779,5.2279,5.201,5.1779,5.2299,5.1068,4.9779,4.9452,4.8467,4.7265,4.596,4.6574,4.6706,4.5208,4.5813,4.6201,4.5663,4.5586,4.5586,4.5586,4.5586,4.5586,4.5586,4.568,4.5544,4.519,4.3958,4.2937,4.2168,4.2949,4.3906,4.498,4.5332,4.5488,4.5508,4.6035,4.6016,4.5508,4.6055,4.6248,4.6173,4.6039,4.5918,4.5825,4.5718,4.5651,4.5586,4.5586,4.5586,4.5586,4.5586,4.5586,4.5586,4.9001,4.9001,4.9001,4.9001,4.9001,4.9001,4.9001,4.9152,4.9722,5.0929,5.1292,5.1874,5.306,5.3206,5.3206,5.3206,5.3206,5.3206,5.3206,5.3445,5.4179,5.5537,5.6124,5.6657,5.7171,5.7721,5.7336,5.5978,5.6785,5.6638,5.5574,5.5042,5.4638,5.4363,5.3573,5.3206,5.3206,5.3206,5.3206,5.3206,5.3206,5.3524,5.4048,5.4221,5.4701,5.5306,5.5466,5.5599,5.5703,5.5703,5.5703,5.5549,5.4741,5.4491,5.4222,5.2837,5.1991,5.1395,5.0837,5.1106,5.1395,5.0837,5.0702,5.0837,5.1395,5.1106,5.0856,5.1414,5.0394,4.9394,4.9394,4.8682,4.8105,4.8105,4.8105,4.7817,4.7009,4.6913,4.6584,4.5764,4.5665,4.5661,4.5684,4.5699,4.5699,4.5699,4.577,4.5394,4.4421,4.3108,4.2031,4.123,4.1738,4.2715,4.418,4.4453,4.459,4.4609,4.5195,4.5176,4.4609,4.5193,4.5397,4.5323,4.5429,4.544,4.5396,4.5533,4.5586,4.5586,4.5586,4.5586,4.5586,4.5586,4.5586,4.5586,4.9001,4.9001,4.9001,4.9001,4.9001,4.9001,4.9001,4.9563,5.0241,5.0981,5.171,5.2381,5.3103,5.3206,5.3206,5.3206,5.3206,5.3206,5.3206,5.3959,5.4748,5.5556,5.5592,5.6345,5.796,5.7997,5.7611,5.6822,5.7611,5.7171,5.5611,5.5592,5.517,5.4363,5.3573,5.3225,5.3206,5.3206,5.3206,5.3206,5.3206,5.372,5.442,5.3977,5.4583,5.564,5.5256,5.5356,5.5703,5.5703,5.5703,5.5549,5.4741,5.3299,5.1741,5.0933,5.0702,5.0702,5.0702,5.0702,5.0702,5.0702,5.0702,5.0702,5.0702,5.0702,5.0702,5.0702,5.001,4.9413,4.9413,4.8702,4.8125,4.8125,4.8125,4.7836,4.7028,4.6913,4.6634,4.5899,4.5796,4.5832,4.589,4.5899,4.5899,4.5879,4.5879,4.5207,4.366,4.2825,4.2012,4.123,4.1191,4.1582,4.2383,4.3242,4.3691,4.3691,4.3691,4.3691,4.3691,4.3635,4.3595,4.3626,4.4248,4.4511,4.4563,4.5301,4.5586,4.5586,4.5586,4.5586,4.5586,4.5586,4.5586,4.5586,4.9001,4.9001,4.9001,4.9001,4.9001,4.9001,4.9001,4.9152,4.9722,5.0929,5.1292,5.1874,5.306,5.3206,5.3206,5.3206,5.3206,5.3206,5.3206,5.3427,5.4179,5.5537,5.6143,5.6932,5.7978,5.7997,5.7886,5.7648,5.7886,5.774,5.7262,5.6712,5.6014,5.5207,5.4399,5.3739,5.3206,5.3206,5.3206,5.3206,5.3206,5.3524,5.4013,5.4221,5.4682,5.5306,5.5446,5.5599,5.5703,5.5703,5.5703,5.5549,5.4741,5.3299,5.1856,5.1606,5.1144,5.0702,5.0702,5.0702,5.0702,5.0702,5.0702,5.0702,5.0702,5.0702,5.0702,5.0702,5.0491,5.0298,5.0298,5.0087,4.9913,4.9913,4.9913,4.9643,4.8906,4.8284,4.7608,4.6862,4.6241,4.5881,4.5899,4.5899,4.5665,4.5092,4.4007,4.3197,4.2788,4.1992,4.1445,4.1211,4.1191,4.1328,4.1562,4.2383,4.2793,4.2793,4.3418,4.3379,4.2812,4.3342,4.3553,4.3506,4.4206,4.4452,4.4415,4.5255,4.5586,4.5586,4.5586,4.5586,4.5586,4.5586,4.5586,4.5586,4.9001,4.9001,4.9001,4.9001,4.9001,4.9001,4.9001,4.9212,4.978,5.0929,5.1343,5.1922,5.306,5.3206,5.3206,5.3206,5.3206,5.3353,5.3665,5.3683,5.4399,5.5996,5.684,5.7501,5.7997,5.8309,5.8474,5.8474,5.8474,5.8309,5.7978,5.7189,5.6198,5.5097,5.462,5.3959,5.3206,5.3206,5.3206,5.3206,5.3206,5.3444,5.3851,5.4118,5.4609,5.5134,5.5375,5.5577,5.5703,5.5703,5.5703,5.5549,5.4741,5.3549,5.2356,5.201,5.1337,5.0702,5.0702,5.0702,5.0702,5.0702,5.0702,5.0702,5.0702,5.0702,5.0702,5.0702,5.0702,5.0702,5.0702,5.0702,5.0702,5.0702,5.0739,5.0497,4.9713,4.8891,4.8105,4.7377,4.6507,4.5995,4.6045,4.5757,4.5211,4.4367,4.3072,4.2355,4.2402,4.1641,4.1191,4.1191,4.1191,4.1191,4.1191,4.168,4.1933,4.1933,4.2461,4.2441,4.1933,4.2327,4.2455,4.2408,4.3124,4.3578,4.3893,4.4739,4.5278,4.5586,4.5586,4.5586,4.5586,4.5586,4.5586,4.5586,4.9001,4.9001,4.9001,4.9001,4.9001,4.9001,4.9001,4.9521,5.0185,5.0981,5.1643,5.2317,5.3103,5.3206,5.3206,5.3206,5.328,5.3628,5.4344,5.4473,5.5188,5.673,5.7574,5.8033,5.8107,5.8914,5.9318,5.9318,5.9318,5.8933,5.8198,5.7317,5.6088,5.462,5.4454,5.3959,5.3206,5.3206,5.3206,5.3206,5.3206,5.3444,5.3795,5.3851,5.4401,5.5088,5.5134,5.5399,5.5703,5.5703,5.5703,5.5549,5.4741,5.3895,5.3029,5.2164,5.1337,5.0702,5.0702,5.0702,5.0702,5.0702,5.0702,5.0702,5.0702,5.0702,5.0702,5.0702,5.0702,5.0702,5.0702,5.0702,5.0702,5.0702,5.0805,5.0618,4.9833,4.9018,4.8273,4.7615,4.6702,4.6173,4.6289,4.5449,4.4551,4.3769,4.2832,4.2285,4.2285,4.1601,4.1191,4.1191,4.1191,4.1191,4.1191,4.1191,4.1191,4.1191,4.1191,4.1191,4.1191,4.092,4.0801,4.0843,4.1517,4.2297,4.3162,4.397,4.4797,4.5586,4.5586,4.5586,4.5586,4.5586,4.5586,4.5586,4.9001,4.9001,4.9001,4.9001,4.9001,4.9001,4.9001,4.9107,4.9681,5.0929,5.1241,5.1825,5.306,5.3206,5.3206,5.3206,5.3794,5.4216,5.4399,5.4987,5.5776,5.6767,5.7574,5.829,5.8951,5.974,6.0144,6.0144,6.0144,6.0052,5.985,5.8419,5.7226,5.6235,5.4968,5.3959,5.3206,5.3206,5.3206,5.3206,5.3206,5.3444,5.3851,5.4221,5.4671,5.516,5.5466,5.564,5.5703,5.5703,5.5703,5.5549,5.4741,5.3895,5.3029,5.2164,5.1337,5.0702,5.0702,5.0702,5.0702,5.0702,5.0702,5.0702,5.0702,5.0702,5.0702,5.0702,5.0702,5.0702,5.0702,5.0702,5.0702,5.0702,5.0805,5.0868,5.0798,4.9559,4.8645,4.857,4.7205,4.6268,4.6308,4.4883,4.3906,4.3711,4.2305,4.1465,4.1465,4.1289,4.1191,4.1191,4.1191,4.1191,4.1191,4.1191,4.1191,4.1191,4.1191,4.1191,4.1191,4.092,4.0801,4.0843,4.1517,4.2297,4.3162,4.397,4.4797,4.5586,4.5586,4.5586,4.5586,4.5586,4.5586,4.5586,4.9001,4.9001,4.9001,4.9001,4.9001,4.9001,4.9001,4.9001,4.9538,5.0947,5.1086,5.1629,5.306,5.3206,5.3353,5.3739,5.4161,5.473,5.55,5.5941,5.6528,5.7336,5.8143,5.8951,5.9758,6.0566,6.097,6.097,6.097,6.097,6.0951,5.9722,5.8309,5.6767,5.5923,5.4675,5.3206,5.3206,5.3206,5.3206,5.3206,5.3444,5.3832,5.4322,5.4731,5.516,5.5554,5.5703,5.5703,5.5703,5.5703,5.5626,5.5203,5.4203,5.3106,5.2664,5.1664,5.0702,5.0702,5.0702,5.0702,5.0702,5.0702,5.0702,5.0702,5.0702,5.0702,5.0702,5.0702,5.0702,5.0702,5.0702,5.0702,5.0702,5.0883,5.1027,5.1084,4.9775,4.8821,4.8886,4.7363,4.5976,4.5137,4.4238,4.3379,4.2578,4.1699,4.1191,4.1191,4.1191,4.1191,4.1191,4.1191,4.1191,4.1191,4.1191,4.1191,4.1191,4.1191,4.1191,4.1191,4.092,4.0801,4.0805,4.1073,4.1662,4.2547,4.3374,4.422,4.5009,4.5432,4.5586,4.5586,4.5586,4.5586,4.5586,4.9152,4.9152,4.9152,4.9152,4.9152,4.9107,4.9001,4.9001,4.9538,5.0947,5.1086,5.1629,5.306,5.3206,5.3537,5.4326,5.4528,5.5225,5.6712,5.6932,5.7299,5.796,5.8786,5.952,6.0181,6.1117,6.1667,6.1814,6.1814,6.1814,6.1777,6.0713,5.9061,5.6987,5.6583,5.5207,5.3206,5.3206,5.3206,5.3206,5.3254,5.3545,5.3977,5.442,5.4848,5.5256,5.5577,5.5703,5.5703,5.5703,5.5703,5.5703,5.5703,5.4549,5.3203,5.3203,5.201,5.0702,5.0702,5.0702,5.0702,5.0702,5.0702,5.0702,5.0702,5.0702,5.0702,5.0702,5.0702,5.0702,5.0702,5.0702,5.0702,5.0702,5.0918,5.1055,5.0899,4.9747,4.8848,4.8691,4.7266,4.5664,4.4082,4.3789,4.3066,4.1523,4.1289,4.1191,4.1191,4.1191,4.1191,4.1191,4.1191,4.1191,4.1191,4.1191,4.1191,4.1191,4.1191,4.1191,4.1191,4.092,4.0801,4.0785,4.0584,4.0989,4.1873,4.2739,4.3566,4.4393,4.5259,4.5586,4.5586,4.5586,4.5586,4.5586,4.978,4.9879,4.9879,4.9879,4.9879,4.9664,4.9107,4.9001,4.9538,5.0947,5.1086,5.1629,5.306,5.3206,5.3537,5.4326,5.5042,5.5831,5.6748,5.7446,5.7886,5.7997,5.8786,5.9263,5.9373,6.0823,6.1942,6.2658,6.2658,6.2658,6.2603,6.0401,5.8822,5.774,5.5666,5.4161,5.3206,5.3206,5.3206,5.3248,5.3565,5.3977,5.4452,5.4848,5.5282,5.564,5.5684,5.5703,5.5703,5.5703,5.5703,5.5703,5.5703,5.4549,5.3203,5.3203,5.201,5.0702,5.0702,5.0702,5.0702,5.0702,5.0702,5.0702,5.0702,5.0702,5.0702,5.0702,5.0702,5.0702,5.0702,5.0702,5.0702,5.0702,5.0918,5.0841,5.0072,4.9356,4.8613,4.7871,4.6894,4.5918,4.4922,4.4141,4.3281,4.2305,4.1582,4.1191,4.1191,4.1191,4.1191,4.1191,4.1191,4.1191,4.1191,4.1191,4.1191,4.1191,4.1191,4.1191,4.1191,4.092,4.0801,4.0785,4.0584,4.0989,4.1873,4.2739,4.3566,4.4393,4.5259,4.5586,4.5586,4.5586,4.5586,4.5586,4.9359,4.9722,4.9879,4.9521,4.978,4.9763,4.9107,4.9316,4.9936,5.0981,5.1444,5.2018,5.3103,5.3206,5.3537,5.4326,5.5133,5.5941,5.6767,5.7556,5.7997,5.7997,5.8345,5.8749,5.9208,5.9905,6.0658,6.1465,6.1924,6.2126,6.2108,6.0584,5.9208,5.7941,5.6895,5.5464,5.3867,5.3867,5.361,5.3248,5.3624,5.4083,5.4547,5.4952,5.5331,5.5703,5.5703,5.5703,5.5703,5.5703,5.5703,5.5703,5.5703,5.4549,5.3203,5.3203,5.201,5.0702,5.0702,5.0702,5.0702,5.0702,5.0702,5.0702,5.0702,5.0702,5.0702,5.0702,5.0702,5.0702,5.0702,5.0702,5.0702,5.0702,5.0918,5.0802,4.9917,4.8868,4.7636,4.6219,4.6189,4.5741,4.4343,4.3904,4.3144,4.1836,4.1406,4.1191,4.1191,4.1191,4.1191,4.1191,4.1191,4.1191,4.1191,4.1191,4.1191,4.1191,4.1191,4.1151,4.108,4.0883,4.0788,4.0742,4.0582,4.0719,4.1181,4.2547,4.3316,4.3758,4.5066,4.5586,4.5586,4.5586,4.5586,4.5586]}]]